[[{"header":{"parameterUnit":"m.s-1","parameterCategory":1,"la1":30.6,"la2":28.766,"lo1":-90.7593,"lo2":-88.6598,"dx":0.0162,"dy":0.0183,"nx":116,"ny":114,"refTime":"2023-02-04T06:00:00:Z","depth":0,"parameterNumber":2,"parameterNumberName":"U-component_of_WINDS"},"data":[0.0,0.0,0.0,0.0,0.0,0.0,0.0,0.0,0.0,0.0,0.0,0.0,0.0,0.0,0.0,0.0,0.0,0.0,0.0,0.0,0.0,0.0,0.0,0.0,0.0,0.0,0.0,0.0,0.0,0.0,0.0,0.0,0.0,0.0,0.0,0.0,0.0,0.0,0.0,0.0,0.0,0.0,0.0,0.0,0.0,0.0,0.0,0.0,0.0,0.0,0.0,0.0,0.0,0.0,0.0,0.0,0.0,0.0,0.0,0.0,0.0,0.0,0.0,0.0,0.0,0.0,0.0,0.0,0.0,0.0,0.0,0.0,0.0,0.0,0.0,0.0,0.0,0.0,0.0,0.0,0.0,0.0,0.0,0.0,0.0,0.0,0.0,0.0,0.0,0.0,0.0,0.0,0.0,0.0,0.0,0.0,0.0,0.0,0.0,0.0,0.0,0.0,0.0,0.0,0.0,0.0,0.0,0.0,0.0,0.0,0.0,0.0,0.0,0.0,0.0,0.0,0.0,0.0,0.0,0.0,0.0,0.0,0.0,0.0,0.0,0.0,0.0,0.0,0.0,0.0,0.0,0.0,0.0,0.0,0.0,0.0,0.0,0.0,0.0,0.0,0.0,0.0,0.0,0.0,0.0,0.0,0.0,0.0,0.0,0.0,0.0,0.0,0.0,0.0,0.0,0.0,0.0,0.0,0.0,0.0,0.0,0.0,0.0,0.0,0.0,0.0,0.0,0.0,0.0,0.0,0.0,0.0,0.0,0.0,0.0,0.0,0.0,0.0,0.0,0.0,0.0,0.0,0.0,0.0,0.0,0.0,0.0,0.0,0.0,0.0,0.0,0.0,0.0,0.0,0.0,0.0,0.0,0.0,0.0,0.0,0.0,0.0,0.0,0.0,0.0,0.0,0.0,0.0,0.0,0.0,0.0,0.0,0.0,0.0,0.0,0.0,0.0,0.0,0.0,0.0,0.0,0.0,0.0,0.0,0.0,0.0,0.0,0.0,0.0,0.0,0.0,0.0,0.0,0.0,0.0,0.0,0.0,0.0,0.0,0.0,0.0,0.0,0.0,0.0,0.0,0.0,0.0,0.0,0.0,0.0,0.0,0.0,0.0,0.0,0.0,0.0,0.0,0.0,0.0,0.0,0.0,0.0,0.0,0.0,0.0,0.0,0.0,0.0,0.0,0.0,0.0,0.0,0.0,0.0,0.0,0.0,0.0,0.0,0.0,0.0,0.0,0.0,0.0,0.0,0.0,0.0,0.0,0.0,0.0,0.0,0.0,0.0,0.0,0.0,0.0,0.0,0.0,0.0,0.0,0.0,0.0,0.0,0.0,0.0,0.0,0.0,0.0,0.0,0.0,0.0,0.0,0.0,0.0,0.0,0.0,0.0,0.0,0.0,0.0,0.0,0.0,0.0,0.0,0.0,0.0,0.0,0.0,0.0,0.0,0.0,0.0,0.0,0.0,0.0,0.0,0.0,0.0,0.0,0.0,0.0,0.0,0.0,0.0,0.0,0.0,0.0,0.0,0.0,0.0,0.0,0.0,0.0,0.0,0.0,0.0,0.0,0.0,0.0,0.0,0.0,0.0,0.0,0.0,0.0,0.0,0.0,0.0,0.0,0.0,0.0,0.0,0.0,0.0,0.0,0.0,0.0,0.0,0.0,0.0,0.0,0.0,0.0,0.0,0.0,0.0,0.0,0.0,0.0,0.0,0.0,0.0,0.0,0.0,0.0,0.0,0.0,0.0,0.0,0.0,0.0,0.0,0.0,0.0,0.0,0.0,0.0,0.0,0.0,0.0,0.0,0.0,0.0,0.0,0.0,0.0,0.0,0.0,0.0,0.0,0.0,0.0,0.0,0.0,0.0,0.0,0.0,0.0,0.0,0.0,0.0,0.0,0.0,0.0,0.0,0.0,0.0,0.0,0.0,0.0,0.0,0.0,0.0,0.0,0.0,0.0,0.0,0.0,0.0,0.0,0.0,0.0,0.0,0.0,0.0,0.0,0.0,0.0,0.0,0.0,0.0,0.0,0.0,0.0,0.0,0.0,0.0,0.0,0.0,0.0,0.0,0.0,0.0,0.0,0.0,0.0,0.0,0.0,0.0,0.0,0.0,0.0,0.0,0.0,0.0,0.0,0.0,0.0,0.0,0.0,0.0,0.0,0.0,0.0,0.0,0.0,0.0,0.0,0.0,0.0,0.0,0.0,0.0,0.0,0.0,0.0,0.0,0.0,0.0,0.0,0.0,0.0,0.0,0.0,0.0,0.0,0.0,0.0,0.0,0.0,0.0,0.0,0.0,0.0,0.0,0.0,0.0,0.0,0.0,0.0,0.0,0.0,0.0,0.0,0.0,0.0,0.0,0.0,0.0,0.0,0.0,0.0,0.0,0.0,0.0,0.0,0.0,0.0,0.0,0.0,0.0,0.0,0.0,0.0,0.0,0.0,0.0,0.0,0.0,0.0,0.0,0.0,0.0,0.0,0.0,0.0,0.0,0.0,0.0,0.0,0.0,0.0,0.0,0.0,0.0,0.0,0.0,0.0,0.0,0.0,0.0,0.0,0.0,0.0,0.0,0.0,0.0,0.0,0.0,0.0,0.0,0.0,0.0,0.0,0.0,0.0,0.0,0.0,0.0,0.0,0.0,0.0,0.0,0.0,0.0,0.0,0.0,0.0,0.0,0.0,0.0,0.0,0.0,0.0,0.0,0.0,0.0,0.0,0.0,0.0,0.0,0.0,0.0,0.0,0.0,0.0,0.0,0.0,0.0,0.0,0.0,0.0,0.0,0.0,0.0,0.0,0.0,0.0,0.0,0.0,0.0,0.0,0.0,0.0,0.0,0.0,0.0,0.0,0.0,0.0,0.0,0.0,0.0,0.0,0.0,0.0,0.0,0.0,0.0,0.0,0.0,0.0,0.0,0.0,0.0,0.0,0.0,0.0,0.0,0.0,0.0,0.0,0.0,0.0,0.0,0.0,0.0,0.0,0.0,0.0,0.0,0.0,0.0,0.0,0.0,0.0,0.0,0.0,0.0,0.0,0.0,0.0,0.0,0.0,0.0,0.0,0.0,0.0,0.0,0.0,0.0,0.0,0.0,0.0,0.0,0.0,0.0,0.0,0.0,0.0,0.0,0.0,0.0,0.0,0.0,0.0,0.0,0.0,0.0,0.0,0.0,0.0,0.0,0.0,0.0,0.0,0.0,0.0,0.0,0.0,0.0,0.0,0.0,0.0,0.0,0.0,0.0,0.0,0.0,0.0,0.0,0.0,0.0,0.0,0.0,0.0,0.0,0.0,0.0,0.0,0.0,0.0,0.0,0.0,0.0,0.0,0.0,0.0,0.0,0.0,0.0,0.0,0.0,0.0,0.0,0.0,0.0,0.0,0.0,0.0,0.0,0.0,0.0,0.0,0.0,0.0,0.0,0.0,0.0,0.0,0.0,0.0,0.0,0.0,0.0,0.0,0.0,0.0,0.0,0.0,0.0,0.0,0.0,0.0,0.0,0.0,0.0,0.0,0.0,0.0,0.0,0.0,0.0,0.0,0.0,0.0,0.0,0.0,0.0,0.0,0.0,0.0,0.0,0.0,0.0,0.0,0.0,0.0,0.0,0.0,0.0,0.0,0.0,0.0,0.0,0.0,0.0,0.0,0.0,0.0,0.0,0.0,0.0,0.0,0.0,0.0,0.0,0.0,0.0,0.0,0.0,0.0,0.0,0.0,0.0,0.0,0.0,0.0,0.0,0.0,0.0,0.0,0.0,0.0,0.0,0.0,0.0,0.0,0.0,0.0,0.0,0.0,0.0,0.0,0.0,0.0,0.0,0.0,0.0,0.0,0.0,0.0,0.0,0.0,0.0,0.0,0.0,0.0,0.0,0.0,0.0,0.0,0.0,0.0,0.0,0.0,0.0,0.0,0.0,0.0,0.0,0.0,0.0,0.0,0.0,0.0,0.0,0.0,0.0,0.0,0.0,0.0,0.0,0.0,0.0,0.0,0.0,0.0,0.0,0.0,0.0,0.0,0.0,0.0,0.0,0.0,0.0,0.0,0.0,0.0,0.0,0.0,0.0,0.0,0.0,0.0,0.0,0.0,0.0,0.0,0.0,0.0,0.0,0.0,0.0,0.0,0.0,0.0,0.0,0.0,0.0,0.0,0.0,0.0,0.0,0.0,0.0,0.0,0.0,0.0,0.0,0.0,0.0,0.0,0.0,0.0,0.0,0.0,0.0,0.0,0.0,0.0,0.0,0.0,0.0,0.0,0.0,0.0,0.0,0.0,0.0,0.0,0.0,0.0,0.0,0.0,0.0,0.0,0.0,0.0,0.0,0.0,0.0,0.0,0.0,0.0,0.0,0.0,0.0,0.0,0.0,0.0,0.0,0.0,0.0,0.0,0.0,0.0,0.0,0.0,0.0,0.0,0.0,0.0,0.0,0.0,0.0,0.0,0.0,0.0,0.0,0.0,0.0,0.0,0.0,0.0,0.0,0.0,0.0,0.0,0.0,0.0,0.0,0.0,0.0,0.0,0.0,0.0,0.0,0.0,0.0,0.0,0.0,0.0,0.0,0.0,0.0,0.0,0.0,0.0,0.0,0.0,0.0,0.0,0.0,0.0,0.0,0.0,0.0,0.0,0.0,0.0,0.0,0.0,0.0,0.0,0.0,0.0,0.0,0.0,0.0,0.0,0.0,0.0,0.0,0.0,0.0,0.0,0.0,0.0,0.0,0.0,0.0,0.0,0.0,0.0,0.0,0.0,0.0,0.0,0.0,0.0,0.0,0.0,0.0,0.0,0.0,0.0,0.0,0.0,0.0,0.0,0.0,0.0,0.0,0.0,0.0,0.0,0.0,0.0,0.0,0.0,0.0,0.0,0.0,0.0,0.0,0.0,0.0,0.0,0.0,0.0,0.0,0.0,0.0,0.0,0.0,0.0,0.0,0.0,0.0,0.0,0.0,0.0,0.0,0.0,0.0,0.0,0.0,0.0,0.0,0.0,0.0,0.0,0.0,0.0,0.0,0.0,0.0,0.0,0.0,0.0,0.0,0.0,0.0,0.0,0.0,0.0,0.0,0.0,0.0,0.0,0.0,0.0,0.0,0.0,0.0,0.0,0.0,0.0,0.0,0.0,0.0,0.0,0.0,0.0,0.0,0.0,0.0,0.0,0.0,0.0,0.0,0.0,0.0,0.0,0.0,0.0,0.0,0.0,0.0,0.0,0.0,0.0,0.0,0.0,0.0,0.0,0.0,0.0,0.0,0.0,0.0,0.0,0.0,0.0,0.0,0.0,0.0,0.0,0.0,0.0,0.0,0.0,0.0,0.0,0.0,0.0,0.0,0.0,0.0,0.0,0.0,0.0,0.0,0.0,0.0,0.0,0.0,0.0,0.0,0.0,0.0,0.0,0.0,0.0,0.0,0.0,0.0,0.0,0.0,0.0,0.0,0.0,0.0,0.0,0.0,0.0,0.0,0.0,0.0,0.0,0.0,0.0,0.0,0.0,0.0,0.0,0.0,0.0,0.0,0.0,0.0,0.0,0.0,0.0,0.0,0.0,0.0,0.0,0.0,0.0,0.0,0.0,0.0,0.0,0.0,0.0,0.0,0.0,0.0,0.0,0.0,0.0,0.0,0.0,0.0,0.0,0.0,0.0,0.0,0.0,0.0,0.0,0.0,0.0,0.0,0.0,0.0,0.0,0.0,0.0,0.0,0.0,0.0,0.0,0.0,0.0,0.0,0.0,0.0,0.0,0.0,0.0,0.0,0.0,0.0,0.0,0.0,0.0,0.0,0.0,0.0,0.0,0.0,0.0,0.0,0.0,0.0,0.0,0.0,0.0,0.0,0.0,0.0,0.0,0.0,0.0,0.0,0.0,0.0,0.0,0.0,0.0,0.0,0.0,0.0,0.0,0.0,0.0,0.0,0.0,0.0,0.0,0.0,0.0,0.0,0.0,0.0,0.0,0.0,0.0,0.0,0.0,0.0,0.0,0.0,0.0,0.0,0.0,0.0,0.0,0.0,0.0,0.0,0.0,0.0,0.0,0.0,0.0,0.0,0.0,0.0,0.0,0.0,0.0,0.0,0.0,0.0,0.0,0.0,2.3241,0.0,0.0,0.0,0.0,0.0,0.0,0.0,0.0,0.0,0.0,0.0,0.0,0.0,0.0,0.0,0.0,0.0,0.0,0.0,0.0,0.0,0.0,0.0,0.0,0.0,0.0,0.0,0.0,0.0,0.0,0.0,0.0,0.0,0.0,0.0,0.0,0.0,0.0,0.0,0.0,0.0,0.0,0.0,0.0,0.0,0.0,0.0,0.0,0.0,0.0,0.0,0.0,0.0,0.0,0.0,0.0,0.0,0.0,0.0,0.0,0.0,0.0,0.0,0.0,0.0,0.0,0.0,0.0,0.0,0.0,0.0,0.0,0.0,0.0,0.0,0.0,0.0,0.0,0.0,0.0,0.0,0.0,0.0,0.0,0.0,0.0,0.0,0.0,0.0,0.0,0.0,0.0,0.0,0.0,0.0,0.0,0.0,0.0,0.0,0.0,0.0,0.0,0.0,0.0,0.0,0.0,0.0,0.0,0.0,0.0,0.0,0.0,0.0,0.0,0.0,0.0,2.3712,0.0,0.0,0.0,0.0,0.0,0.0,0.0,0.0,0.0,0.0,0.0,0.0,0.0,0.0,0.0,0.0,0.0,0.0,0.0,0.0,0.0,0.0,0.0,0.0,0.0,0.0,0.0,0.0,0.0,0.0,0.0,0.0,0.0,0.0,0.0,0.0,0.0,0.0,0.0,0.0,0.0,0.0,0.0,0.0,0.0,0.0,0.0,0.0,0.0,0.0,0.0,0.0,0.0,0.0,0.0,0.0,0.0,0.0,0.0,0.0,0.0,0.0,0.0,0.0,0.0,0.0,0.0,0.0,0.0,0.0,0.0,0.0,0.0,0.0,0.0,0.0,0.0,0.0,0.0,0.0,0.0,0.0,0.0,0.0,0.0,0.0,0.0,0.0,0.0,0.0,0.0,0.0,0.0,0.0,0.0,0.0,0.0,0.0,0.0,0.0,0.0,0.0,0.0,0.0,0.0,0.0,0.0,0.0,0.0,0.0,2.9519,2.9765,3.0038,3.0141,2.7597,2.5843,2.4797,0.0,0.0,0.0,0.0,0.0,0.0,0.0,0.0,0.0,0.0,0.0,0.0,0.0,0.0,0.0,0.0,0.0,0.0,0.0,0.0,0.0,0.0,0.0,0.0,0.0,0.0,0.0,0.0,0.0,0.0,0.0,0.0,0.0,0.0,0.0,0.0,0.0,0.0,0.0,1.5534,1.6294,1.6265,1.5556,1.4766,0.0,0.0,0.0,0.0,0.0,0.0,0.0,0.0,0.0,0.0,0.0,0.0,0.0,0.0,0.0,0.0,0.0,0.0,0.0,0.0,0.0,0.0,0.0,0.0,0.0,0.0,0.0,0.0,0.0,0.0,0.0,0.0,0.0,0.0,0.0,0.0,0.0,0.0,0.0,0.0,0.0,0.0,0.0,2.0364,2.0496,0.0,0.0,0.0,0.0,0.0,0.0,0.0,0.0,0.0,0.0,0.0,0.0,0.0,0.0,2.8187,2.9009,2.9751,3.046,3.1098,3.17,3.2265,3.2042,3.2608,3.3778,3.2744,0.0,2.6336,2.5544,0.0,0.0,0.0,0.0,0.0,0.0,0.0,0.0,0.0,0.0,0.0,0.0,0.0,0.0,0.0,0.0,0.0,0.0,0.0,0.0,0.0,0.0,0.0,0.0,0.0,0.0,0.0,0.0,0.0,0.0,0.0,0.0,0.0,0.0,0.0,0.0,1.7347,1.8075,1.7582,1.8704,1.9142,1.8952,1.8308,1.7229,1.5884,1.5121,0.0,0.0,0.0,0.0,0.0,0.0,0.0,0.0,0.0,0.0,0.0,0.0,0.0,0.0,0.0,0.0,0.0,0.0,0.0,0.0,0.0,0.0,0.0,0.0,0.0,0.0,0.0,0.0,0.0,0.0,0.0,0.0,0.0,0.0,0.0,0.0,0.0,0.0,0.0,2.1454,2.1831,2.0983,2.2108,2.2819,0.0,0.0,0.0,0.0,0.0,0.0,0.0,0.0,0.0,2.7437,2.8178,2.9259,3.072,3.1708,3.2555,3.3301,3.4209,3.4772,3.507,3.5338,3.5791,3.6383,3.6079,3.432,3.1562,2.9567,2.8061,2.7046,0.0,0.0,0.0,0.0,0.0,2.9168,0.0,0.0,0.0,0.0,0.0,0.0,0.0,0.0,0.0,0.0,0.0,0.0,0.0,0.0,0.0,1.4777,0.0,0.0,0.0,0.0,0.0,0.0,0.0,0.0,0.0,0.0,0.0,0.0,2.0425,2.0735,2.0348,2.1525,2.1995,2.1883,2.1574,1.9916,1.7275,1.6189,1.5553,0.0,0.0,0.0,0.0,0.0,0.0,0.0,0.0,0.0,0.0,0.0,0.0,0.0,0.0,0.0,0.0,0.0,0.0,0.0,0.0,0.0,0.0,0.0,0.0,0.0,0.0,0.0,0.0,0.0,0.0,0.0,0.0,0.0,0.0,0.0,0.0,0.0,0.0,2.2327,2.2949,2.139,2.2835,2.3621,0.0,0.0,0.0,0.0,0.0,0.0,2.7486,2.845,2.9389,3.0396,3.1151,3.2142,3.3355,3.4238,3.512,3.6105,3.6973,3.7449,3.7635,3.821,3.8464,3.8464,3.8464,3.778,3.644,3.3485,3.153,3.0392,3.0781,3.1207,0.0,3.2115,3.2456,3.2742,0.0,0.0,0.0,0.0,0.0,0.0,0.0,0.0,0.0,0.0,0.0,0.0,0.0,0.0,1.5202,1.6204,1.5597,1.459,0.0,0.0,0.0,0.0,0.0,0.0,0.0,0.0,0.0,2.3488,2.2063,2.2344,2.4235,2.4303,2.412,2.3753,2.3736,2.2622,2.0639,1.8951,1.7609,1.6517,0.0,0.0,0.0,0.0,0.0,0.0,0.0,0.0,0.0,0.0,0.0,0.0,0.0,0.0,0.0,0.0,0.0,0.0,0.0,0.0,0.0,0.0,0.0,0.0,0.0,0.0,0.0,0.0,0.0,0.0,0.0,0.0,0.0,0.0,0.0,0.0,0.0,0.0,0.0,2.14,2.3731,0.0,0.0,0.0,0.0,2.5818,2.7151,2.8517,2.985,3.1275,3.2432,3.3152,3.3922,3.5023,3.6559,3.6615,3.7377,3.8817,3.8836,3.9242,3.9918,3.9952,3.9969,3.9969,3.9969,3.9822,3.9351,3.6388,3.471,3.4042,3.4261,3.4806,3.5457,3.5864,3.6046,3.6064,0.0,0.0,0.0,0.0,0.0,0.0,0.0,0.0,0.0,0.0,0.0,0.0,0.0,1.854,2.0021,2.0053,1.983,1.837,1.5342,0.0,0.0,0.0,0.0,0.0,0.0,0.0,1.9843,2.2819,2.276,2.3311,2.4523,2.4983,2.5139,2.4977,2.4977,2.4282,2.2863,1.9849,1.7927,1.6659,1.4568,1.3587,0.0,0.0,0.0,0.0,0.0,0.0,0.0,0.0,0.0,0.0,0.0,0.0,0.0,0.0,0.0,0.0,0.0,0.0,0.0,0.0,0.0,0.0,0.0,0.0,0.0,0.0,0.0,0.0,0.0,0.0,0.0,0.0,0.0,0.0,0.0,0.0,0.0,2.6544,2.7313,0.0,0.0,2.6977,2.7451,2.9157,3.0215,3.162,3.355,3.4624,3.552,3.6282,3.7466,3.8125,3.821,3.9614,4.0358,4.0426,4.0899,4.1255,4.1508,4.1508,4.1508,4.1474,4.1001,4.0965,4.118,3.9991,3.8795,3.775,3.8133,3.8413,3.8701,3.9191,3.9405,3.9405,0.0,0.0,0.0,0.0,0.0,0.0,0.0,0.0,0.0,0.0,0.0,1.6468,1.8645,2.1302,2.2923,2.2873,2.1787,1.9807,1.6799,0.0,0.0,0.0,0.0,0.0,0.0,1.9699,2.1312,2.3427,2.39,2.4509,2.5236,2.5744,2.6116,2.6336,2.6082,2.5692,2.5038,2.1664,1.9102,1.7035,1.4965,1.407,1.3869,0.0,0.0,0.0,0.0,0.0,0.0,0.0,0.0,0.0,0.0,0.0,0.0,0.0,0.0,0.0,0.0,0.0,0.0,0.0,0.0,0.0,0.0,0.0,0.0,0.0,0.0,0.0,0.0,0.0,0.0,0.0,0.0,0.0,0.0,0.0,2.9138,2.9713,3.0179,3.0364,3.0162,2.9713,3.0257,3.2219,3.3514,3.521,3.7368,3.8227,3.887,3.9377,4.0324,4.0595,4.0104,4.1559,4.2049,4.1576,4.2066,4.2286,4.2286,4.2286,4.2286,4.2269,4.2022,4.2221,4.2742,4.2579,4.2029,4.1335,4.1379,4.1396,4.1432,4.1782,4.1919,4.1919,0.0,0.0,0.0,0.0,0.0,0.0,0.0,0.0,0.0,0.0,1.6542,1.8015,2.1824,2.2719,2.3419,2.4349,2.1049,1.8491,1.7489,1.4405,0.0,0.0,0.0,0.0,2.2194,2.1892,2.2959,2.5609,2.5609,2.5981,2.6691,2.6708,2.7114,2.7755,2.7046,2.6949,2.7141,2.4456,2.127,1.797,1.6948,1.5745,1.4482,0.0,0.0,0.0,0.0,0.0,0.0,0.0,0.0,0.0,0.0,0.0,0.0,0.0,0.0,0.0,0.0,0.0,0.0,0.0,0.0,0.0,0.0,0.0,0.0,0.0,0.0,0.0,0.0,0.0,0.0,0.0,0.0,0.0,2.6454,2.9837,3.1882,3.0472,3.2193,3.272,3.0767,3.182,3.3294,3.4812,3.6937,3.9104,4.1118,4.1931,4.232,4.2286,4.2337,4.2337,4.2286,4.239,4.2407,4.232,4.2407,4.2407,4.2354,4.2354,4.2354,4.2407,4.3045,4.3628,4.4139,4.4007,4.4231,4.4672,4.3809,4.3497,4.3497,4.3497,4.3497,4.3497,0.0,0.0,0.0,0.0,0.0,0.0,0.0,0.0,0.0,0.0,1.7469,1.9425,2.2717,2.3732,2.445,2.5202,2.1644,1.8906,1.7883,0.0,0.0,0.0,0.0,0.0,2.2248,2.2904,2.4002,2.5609,2.5609,2.5981,2.6708,2.7249,2.7621,2.7806,2.7748,2.7545,2.7163,2.4956,2.3016,2.1129,1.8275,1.6685,1.5853,0.0,0.0,0.0,0.0,0.0,0.0,0.0,0.0,0.0,0.0,0.0,0.0,0.0,0.0,0.0,0.0,0.0,0.0,0.0,0.0,0.0,0.0,0.0,0.0,0.0,0.0,0.0,0.0,0.0,0.0,0.0,0.0,3.1451,3.1128,3.2914,3.4558,3.5296,3.5202,3.5016,3.493,3.5352,3.6222,3.7671,3.9348,4.0812,4.1912,4.2709,4.2861,4.2303,4.3369,4.342,4.2303,4.3836,4.4127,4.3115,4.4127,4.4401,4.3944,4.3944,4.3944,4.3965,4.4062,4.4397,4.4873,4.4797,4.5106,4.5424,4.403,4.3497,4.3497,4.3497,4.3497,4.3497,0.0,0.0,0.0,0.0,0.0,0.0,0.0,0.0,0.0,0.0,1.8581,2.0443,2.34,2.4296,2.4598,2.4423,2.1411,1.893,1.7543,0.0,0.0,0.0,0.0,2.1627,2.319,2.4218,2.5202,2.6065,2.6243,2.6715,2.7483,2.8077,2.8577,2.8989,2.8552,2.8127,2.7583,2.5549,2.4053,2.2771,2.0399,1.897,1.8103,1.6773,1.6566,1.7002,1.746,1.8478,1.9641,2.0004,0.0,0.0,0.0,0.0,0.0,0.0,0.0,0.0,0.0,0.0,0.0,0.0,0.0,0.0,0.0,0.0,0.0,0.0,0.0,0.0,0.0,0.0,0.0,0.0,3.2494,3.4534,3.5206,3.5971,3.6744,3.7452,3.7547,3.7568,3.755,3.8213,3.9092,4.0258,4.1741,4.2965,4.369,4.4434,4.4637,4.4198,4.5329,4.5511,4.4605,4.5788,4.5857,4.4776,4.5527,4.5407,4.4626,4.4852,4.4998,0.0,4.5179,4.557,4.6114,4.5974,4.5897,0.0,0.0,0.0,0.0,0.0,4.3497,4.3497,0.0,0.0,0.0,0.0,0.0,0.0,0.0,0.0,0.0,0.0,0.0,2.101,2.3791,2.433,2.4037,2.2908,2.0662,1.8568,0.0,0.0,0.0,2.0015,2.1285,2.2779,2.459,2.5644,2.6419,2.691,2.7252,2.7886,2.8697,2.917,2.9836,3.0647,2.9476,2.8813,2.8387,2.6323,2.4787,2.3728,2.2923,2.182,2.0555,1.9032,1.8744,1.9054,1.8636,1.8976,1.9754,2.07,0.0,0.0,0.0,0.0,0.0,0.0,0.0,0.0,0.0,0.0,0.0,0.0,0.0,0.0,0.0,0.0,0.0,0.0,0.0,0.0,0.0,0.0,0.0,0.0,3.5011,3.6947,3.8556,3.8825,3.8632,3.8124,3.932,3.9919,3.9135,4.0442,4.1601,4.2385,4.382,4.5043,4.5788,0.0,0.0,0.0,0.0,4.7904,4.7925,4.7914,4.7576,4.6813,4.66,4.592,4.472,4.5284,4.5511,4.5563,4.6192,4.6847,4.7373,4.7268,4.6764,4.5938,4.4947,4.4562,4.4488,4.3754,4.3497,0.0,0.0,0.0,0.0,0.0,0.0,0.0,0.0,0.0,0.0,1.8697,1.9514,2.0732,2.3061,2.2897,2.2658,2.277,1.9935,1.771,0.0,0.0,1.8846,2.0887,2.2884,2.4394,2.5365,2.6163,2.7093,2.8157,2.8221,2.8858,2.9973,3.0637,3.0856,3.0716,3.061,3.0375,2.9848,2.7712,2.6713,2.6317,2.4919,2.2862,2.068,2.0366,1.9962,1.975,2.0678,2.1771,2.2804,2.2981,2.3788,2.4652,2.391,0.0,0.0,0.0,0.0,0.0,0.0,0.0,0.0,0.0,0.0,0.0,0.0,0.0,0.0,0.0,0.0,0.0,0.0,0.0,0.0,3.4352,3.6558,3.8665,4.0424,4.0679,4.0407,3.9764,4.0446,4.0656,3.9842,4.1177,4.2402,4.3145,4.4607,4.5805,4.6549,4.7293,0.0,4.7596,4.8297,4.8678,4.8685,4.9173,4.878,4.7488,0.0,0.0,4.532,4.5459,4.5511,4.5545,4.6728,4.7281,4.7409,4.7871,4.7609,4.6673,4.4544,4.3718,4.3699,4.3552,4.3497,4.3497,0.0,0.0,0.0,0.0,0.0,0.0,0.0,0.0,0.0,0.0,1.8533,1.9219,2.0871,2.0625,2.0195,1.978,1.8217,0.0,0.0,1.9302,2.0914,2.3294,2.4448,2.5575,2.6691,2.7282,2.8094,2.9067,2.9479,3.022,3.1213,3.153,3.1852,3.2144,3.1348,3.0784,3.0268,2.8137,2.6969,2.6546,2.5294,2.3991,2.2686,2.2121,2.1975,2.2176,2.2505,2.3532,2.469,2.502,2.5576,2.6104,2.6176,2.5689,2.486,0.0,0.0,0.0,0.0,0.0,0.0,0.0,0.0,0.0,0.0,0.0,0.0,0.0,0.0,2.9047,0.0,0.0,3.5488,3.7033,3.8763,4.0302,4.1577,4.2066,4.1883,4.0806,4.1643,4.2019,4.12,4.2883,4.414,4.4524,4.5967,4.6972,4.7344,4.8362,4.8942,4.8907,4.9925,5.051,5.0498,5.076,5.0028,4.8316,4.8211,4.7209,4.5511,4.5833,4.6161,4.6495,4.7106,4.7572,4.786,4.7732,4.748,4.6966,4.5333,4.4452,4.4103,4.4103,4.3846,4.3497,0.0,0.0,0.0,0.0,0.0,0.0,0.0,0.0,0.0,0.0,1.7229,1.7538,1.8499,1.8496,1.7907,0.0,0.0,0.0,0.0,2.1034,2.2813,2.5469,2.5878,2.659,2.7769,2.8389,2.9117,2.9931,3.091,3.1735,3.2436,3.2466,3.2885,3.3547,3.19,3.1144,3.0876,2.8641,2.7435,2.692,2.5767,2.53,2.5268,2.424,2.4103,2.4509,2.4228,2.4671,2.551,2.6332,2.6703,2.6995,2.8144,2.8095,2.7201,2.5292,2.4554,0.0,0.0,0.0,0.0,0.0,0.0,0.0,0.0,0.0,2.6599,2.8865,3.0419,3.208,3.4342,3.6146,3.7819,3.9445,4.0525,4.1508,4.2388,4.3031,4.3014,4.1969,4.292,4.3452,4.2966,4.4598,4.5821,4.6126,4.7242,4.803,4.8269,4.9395,5.0129,5.039,5.1494,5.2159,5.2317,5.2279,5.1242,4.9287,4.8965,4.7775,4.5883,4.6383,4.691,4.7385,4.7512,4.7856,4.8251,4.7609,4.7352,4.7278,4.6617,4.5883,4.5149,4.4837,4.4287,4.3699,0.0,0.0,0.0,0.0,0.0,0.0,0.0,0.0,0.0,0.0,0.0,0.0,0.0,0.0,0.0,0.0,0.0,0.0,2.0213,2.2082,2.3896,2.552,2.6843,2.7637,2.7803,2.8887,3.0031,3.1207,3.2433,3.3219,3.3625,3.3978,3.3956,3.3564,3.2379,3.2352,3.3013,3.0542,2.9783,3.009,2.7924,2.7161,2.7275,2.6698,2.588,2.5143,2.5879,2.55,2.4817,2.6135,2.6976,2.7701,2.8891,2.914,2.8533,2.6185,0.0,2.3344,2.0806,2.072,2.1938,2.4577,2.5304,2.6234,0.0,0.0,3.169,3.3634,3.4747,3.5651,3.6606,3.7633,3.8722,3.9863,4.0697,4.1694,4.3098,4.3369,4.3584,4.412,4.4401,4.4705,4.525,4.5544,4.6244,4.7581,4.7834,4.8456,4.9723,4.9924,5.0537,5.1856,5.2,5.2427,5.306,5.3072,5.2205,5.0602,4.9978,4.8802,4.7194,4.7237,4.7342,4.7428,4.7977,4.8229,4.8306,4.8214,4.8177,4.8159,4.8067,4.7553,4.6673,4.5241,4.4654,4.447,0.0,0.0,0.0,0.0,0.0,0.0,0.0,0.0,0.0,0.0,0.0,0.0,0.0,0.0,0.0,0.0,0.0,0.0,2.022,2.2643,2.4881,2.6809,2.7486,2.8319,2.9453,3.026,3.1243,3.245,3.2973,3.3302,3.3437,3.3547,3.3474,3.3235,3.2583,3.2729,3.3349,3.0864,3.0508,3.142,2.901,2.8435,2.8937,2.8063,2.6937,2.5786,2.5887,2.556,0.0,0.0,2.6588,2.7667,2.8801,2.9116,2.8716,2.6792,2.5586,0.0,2.2508,2.2852,0.0,0.0,2.7249,2.8965,3.174,3.2882,3.3892,3.5863,3.7248,3.8213,3.8559,3.971,4.0758,0.0,4.1999,4.2878,4.3944,4.3707,4.3538,4.3859,4.391,4.4215,4.4976,4.5838,4.6599,4.7208,4.8421,4.9395,4.9959,5.0752,5.1476,5.2065,5.2509,5.2875,5.3206,5.2769,5.1792,5.0333,5.0062,4.9329,4.824,4.8623,4.901,4.9378,4.9658,4.9756,4.9719,4.9205,4.9003,4.8948,4.8489,4.8104,4.7664,4.6526,4.581,4.5351,0.0,0.0,0.0,0.0,0.0,0.0,0.0,0.0,0.0,0.0,0.0,0.0,0.0,0.0,0.0,0.0,0.0,0.0,0.0,2.2542,2.4958,2.7114,2.757,2.8595,3.0369,3.1243,3.2143,3.3014,3.337,3.3448,3.3306,3.3336,3.3333,3.3304,3.295,3.3145,3.3655,3.1579,3.1401,3.2227,3.0037,2.9372,2.9603,2.8467,2.6985,2.551,2.5096,2.4776,0.0,0.0,2.524,2.6711,2.78,2.8355,2.8399,2.708,2.5879,2.4847,2.4188,0.0,0.0,2.7841,2.9786,3.1868,3.4019,3.5169,3.6272,3.7945,3.9171,3.9954,4.0047,4.0853,0.0,4.224,4.276,4.3453,4.4451,4.391,4.342,4.342,4.3234,4.342,4.4181,4.5788,4.6971,4.7374,4.8982,5.0185,5.0554,5.1544,5.2206,5.2399,5.2937,5.3103,5.2893,5.2381,5.1364,4.9953,5.0137,4.9826,4.9061,4.9767,5.0338,5.0802,5.0802,5.0802,5.0747,5.0123,4.9719,4.9462,4.8893,4.8508,4.8233,4.7664,4.6929,4.6195,0.0,0.0,0.0,0.0,0.0,0.0,0.0,0.0,0.0,0.0,0.0,0.0,0.0,0.0,0.0,0.0,0.0,0.0,0.0,2.1534,2.3624,2.5575,2.7063,2.8391,2.9606,3.1507,3.2482,3.2517,3.3755,3.41,3.3598,3.3995,3.414,3.4129,3.3664,3.3817,3.4395,3.3422,3.3025,3.2915,3.1369,3.0107,2.8997,2.781,2.5806,2.3671,2.3656,0.0,0.0,0.0,2.2676,2.4576,2.5562,2.6776,0.0,2.6911,2.5152,0.0,0.0,0.0,2.7537,3.1207,3.3254,3.4945,3.7212,3.8728,3.9829,4.0654,4.0845,4.0834,4.0868,4.0497,4.0646,4.2049,4.2303,4.2844,4.4367,4.391,4.342,4.342,4.2777,4.2625,0.0,4.5483,4.7391,4.8747,4.9582,5.0608,5.1952,5.2065,5.2445,5.3146,5.3206,5.2875,5.2159,5.2112,5.1364,4.9902,5.0576,5.0443,4.9704,5.0422,5.0802,5.0802,5.0802,5.0802,5.0802,5.0765,5.0288,4.9572,4.9554,4.904,4.8306,4.8269,4.7755,4.6966,0.0,0.0,0.0,0.0,0.0,0.0,0.0,0.0,0.0,0.0,0.0,0.0,0.0,0.0,0.0,0.0,0.0,0.0,0.0,2.0336,2.2422,2.4069,2.5558,2.7128,2.8826,2.951,3.0243,3.1058,3.1147,3.1386,3.169,3.2053,3.2244,3.2348,3.2689,3.2958,3.311,3.2192,3.2121,3.2456,3.0029,2.9188,2.9053,2.5575,2.3718,2.2697,0.0,0.0,0.0,0.0,0.0,0.0,2.3847,0.0,0.0,2.4577,0.0,0.0,0.0,0.0,3.1055,3.3812,3.5639,3.7288,3.9397,4.0227,4.0608,4.0851,4.0106,3.934,3.8995,3.9151,3.9681,4.0663,4.2066,4.3217,4.3741,4.3589,4.3064,4.2066,4.2151,0.0,0.0,0.0,0.0,4.8058,4.9327,5.0588,5.2029,5.2554,5.2937,5.3206,5.3206,5.2831,5.2112,5.1643,5.1218,5.0696,5.1364,5.1792,5.2028,5.2297,5.2399,5.2399,5.2399,5.2399,5.2362,5.1811,5.1426,5.1132,5.06,5.0215,4.9958,4.9958,4.9444,4.8636,0.0,0.0,0.0,0.0,0.0,0.0,0.0,0.0,0.0,0.0,0.0,0.0,0.0,0.0,0.0,0.0,0.0,0.0,0.0,0.0,2.0238,2.1718,2.2866,2.4305,2.6086,2.6365,2.7035,2.8088,2.8054,2.8399,2.9057,2.9546,2.9872,3.007,3.0782,3.1083,3.1063,3.0485,3.0278,3.0212,2.8042,2.7019,2.6422,2.3191,2.1594,0.0,0.0,0.0,0.0,0.0,0.0,0.0,0.0,0.0,0.0,0.0,0.0,0.0,0.0,3.1613,3.4015,3.6265,3.777,3.9001,4.0323,4.0607,4.0539,4.0281,3.925,3.8231,3.7628,3.7652,3.8125,3.914,4.051,4.1918,4.32,4.3132,4.2808,4.2416,4.2774,0.0,0.0,0.0,0.0,4.8015,4.9554,5.0994,5.2427,5.2937,5.3206,5.3206,5.3206,5.2831,5.2112,5.1643,5.1444,5.1444,5.1904,5.249,5.3206,5.3206,5.3206,5.3206,5.3206,5.3206,5.317,5.2637,5.2252,5.194,5.1426,5.1041,5.0802,5.0802,5.0472,4.9903,0.0,0.0,0.0,0.0,0.0,0.0,0.0,0.0,0.0,0.0,0.0,0.0,0.0,0.0,0.0,0.0,0.0,0.0,0.0,0.0,0.0,1.8633,1.9244,2.023,2.1616,2.2331,2.31,2.3894,2.4582,2.5274,2.5903,2.6617,2.7113,2.7423,2.8077,2.8345,2.8338,2.8338,2.759,2.6333,2.563,2.3864,2.1599,2.0835,0.0,0.0,0.0,0.0,0.0,0.0,0.0,0.0,0.0,0.0,0.0,0.0,0.0,2.9854,3.278,3.4658,3.6315,3.8497,3.9563,4.007,4.007,4.002,3.9766,3.9089,3.8261,3.7466,0.0,0.0,3.6113,3.7652,3.8041,3.935,4.2797,4.2805,4.2909,0.0,0.0,0.0,0.0,0.0,0.0,4.8781,0.0,5.1687,5.3103,5.3206,5.3206,5.3206,5.3206,5.2831,5.2112,5.2112,5.2112,5.2112,5.2159,5.2536,5.3206,5.3206,5.3206,5.3206,5.3206,5.3206,5.3206,5.3206,5.2747,5.205,5.205,5.1591,5.093,5.093,5.0912,5.0747,0.0,0.0,0.0,0.0,0.0,0.0,0.0,0.0,0.0,0.0,0.0,0.0,0.0,0.0,0.0,0.0,0.0,0.0,0.0,0.0,0.0,0.0,0.0,0.0,0.0,0.0,0.0,0.0,2.1225,2.1849,2.2907,2.3089,2.3691,2.4614,2.4786,2.4875,2.4866,2.4866,2.4403,2.358,0.0,2.1687,2.1109,0.0,0.0,0.0,0.0,0.0,0.0,0.0,0.0,0.0,0.0,0.0,2.6505,0.0,0.0,3.2814,3.5267,3.7009,3.8396,3.9529,3.9935,4.007,4.007,3.9242,3.8413,3.8227,3.6248,3.4506,0.0,0.0,0.0,3.7652,3.9749,0.0,4.3197,4.4647,0.0,0.0,0.0,4.6118,4.6184,4.6809,0.0,0.0,4.9984,5.104,5.3091,5.3206,5.3206,5.3206,5.3206,5.2831,5.2112,5.2112,5.2112,5.2112,5.2662,5.2999,5.3206,5.3206,5.3206,5.3206,5.3206,5.3206,5.3206,5.3206,5.3096,5.2894,5.2894,5.2784,5.2601,5.2601,5.2215,5.1665,0.0,0.0,0.0,0.0,0.0,0.0,0.0,0.0,0.0,0.0,0.0,0.0,0.0,0.0,0.0,0.0,0.0,0.0,0.0,0.0,0.0,0.0,0.0,0.0,0.0,0.0,0.0,0.0,0.0,0.0,1.9386,2.0016,2.0734,2.1449,2.1449,2.1592,2.1859,2.1575,0.0,0.0,0.0,0.0,0.0,0.0,0.0,0.0,0.0,0.0,0.0,0.0,0.0,2.4171,2.5946,2.7469,2.911,3.1376,0.0,3.5385,3.7635,3.9089,4.0054,4.0476,4.0578,4.0223,3.8937,3.8007,3.7043,3.5707,3.41,0.0,0.0,0.0,0.0,0.0,0.0,0.0,4.3506,4.54,4.6643,0.0,4.7586,0.0,4.7715,4.8329,4.9205,0.0,5.0701,5.1502,5.3109,5.3206,5.3206,5.3206,5.3206,5.2999,5.2599,5.2599,5.2599,5.2599,5.2999,5.3206,5.3206,5.3206,5.3206,5.3206,0.0,5.3206,5.3206,5.3206,5.3206,5.3206,5.3206,5.3206,5.3206,5.3206,5.2913,5.2472,0.0,0.0,0.0,0.0,0.0,0.0,0.0,0.0,0.0,0.0,0.0,0.0,0.0,0.0,0.0,0.0,0.0,0.0,0.0,0.0,0.0,0.0,0.0,0.0,0.0,0.0,0.0,0.0,0.0,0.0,0.0,0.0,0.0,0.0,0.0,0.0,0.0,0.0,0.0,0.0,0.0,0.0,0.0,0.0,0.0,0.0,0.0,0.0,0.0,0.0,2.5031,2.5624,2.8537,3.0514,3.2188,3.432,3.6028,3.7669,3.9715,4.0798,4.1322,4.1221,4.1136,4.0307,3.7432,3.6552,3.5537,3.2713,0.0,3.1681,3.114,0.0,3.3735,3.4856,0.0,4.0359,4.4201,4.5875,4.747,4.9595,4.9964,4.9837,4.9231,4.9732,5.0378,5.1187,5.1856,5.2554,5.3164,5.3206,5.3206,5.3206,5.3206,5.3206,5.3206,5.3206,5.3206,5.3206,5.3206,5.3248,5.3272,5.3272,5.3272,5.3272,0.0,0.0,5.3206,5.3206,5.3206,5.3206,5.3206,5.3206,5.3206,5.3206,5.3206,5.3115,0.0,0.0,0.0,0.0,0.0,0.0,0.0,0.0,0.0,0.0,0.0,0.0,0.0,0.0,0.0,0.0,0.0,0.0,0.0,0.0,0.0,0.0,0.0,0.0,0.0,0.0,0.0,0.0,0.0,0.0,0.0,0.0,0.0,0.0,0.0,0.0,0.0,0.0,0.0,0.0,0.0,0.0,0.0,0.0,0.0,0.0,0.0,0.0,0.0,0.0,2.7672,2.8619,3.1009,3.3152,3.5165,3.6823,3.8345,3.9732,4.0747,4.1542,4.1965,4.1356,4.0747,3.9681,3.7313,3.5334,0.0,0.0,0.0,2.9702,3.0209,3.1812,0.0,3.7525,0.0,0.0,0.0,0.0,4.8632,0.0,0.0,0.0,0.0,0.0,0.0,0.0,0.0,0.0,5.3206,5.3206,5.3206,5.3206,5.3206,5.3206,5.3206,5.3206,5.3206,5.3206,5.3206,5.3381,5.3683,5.3683,5.3683,5.3683,0.0,0.0,5.3206,5.3206,5.3206,5.3206,5.3206,5.3206,5.3206,5.3206,5.3206,5.3188,0.0,0.0,0.0,0.0,0.0,0.0,0.0,0.0,0.0,0.0,0.0,0.0,0.0,0.0,0.0,0.0,0.0,0.0,0.0,0.0,0.0,0.0,0.0,0.0,0.0,0.0,0.0,0.0,0.0,0.0,0.0,0.0,0.0,0.0,0.0,0.0,0.0,0.0,0.0,0.0,0.0,0.0,0.0,0.0,0.0,0.0,0.0,0.0,0.0,0.0,2.796,3.0159,3.3558,3.5622,3.7094,3.8599,3.9817,4.0832,4.1559,4.2303,4.2709,4.1965,4.0933,3.9208,3.5808,0.0,0.0,0.0,0.0,2.8602,2.9381,0.0,0.0,0.0,0.0,0.0,0.0,0.0,0.0,0.0,0.0,0.0,0.0,0.0,0.0,0.0,0.0,0.0,5.3206,5.3206,5.3206,5.3206,5.3206,5.3206,5.3206,5.3206,5.3206,5.3206,5.3206,5.3422,5.3814,5.3814,5.3814,5.3814,0.0,0.0,5.3206,5.3206,5.3206,5.3206,5.3206,5.3206,5.3206,5.3206,5.3206,5.3206,0.0,0.0,0.0,0.0,0.0,0.0,0.0,0.0,0.0,0.0,0.0,0.0,0.0,0.0,0.0,0.0,0.0,0.0,0.0,0.0,0.0,0.0,0.0,0.0,0.0,0.0,0.0,0.0,0.0,0.0,0.0,0.0,0.0,0.0,0.0,0.0,0.0,0.0,0.0,0.0,0.0,0.0,0.0,0.0,0.0,0.0,0.0,0.0,0.0,0.0,2.7182,2.9871,3.4049,3.6518,3.8108,3.9089,4.0358,4.1559,4.2134,4.2963,4.3453,4.2523,4.1052,3.8717,3.4387,3.2138,0.0,0.0,2.7165,2.7893,2.8932,0.0,0.0,0.0,0.0,0.0,0.0,0.0,0.0,0.0,0.0,0.0,0.0,0.0,0.0,0.0,0.0,0.0,0.0,5.3206,5.3206,5.3206,5.3206,5.3206,5.3206,5.3206,5.3206,5.3206,5.3314,5.3545,5.3941,5.403,5.403,5.3941,0.0,0.0,0.0,5.3206,5.3206,5.3206,5.3206,5.3206,5.3206,5.3206,5.3206,5.3206,0.0,0.0,0.0,0.0,0.0,0.0,0.0,0.0,0.0,0.0,0.0,0.0,0.0,0.0,0.0,0.0,0.0,0.0,0.0,0.0,0.0,0.0,0.0,0.0,0.0,0.0,0.0,0.0,0.0,0.0,0.0,0.0,0.0,0.0,0.0,0.0,0.0,0.0,0.0,0.0,0.0,0.0,0.0,0.0,0.0,0.0,0.0,0.0,0.0,0.0,0.0,2.6573,2.9736,3.4032,3.7804,3.7246,0.0,0.0,4.2269,4.3352,4.4113,4.2658,4.0679,3.8091,3.4269,0.0,0.0,2.7182,2.6742,2.7352,2.9195,3.0091,0.0,0.0,0.0,3.98,0.0,0.0,0.0,0.0,0.0,0.0,0.0,0.0,0.0,0.0,0.0,0.0,0.0,5.3206,5.3206,5.3206,5.3206,5.3206,5.3206,5.3206,5.3206,5.3206,5.3565,5.3996,5.4471,5.4819,5.479,5.4439,0.0,0.0,0.0,5.3206,5.3206,5.3206,5.3206,5.3206,5.3206,5.3206,5.3206,5.3206,0.0,0.0,0.0,0.0,0.0,0.0,0.0,0.0,0.0,0.0,0.0,0.0,0.0,0.0,0.0,0.0,0.0,0.0,0.0,0.0,0.0,0.0,0.0,0.0,0.0,0.0,0.0,0.0,0.0,0.0,0.0,0.0,0.0,0.0,0.0,0.0,0.0,0.0,0.0,0.0,0.0,0.0,0.0,0.0,0.0,0.0,0.0,0.0,0.0,0.0,0.0,0.0,2.5828,2.9364,0.0,0.0,3.8091,4.0595,4.1931,4.342,4.4215,4.2675,3.9952,3.6907,3.4049,0.0,2.8349,2.6979,2.6691,2.73,2.9245,2.998,3.1689,0.0,0.0,0.0,0.0,0.0,0.0,0.0,0.0,0.0,0.0,0.0,0.0,0.0,0.0,0.0,0.0,5.3665,5.3702,5.3225,5.3206,5.3206,5.3206,5.3206,5.3336,5.3565,5.372,5.4168,5.4867,5.5034,5.4895,5.4503,0.0,0.0,0.0,5.3408,5.35,5.3867,5.339,5.3206,5.3206,5.3206,5.3206,5.3206,0.0,0.0,0.0,0.0,0.0,0.0,0.0,0.0,0.0,0.0,0.0,0.0,0.0,0.0,0.0,0.0,0.0,0.0,0.0,0.0,0.0,0.0,0.0,0.0,0.0,0.0,0.0,0.0,0.0,0.0,0.0,0.0,0.0,0.0,0.0,0.0,0.0,0.0,0.0,0.0,0.0,0.0,0.0,0.0,0.0,0.0,0.0,0.0,0.0,0.0,0.0,0.0,0.0,0.0,0.0,0.0,3.6214,3.9106,4.1102,4.2912,4.3927,4.2625,3.9512,3.618,0.0,0.0,2.757,2.6843,2.6691,2.73,2.9245,2.998,3.1444,3.5024,0.0,3.7387,0.0,0.0,0.0,0.0,0.0,0.0,0.0,0.0,0.0,0.0,0.0,0.0,0.0,5.4216,5.4032,5.3243,5.3445,5.3555,5.3555,5.3555,5.3732,5.4168,5.4054,5.4401,5.5088,5.5212,5.5007,0.0,0.0,0.0,0.0,5.3445,5.3537,5.3995,5.3427,5.3206,5.3206,5.3206,5.3206,5.3206,0.0,0.0,0.0,0.0,0.0,0.0,0.0,0.0,0.0,0.0,0.0,0.0,0.0,0.0,0.0,0.0,0.0,0.0,0.0,0.0,0.0,0.0,0.0,0.0,0.0,0.0,0.0,0.0,0.0,0.0,0.0,0.0,0.0,0.0,0.0,0.0,0.0,0.0,0.0,0.0,0.0,0.0,0.0,0.0,0.0,0.0,0.0,0.0,0.0,0.0,0.0,0.0,0.0,0.0,0.0,0.0,3.3846,3.8244,3.9732,4.1745,4.325,4.2489,3.9512,3.618,0.0,0.0,2.757,2.6843,2.6691,2.73,2.9245,2.998,3.1444,3.5024,3.5994,0.0,0.0,0.0,0.0,0.0,0.0,0.0,0.0,0.0,0.0,0.0,0.0,0.0,0.0,0.0,5.4032,5.3243,5.3977,5.4399,5.4399,5.4399,5.4603,5.4988,5.4649,5.472,5.5115,5.5512,0.0,0.0,0.0,0.0,0.0,5.3206,5.3206,5.3225,5.3206,5.3206,5.3206,5.3206,5.3206,5.3206,0.0,0.0,0.0,0.0,0.0,0.0,0.0,0.0,0.0,0.0,0.0,0.0,0.0,0.0,0.0,0.0,0.0,0.0,0.0,0.0,0.0,0.0,0.0,0.0,0.0,0.0,0.0,0.0,0.0,0.0,0.0,0.0,0.0,0.0,0.0,0.0,0.0,0.0,0.0,0.0,0.0,0.0,0.0,0.0,0.0,0.0,0.0,0.0,0.0,0.0,0.0,0.0,0.0,0.0,0.0,0.0,0.0,0.0,3.574,3.7922,3.9225,3.7415,3.5318,3.3254,3.1546,0.0,2.6979,2.6742,2.6691,2.73,2.9245,2.9721,3.1175,3.5208,0.0,0.0,0.0,0.0,0.0,0.0,0.0,0.0,0.0,0.0,0.0,0.0,0.0,0.0,0.0,0.0,5.4289,5.4032,5.4271,5.4399,5.4399,5.495,5.5303,5.5476,5.5381,5.5398,5.5512,5.564,0.0,0.0,0.0,0.0,0.0,5.3557,5.3537,5.3977,5.3427,5.3206,5.3206,5.3206,5.3206,5.3206,0.0,0.0,0.0,0.0,0.0,0.0,0.0,0.0,0.0,0.0,0.0,0.0,0.0,0.0,0.0,0.0,0.0,0.0,0.0,0.0,0.0,0.0,0.0,0.0,0.0,0.0,0.0,0.0,0.0,0.0,0.0,0.0,0.0,0.0,0.0,0.0,0.0,0.0,0.0,0.0,0.0,0.0,0.0,0.0,0.0,0.0,0.0,0.0,0.0,0.0,0.0,0.0,0.0,0.0,0.0,0.0,0.0,0.0,0.0,3.523,3.6282,3.4844,3.3169,0.0,0.0,0.0,2.6691,2.6691,2.6911,2.7589,2.9094,2.973,3.1185,3.4738,0.0,0.0,0.0,0.0,0.0,0.0,0.0,0.0,0.0,0.0,0.0,0.0,0.0,0.0,0.0,0.0,5.4546,5.484,5.484,5.484,5.484,5.5202,5.5637,5.6149,5.5668,5.5557,5.5703,0.0,0.0,0.0,0.0,0.0,0.0,5.3748,5.3613,5.3885,5.3543,5.3422,5.3462,5.3623,5.3399,5.2961,0.0,0.0,0.0,0.0,0.0,0.0,0.0,0.0,0.0,0.0,0.0,0.0,0.0,0.0,0.0,0.0,0.0,0.0,0.0,0.0,0.0,0.0,0.0,0.0,0.0,0.0,0.0,0.0,0.0,0.0,0.0,0.0,0.0,0.0,0.0,0.0,0.0,0.0,0.0,0.0,0.0,0.0,0.0,0.0,0.0,0.0,0.0,0.0,0.0,0.0,0.0,0.0,0.0,0.0,0.0,0.0,0.0,0.0,0.0,0.0,0.0,0.0,0.0,0.0,0.0,0.0,0.0,2.6691,2.73,2.8078,2.8907,3.002,3.1566,3.3938,0.0,0.0,0.0,0.0,0.0,0.0,0.0,0.0,0.0,0.0,0.0,0.0,0.0,0.0,0.0,0.0,0.0,5.5574,5.5563,5.557,5.557,5.5291,5.5734,5.6842,5.5769,5.5421,5.5703,0.0,0.0,0.0,0.0,0.0,0.0,5.3869,5.3643,5.3336,5.3683,5.3851,5.3905,5.4322,5.3733,5.2695,0.0,0.0,0.0,0.0,0.0,0.0,0.0,0.0,0.0,0.0,0.0,0.0,0.0,0.0,0.0,0.0,0.0,0.0,0.0,0.0,0.0,0.0,0.0,0.0,0.0,0.0,0.0,0.0,0.0,0.0,0.0,0.0,0.0,0.0,0.0,0.0,0.0,0.0,0.0,0.0,0.0,0.0,0.0,0.0,0.0,0.0,0.0,0.0,0.0,0.0,0.0,0.0,0.0,0.0,0.0,0.0,2.4933,0.0,0.0,0.0,0.0,0.0,0.0,0.0,0.0,0.0,0.0,0.0,0.0,2.823,2.96,3.081,3.2426,0.0,0.0,0.0,0.0,0.0,0.0,0.0,0.0,0.0,0.0,0.0,0.0,0.0,0.0,0.0,0.0,0.0,0.0,5.5574,5.5318,5.5148,5.5148,5.6249,5.6684,5.6444,5.6844,5.6544,5.5722,0.0,0.0,0.0,0.0,0.0,5.4771,5.4452,5.4274,5.4206,5.4307,5.4322,5.4355,5.4471,5.409,5.3423,0.0,0.0,0.0,0.0,0.0,0.0,0.0,0.0,0.0,0.0,0.0,0.0,0.0,0.0,0.0,0.0,0.0,0.0,0.0,0.0,0.0,0.0,0.0,0.0,0.0,0.0,0.0,0.0,0.0,0.0,0.0,0.0,0.0,0.0,0.0,0.0,0.0,0.0,0.0,0.0,0.0,0.0,0.0,0.0,0.0,0.0,2.231,0.0,0.0,2.266,2.3274,2.3943,0.0,0.0,0.0,0.0,2.4843,0.0,0.0,0.0,0.0,0.0,0.0,0.0,0.0,0.0,0.0,0.0,0.0,2.8884,2.9926,3.1206,0.0,0.0,0.0,0.0,0.0,0.0,0.0,0.0,0.0,0.0,0.0,0.0,0.0,0.0,0.0,0.0,0.0,0.0,0.0,0.0,5.5317,5.5025,5.5025,5.5876,5.6311,5.63,5.6575,5.6391,5.5722,0.0,0.0,0.0,0.0,0.0,5.5088,5.4867,5.4689,5.4535,5.4701,5.4779,5.4809,5.4979,5.4543,5.3704,0.0,0.0,0.0,0.0,0.0,0.0,0.0,0.0,0.0,0.0,0.0,0.0,0.0,0.0,0.0,0.0,0.0,0.0,0.0,0.0,0.0,0.0,0.0,0.0,0.0,0.0,0.0,0.0,0.0,0.0,0.0,0.0,0.0,0.0,0.0,0.0,0.0,0.0,0.0,0.0,0.0,0.0,0.0,0.0,0.0,0.0,0.0,0.0,0.0,2.2772,2.3631,2.4617,2.3991,0.0,0.0,0.0,0.0,0.0,0.0,0.0,0.0,0.0,0.0,0.0,0.0,0.0,0.0,0.0,0.0,0.0,0.0,0.0,0.0,0.0,0.0,0.0,0.0,0.0,0.0,0.0,0.0,0.0,0.0,0.0,0.0,0.0,0.0,0.0,0.0,0.0,0.0,0.0,5.5529,5.5155,5.521,5.5242,5.5668,5.6408,5.6049,5.5895,5.5895,5.5895,0.0,0.0,0.0,0.0,5.5186,5.5186,5.4979,5.472,5.5061,5.5186,5.5237,5.5577,5.5006,5.388,0.0,0.0,0.0,0.0,0.0,0.0,0.0,0.0,0.0,0.0,0.0,0.0,0.0,0.0,0.0,0.0,0.0,0.0,0.0,0.0,0.0,0.0,0.0,0.0,0.0,0.0,0.0,0.0,0.0,0.0,0.0,0.0,0.0,0.0,0.0,0.0,0.0,0.0,0.0,0.0,0.0,0.0,0.0,0.0,0.0,0.0,0.0,0.0,0.0,2.3021,2.3463,2.3898,2.4072,0.0,0.0,0.0,0.0,0.0,2.497,2.6964,2.8163,2.6251,2.6843,0.0,0.0,0.0,0.0,0.0,0.0,0.0,0.0,0.0,0.0,0.0,0.0,0.0,0.0,0.0,0.0,0.0,0.0,0.0,0.0,0.0,0.0,0.0,0.0,0.0,0.0,0.0,0.0,0.0,0.0,5.5775,5.6178,5.6158,5.6365,5.6886,5.6816,5.6799,5.6799,5.6799,5.6395,0.0,0.0,5.5662,5.5599,5.5599,5.5577,5.5512,5.5577,5.5599,5.5618,5.5662,5.537,5.4588,0.0,0.0,0.0,0.0,0.0,0.0,0.0,0.0,0.0,0.0,0.0,0.0,0.0,0.0,0.0,0.0,0.0,0.0,0.0,0.0,0.0,0.0,0.0,0.0,0.0,0.0,0.0,0.0,0.0,0.0,0.0,0.0,0.0,0.0,0.0,0.0,0.0,0.0,0.0,0.0,0.0,0.0,0.0,0.0,0.0,0.0,0.0,0.0,0.0,0.0,2.4123,2.5126,2.4426,0.0,0.0,0.0,0.0,0.0,2.5199,2.6895,2.8112,2.7063,0.0,3.0837,2.9709,0.0,0.0,0.0,0.0,0.0,0.0,0.0,0.0,0.0,0.0,0.0,0.0,0.0,0.0,0.0,0.0,0.0,0.0,0.0,0.0,0.0,0.0,0.0,0.0,0.0,0.0,0.0,0.0,0.0,5.6707,5.6228,5.6318,5.6973,5.6511,5.6299,5.6299,5.6299,5.6069,0.0,0.0,5.5703,5.5703,5.5703,5.5703,5.5703,5.5703,5.5703,5.5703,5.5703,5.4871,5.3548,0.0,0.0,0.0,0.0,0.0,0.0,0.0,0.0,0.0,0.0,0.0,0.0,0.0,0.0,0.0,0.0,0.0,0.0,0.0,0.0,0.0,0.0,0.0,0.0,0.0,0.0,0.0,0.0,0.0,0.0,0.0,0.0,0.0,0.0,0.0,0.0,0.0,0.0,0.0,0.0,0.0,0.0,0.0,0.0,0.0,0.0,0.0,0.0,0.0,0.0,0.0,0.0,0.0,0.0,0.0,0.0,2.4964,2.4554,2.5623,2.6954,2.8129,0.0,0.0,3.287,3.2101,0.0,0.0,0.0,0.0,0.0,0.0,0.0,0.0,0.0,0.0,0.0,0.0,0.0,0.0,0.0,0.0,0.0,0.0,0.0,0.0,0.0,0.0,0.0,0.0,0.0,0.0,0.0,0.0,0.0,5.6992,5.6126,5.6126,5.6973,5.6107,5.5799,5.5992,5.578,5.5703,5.5703,5.5703,5.5703,5.5703,5.5703,5.5703,5.5703,5.5703,5.5703,5.5703,5.5703,5.4373,5.2552,0.0,0.0,0.0,0.0,0.0,0.0,0.0,0.0,0.0,0.0,0.0,0.0,0.0,0.0,0.0,0.0,0.0,0.0,0.0,0.0,0.0,0.0,0.0,0.0,0.0,0.0,0.0,0.0,0.0,0.0,0.0,0.0,0.0,0.0,0.0,0.0,0.0,0.0,0.0,0.0,0.0,0.0,0.0,0.0,0.0,0.0,0.0,0.0,0.0,0.0,0.0,0.0,0.0,0.0,0.0,0.0,2.5213,2.4776,2.6584,2.7963,2.9059,2.977,3.0142,0.0,3.1998,3.2269,0.0,3.4075,0.0,0.0,0.0,0.0,0.0,0.0,0.0,0.0,0.0,0.0,0.0,0.0,0.0,0.0,0.0,0.0,0.0,0.0,0.0,0.0,0.0,0.0,0.0,0.0,0.0,0.0,5.6992,5.6126,5.6126,5.6973,5.6107,5.6107,5.6876,5.6069,5.5703,5.5703,5.5703,5.5703,5.5703,5.5703,5.5703,5.5703,5.5703,5.5703,5.5703,5.5703,5.4373,5.2596,0.0,0.0,0.0,0.0,0.0,0.0,0.0,0.0,0.0,0.0,0.0,0.0,0.0,0.0,0.0,0.0,0.0,0.0,0.0,0.0,0.0,0.0,0.0,0.0,0.0,0.0,0.0,0.0,0.0,0.0,0.0,0.0,0.0,0.0,0.0,0.0,0.0,0.0,0.0,0.0,0.0,0.0,0.0,0.0,0.0,0.0,0.0,0.0,0.0,0.0,2.459,0.0,0.0,0.0,0.0,0.0,2.5407,2.5205,2.7128,2.8888,3.0283,3.0733,3.2336,0.0,0.0,3.565,3.7189,0.0,0.0,0.0,0.0,0.0,0.0,0.0,0.0,0.0,0.0,0.0,0.0,0.0,0.0,0.0,0.0,0.0,0.0,0.0,0.0,0.0,0.0,0.0,0.0,0.0,0.0,0.0,0.0,5.5857,5.5857,5.6184,5.5857,5.5857,5.6184,5.5838,5.5703,5.5703,5.5703,5.5703,5.5703,5.5703,5.5703,5.5703,5.5703,5.5703,5.5703,5.5703,5.4543,5.2954,0.0,0.0,0.0,0.0,0.0,0.0,0.0,0.0,0.0,0.0,0.0,0.0,0.0,0.0,0.0,0.0,0.0,0.0,0.0,0.0,0.0,0.0,0.0,0.0,0.0,0.0,0.0,0.0,0.0,0.0,0.0,0.0,0.0,0.0,0.0,0.0,0.0,0.0,0.0,0.0,0.0,0.0,0.0,0.0,0.0,0.0,0.0,0.0,0.0,0.0,2.4746,0.0,0.0,0.0,0.0,0.0,2.6109,2.5876,2.7315,2.8996,3.0489,0.0,0.0,0.0,3.7084,3.8668,4.0438,0.0,0.0,0.0,0.0,0.0,0.0,0.0,0.0,0.0,0.0,0.0,0.0,0.0,0.0,0.0,0.0,0.0,0.0,0.0,0.0,0.0,0.0,0.0,0.0,0.0,0.0,0.0,0.0,5.5703,5.5703,5.5703,5.5703,5.5703,5.5703,5.5703,5.5703,5.5703,5.5703,5.5703,5.5703,5.5703,5.5703,5.5703,5.5703,5.5703,5.5703,5.5703,5.4645,5.3163,0.0,0.0,0.0,0.0,0.0,0.0,0.0,0.0,0.0,0.0,0.0,0.0,0.0,0.0,0.0,0.0,0.0,0.0,0.0,0.0,0.0,0.0,0.0,0.0,0.0,0.0,0.0,0.0,0.0,0.0,0.0,0.0,0.0,0.0,0.0,0.0,0.0,0.0,0.0,0.0,0.0,0.0,0.0,0.0,0.0,0.0,0.0,0.0,0.0,0.0,2.4208,2.4483,0.0,0.0,0.0,2.7502,2.7376,2.6886,2.7217,2.818,0.0,0.0,0.0,0.0,4.0135,4.0783,4.1712,0.0,0.0,0.0,0.0,0.0,0.0,0.0,0.0,0.0,0.0,0.0,0.0,0.0,0.0,0.0,0.0,0.0,0.0,0.0,0.0,0.0,0.0,0.0,0.0,0.0,0.0,0.0,0.0,5.5703,5.5703,5.5703,5.5703,5.5703,5.5703,5.5703,5.5703,5.5703,5.5703,5.5703,5.5703,5.5703,5.5703,5.5703,5.5703,5.5703,5.5703,5.5684,5.4626,5.3203,0.0,0.0,0.0,0.0,0.0,0.0,0.0,0.0,0.0,0.0,0.0,0.0,0.0,0.0,0.0,0.0,0.0,0.0,0.0,0.0,0.0,0.0,0.0,0.0,0.0,0.0,0.0,0.0,0.0,0.0,0.0,0.0,0.0,0.0,0.0,0.0,0.0,0.0,0.0,0.0,0.0,0.0,0.0,0.0,0.0,0.0,0.0,0.0,0.0,0.0,0.0,0.0,0.0,0.0,0.0,2.626,2.6648,2.722,2.7625,0.0,0.0,0.0,0.0,0.0,0.0,4.2768,0.0,0.0,0.0,0.0,0.0,0.0,0.0,0.0,0.0,0.0,0.0,0.0,0.0,0.0,0.0,0.0,0.0,0.0,0.0,0.0,0.0,0.0,0.0,0.0,0.0,0.0,0.0,0.0,0.0,0.0,5.5703,5.5703,5.5703,5.5703,5.5703,5.5703,5.5703,5.5703,5.5703,5.5703,5.5703,5.5703,5.5761,5.5838,5.5838,5.5838,5.5761,5.5224,5.4222,5.3106,0.0,0.0,0.0,0.0,0.0,0.0,0.0,0.0,0.0,0.0,0.0,0.0,0.0,0.0,0.0,0.0,0.0,0.0,0.0,0.0,0.0,0.0,0.0,0.0,0.0,0.0,0.0,0.0,0.0,0.0,0.0,0.0,0.0,0.0,0.0,0.0,0.0,0.0,0.0,0.0,0.0,0.0,0.0,0.0,0.0,0.0,0.0,0.0,0.0,0.0,0.0,0.0,2.4722,0.0,0.0,2.6161,2.6806,2.7689,2.8393,0.0,0.0,0.0,0.0,0.0,0.0,0.0,0.0,0.0,0.0,0.0,0.0,0.0,0.0,0.0,0.0,0.0,0.0,0.0,0.0,0.0,0.0,0.0,0.0,0.0,0.0,0.0,0.0,0.0,0.0,0.0,0.0,0.0,0.0,0.0,0.0,0.0,0.0,5.5703,5.5703,5.5703,5.5703,5.5703,5.5703,5.5703,5.5703,5.5703,5.5703,5.5703,5.578,5.5857,5.5549,5.5673,5.5879,5.4708,5.3876,5.3222,0.0,0.0,0.0,0.0,0.0,0.0,0.0,0.0,0.0,0.0,0.0,0.0,0.0,0.0,0.0,0.0,0.0,0.0,0.0,0.0,0.0,0.0,0.0,0.0,0.0,0.0,0.0,0.0,0.0,0.0,0.0,0.0,0.0,0.0,0.0,0.0,0.0,0.0,0.0,0.0,0.0,0.0,0.0,0.0,0.0,0.0,0.0,0.0,0.0,0.0,0.0,0.0,2.5182,2.552,2.5861,2.6914,2.7557,2.8215,0.0,0.0,0.0,0.0,0.0,0.0,0.0,0.0,0.0,0.0,0.0,0.0,0.0,0.0,0.0,0.0,0.0,0.0,0.0,0.0,0.0,0.0,0.0,0.0,0.0,0.0,0.0,0.0,0.0,0.0,0.0,0.0,0.0,0.0,0.0,0.0,0.0,0.0,0.0,0.0,5.5703,5.5703,5.5703,5.5703,5.5703,5.5703,5.5703,5.5703,5.5703,5.5703,5.5799,5.5838,5.5047,5.5294,5.5891,5.4141,5.3494,5.3379,0.0,0.0,0.0,0.0,0.0,0.0,0.0,0.0,0.0,0.0,0.0,0.0,0.0,0.0,0.0,0.0,0.0,0.0,0.0,0.0,0.0,0.0,0.0,0.0,0.0,0.0,0.0,0.0,0.0,0.0,0.0,0.0,0.0,0.0,0.0,0.0,0.0,0.0,0.0,0.0,0.0,0.0,0.0,0.0,0.0,0.0,0.0,0.0,0.0,0.0,0.0,0.0,2.5348,2.6059,2.6871,2.7132,2.7713,0.0,0.0,0.0,0.0,0.0,0.0,0.0,0.0,0.0,0.0,0.0,0.0,0.0,0.0,0.0,0.0,0.0,0.0,0.0,0.0,0.0,0.0,0.0,0.0,0.0,0.0,0.0,0.0,0.0,0.0,0.0,0.0,0.0,0.0,0.0,0.0,0.0,5.5684,5.5703,5.5703,0.0,5.5703,5.5703,5.5703,5.5703,5.5703,5.5703,5.5703,5.5703,5.5703,5.5799,5.5974,5.6071,5.5318,5.5164,5.5126,5.3385,5.2664,5.2466,0.0,0.0,0.0,0.0,0.0,0.0,0.0,0.0,0.0,0.0,0.0,0.0,0.0,0.0,0.0,0.0,0.0,0.0,0.0,0.0,0.0,0.0,0.0,0.0,0.0,0.0,0.0,0.0,0.0,0.0,0.0,0.0,0.0,0.0,0.0,0.0,0.0,0.0,0.0,0.0,0.0,0.0,0.0,0.0,0.0,0.0,0.0,0.0,0.0,0.0,0.0,0.0,0.0,0.0,2.7002,2.7137,2.7763,0.0,0.0,0.0,0.0,0.0,0.0,0.0,0.0,0.0,0.0,0.0,0.0,0.0,0.0,0.0,0.0,0.0,0.0,0.0,0.0,0.0,0.0,0.0,0.0,0.0,0.0,0.0,0.0,0.0,0.0,0.0,0.0,0.0,0.0,0.0,0.0,0.0,5.4491,5.5299,5.5299,5.4511,5.4934,5.5126,5.5145,5.5511,5.5703,5.5703,5.5703,5.5742,5.5799,5.5857,5.5799,5.5588,5.4797,5.4524,5.4355,5.2617,5.2194,5.2361,0.0,0.0,0.0,0.0,0.0,0.0,0.0,0.0,0.0,0.0,0.0,0.0,0.0,0.0,0.0,0.0,0.0,0.0,0.0,0.0,0.0,0.0,0.0,0.0,0.0,0.0,0.0,0.0,0.0,0.0,0.0,0.0,0.0,0.0,0.0,0.0,0.0,0.0,0.0,0.0,0.0,0.0,0.0,0.0,0.0,0.0,0.0,0.0,0.0,2.5544,0.0,0.0,0.0,0.0,2.705,2.7327,0.0,0.0,0.0,0.0,0.0,0.0,0.0,0.0,0.0,0.0,0.0,0.0,0.0,0.0,0.0,0.0,0.0,0.0,0.0,0.0,0.0,0.0,0.0,0.0,0.0,0.0,0.0,0.0,0.0,0.0,0.0,0.0,0.0,0.0,0.0,0.0,0.0,5.378,5.3222,5.4587,5.4568,5.3222,5.3933,5.4357,5.4511,5.5184,5.5568,5.5703,5.5722,5.5799,5.5876,5.5799,5.5511,5.4991,5.3995,5.3671,5.3574,5.1992,5.1855,5.2344,0.0,0.0,0.0,0.0,0.0,0.0,0.0,0.0,0.0,0.0,0.0,0.0,0.0,0.0,0.0,0.0,0.0,0.0,0.0,0.0,0.0,0.0,0.0,0.0,0.0,0.0,0.0,0.0,0.0,0.0,0.0,0.0,0.0,0.0,0.0,0.0,0.0,0.0,0.0,0.0,0.0,0.0,0.0,0.0,0.0,0.0,0.0,0.0,0.0,0.0,2.6345,0.0,0.0,0.0,0.0,0.0,0.0,0.0,0.0,0.0,0.0,0.0,0.0,0.0,0.0,0.0,0.0,0.0,0.0,0.0,0.0,0.0,0.0,0.0,0.0,0.0,0.0,0.0,0.0,0.0,0.0,0.0,0.0,0.0,0.0,0.0,0.0,0.0,0.0,0.0,5.2087,5.2087,5.2202,0.0,5.3203,5.3414,5.3414,5.3203,5.3318,5.378,5.4491,5.4607,5.503,5.5703,5.5818,5.5876,5.5857,5.5415,5.5143,5.4958,5.344,5.2865,5.2754,5.1758,5.1465,5.1465,0.0,0.0,0.0,0.0,0.0,0.0,0.0,0.0,0.0,0.0,0.0,0.0,0.0,0.0,0.0,0.0,0.0,0.0,0.0,0.0,0.0,0.0,0.0,0.0,0.0,0.0,0.0,0.0,0.0,0.0,0.0,2.3069,2.3004,0.0,0.0,0.0,0.0,0.0,0.0,0.0,0.0,0.0,0.0,0.0,0.0,0.0,0.0,0.0,0.0,0.0,0.0,0.0,0.0,0.0,0.0,0.0,0.0,0.0,0.0,0.0,0.0,0.0,0.0,0.0,0.0,0.0,0.0,0.0,0.0,0.0,0.0,0.0,0.0,0.0,0.0,0.0,0.0,0.0,0.0,0.0,0.0,0.0,0.0,0.0,0.0,0.0,0.0,0.0,0.0,5.1221,5.1221,5.1221,5.1664,0.0,5.1798,5.2722,5.2953,5.2472,5.2472,5.2933,5.3799,5.428,5.4972,5.5818,5.5857,5.6013,5.6128,5.5415,5.4868,5.4362,5.3171,5.2402,5.1933,5.1543,5.1406,5.1289,0.0,0.0,0.0,0.0,0.0,0.0,0.0,0.0,0.0,0.0,0.0,0.0,0.0,0.0,0.0,0.0,0.0,0.0,0.0,0.0,0.0,0.0,0.0,0.0,0.0,0.0,0.0,0.0,0.0,0.0,2.3189,2.2571,2.2598,0.0,2.2547,0.0,0.0,0.0,0.0,0.0,0.0,0.0,0.0,0.0,0.0,0.0,0.0,0.0,0.0,0.0,0.0,0.0,0.0,0.0,0.0,0.0,0.0,0.0,0.0,0.0,0.0,0.0,0.0,0.0,0.0,0.0,0.0,0.0,0.0,0.0,0.0,0.0,0.0,0.0,0.0,0.0,0.0,0.0,0.0,0.0,0.0,0.0,0.0,0.0,0.0,0.0,0.0,0.0,5.0702,5.0702,5.0702,5.0702,5.1279,5.1318,5.0702,5.1933,5.2241,5.1606,5.1606,5.2049,5.2895,5.3587,5.4414,5.5338,5.5769,5.5904,5.5686,5.5069,5.4373,5.3574,5.2715,5.1973,5.1406,5.1406,5.1269,5.0976,0.0,0.0,0.0,0.0,0.0,0.0,0.0,0.0,0.0,0.0,0.0,0.0,0.0,0.0,0.0,0.0,0.0,0.0,0.0,0.0,0.0,0.0,0.0,0.0,0.0,0.0,0.0,0.0,0.0,0.0,2.3189,2.2571,2.2327,2.2361,2.2327,2.231,2.231,0.0,0.0,0.0,0.0,0.0,0.0,0.0,0.0,0.0,0.0,0.0,0.0,0.0,0.0,0.0,0.0,0.0,0.0,0.0,0.0,0.0,0.0,0.0,0.0,0.0,0.0,0.0,0.0,0.0,0.0,0.0,0.0,0.0,0.0,0.0,0.0,0.0,0.0,0.0,0.0,0.0,0.0,0.0,0.0,0.0,0.0,0.0,0.0,0.0,0.0,0.0,5.0702,5.0702,5.0702,5.0702,5.0741,5.0741,5.0702,5.0779,5.0798,5.076,5.076,5.1183,5.1972,5.2145,5.2778,5.3816,5.5472,5.5331,5.3955,5.4014,5.3553,5.2676,5.1816,5.1445,5.1406,5.1406,5.0918,5.0137,0.0,0.0,0.0,0.0,0.0,0.0,0.0,0.0,0.0,0.0,0.0,0.0,0.0,0.0,0.0,0.0,0.0,0.0,0.0,0.0,0.0,0.0,0.0,0.0,0.0,0.0,0.0,0.0,0.0,2.3189,2.3189,2.2571,2.231,2.231,2.231,2.231,2.231,2.231,0.0,0.0,0.0,0.0,0.0,0.0,0.0,0.0,0.0,0.0,0.0,0.0,0.0,0.0,0.0,0.0,0.0,0.0,0.0,0.0,0.0,0.0,0.0,0.0,0.0,0.0,0.0,0.0,0.0,0.0,0.0,0.0,0.0,0.0,0.0,0.0,0.0,0.0,0.0,0.0,0.0,0.0,0.0,0.0,0.0,0.0,0.0,0.0,0.0,0.0,5.0664,4.9644,4.9529,5.0644,5.0164,5.0125,5.0683,5.0702,5.0702,5.0702,5.0702,5.1164,5.2029,5.2087,5.2373,5.2967,5.4149,5.438,5.3884,5.339,5.2988,5.2617,5.1738,5.1074,5.0625,5.0625,5.0098,4.9238,0.0,0.0,0.0,0.0,0.0,0.0,0.0,0.0,0.0,0.0,0.0,0.0,0.0,0.0,0.0,0.0,0.0,0.0,0.0,0.0,0.0,0.0,0.0,0.0,0.0,0.0,0.0,0.0,0.0,0.0,0.0,0.0,2.2388,2.231,2.231,0.0,0.0,0.0,0.0,2.2649,0.0,0.0,2.4003,0.0,0.0,0.0,0.0,0.0,0.0,0.0,0.0,0.0,0.0,0.0,0.0,0.0,0.0,0.0,0.0,0.0,0.0,0.0,0.0,0.0,0.0,0.0,0.0,0.0,0.0,0.0,0.0,0.0,0.0,0.0,0.0,0.0,0.0,0.0,0.0,0.0,0.0,0.0,0.0,0.0,0.0,0.0,0.0,0.0,4.9798,4.874,4.8759,5.0221,4.9413,4.9375,5.026,4.9971,4.9817,4.9817,5.0183,5.0664,5.126,5.1625,5.1894,5.2103,5.2715,5.3036,5.3105,5.2812,5.2539,5.2207,5.1621,5.0918,5.0195,5.0195,4.9453,4.8418,0.0,0.0,0.0,0.0,0.0,0.0,0.0,0.0,0.0,0.0,0.0,0.0,0.0,0.0,0.0,0.0,0.0,0.0,0.0,0.0,0.0,0.0,0.0,0.0,0.0,0.0,0.0,0.0,0.0,0.0,0.0,0.0,2.2563,0.0,2.231,2.231,2.231,0.0,2.2733,2.3342,0.0,2.3591,2.5393,0.0,0.0,0.0,2.7019,2.7168,0.0,0.0,0.0,0.0,0.0,0.0,0.0,0.0,0.0,0.0,0.0,0.0,0.0,0.0,0.0,0.0,0.0,0.0,0.0,0.0,0.0,0.0,0.0,0.0,0.0,0.0,0.0,0.0,0.0,0.0,0.0,0.0,0.0,0.0,0.0,0.0,0.0,0.0,0.0,4.8067,4.8105,4.8105,4.849,4.9298,4.8529,4.8509,4.9356,4.8529,4.8105,4.8105,4.9124,4.9605,4.9624,5.0683,5.1164,5.1183,5.1276,5.1328,5.1406,5.2285,5.2148,5.1367,5.1367,5.0859,5.0117,5.0117,4.9043,4.7715,0.0,0.0,0.0,0.0,0.0,0.0,0.0,0.0,0.0,0.0,0.0,0.0,0.0,0.0,0.0,0.0,0.0,0.0,0.0,0.0,0.0,0.0,0.0,0.0,0.0,0.0,0.0,0.0,0.0,0.0,0.0,0.0,0.0,0.0,2.2388,2.231,2.231,2.231,0.0,0.0,2.3173,2.3922,0.0,0.0,0.0,0.0,0.0,2.6613,0.0,0.0,2.8106,2.8818,0.0,0.0,0.0,0.0,0.0,0.0,2.9305,0.0,0.0,0.0,0.0,0.0,0.0,0.0,0.0,0.0,0.0,0.0,0.0,0.0,0.0,0.0,0.0,0.0,0.0,0.0,0.0,0.0,0.0,0.0,0.0,0.0,0.0,0.0,4.7567,4.749,4.8067,4.8105,4.7952,4.7605,4.7932,4.8221,4.8471,4.8221,4.8105,4.8105,4.9124,4.9647,4.9756,5.0137,5.0375,5.0433,4.9858,4.9579,4.9707,5.1152,5.1269,5.0527,5.0527,4.9629,4.832,4.832,4.8008,4.7539,0.0,0.0,0.0,0.0,0.0,0.0,0.0,0.0,0.0,0.0,0.0,0.0,0.0,0.0,0.0,0.0,0.0,0.0,0.0,0.0,0.0,0.0,0.0,0.0,0.0,0.0,0.0,0.0,0.0,0.0,0.0,0.0,0.0,0.0,0.0,0.0,0.0,0.0,0.0,0.0,2.3511,0.0,0.0,2.5508,2.5835,0.0,0.0,0.0,2.7116,2.7525,2.8306,0.0,0.0,0.0,0.0,0.0,0.0,0.0,0.0,0.0,0.0,0.0,0.0,0.0,0.0,3.4578,0.0,0.0,0.0,0.0,0.0,0.0,0.0,0.0,0.0,0.0,0.0,0.0,0.0,0.0,0.0,0.0,0.0,0.0,0.0,0.0,4.6624,4.6567,4.7028,4.7067,4.7009,4.6913,4.7009,4.724,4.7605,4.724,4.7086,4.7163,4.8508,4.9222,4.935,4.9858,5.0126,5.0148,4.9274,4.8906,4.8984,4.9941,5.0078,4.9687,5.0058,4.9121,4.7598,4.7598,4.7363,4.703,0.0,0.0,0.0,0.0,0.0,0.0,0.0,0.0,0.0,0.0,0.0,0.0,0.0,0.0,0.0,0.0,0.0,0.0,0.0,0.0,0.0,0.0,0.0,0.0,0.0,0.0,0.0,0.0,0.0,0.0,0.0,0.0,0.0,0.0,0.0,0.0,0.0,0.0,0.0,2.4516,2.3956,2.5103,0.0,0.0,2.728,0.0,2.8226,2.8319,2.8207,2.7719,2.8259,0.0,0.0,0.0,0.0,0.0,3.1035,0.0,0.0,0.0,0.0,0.0,0.0,0.0,3.2449,3.3715,3.477,0.0,0.0,0.0,0.0,0.0,0.0,0.0,0.0,0.0,0.0,0.0,0.0,0.0,0.0,0.0,0.0,0.0,4.6432,4.5663,4.5586,4.5586,4.5586,4.5586,4.5951,4.674,4.599,4.597,4.6759,4.599,4.568,4.5815,4.7561,4.8446,4.8596,4.9488,4.9902,4.9863,4.8984,4.8613,4.8613,4.8711,4.8769,4.8828,4.9609,4.8906,4.7461,4.7461,4.7029,4.6498,0.0,0.0,0.0,0.0,0.0,0.0,0.0,0.0,0.0,0.0,0.0,0.0,0.0,0.0,0.0,0.0,0.0,0.0,0.0,0.0,0.0,0.0,0.0,0.0,0.0,0.0,0.0,0.0,0.0,0.0,0.0,0.0,0.0,0.0,0.0,0.0,0.0,0.0,0.0,2.4942,2.5436,0.0,2.6474,2.6952,2.7451,2.7893,2.7907,2.7736,2.7684,0.0,2.9308,2.9834,0.0,0.0,0.0,0.0,0.0,0.0,0.0,0.0,0.0,0.0,0.0,0.0,3.2577,3.2852,3.3458,0.0,0.0,0.0,0.0,0.0,0.0,0.0,0.0,0.0,0.0,0.0,0.0,0.0,0.0,0.0,0.0,0.0,4.5778,4.5605,4.5586,4.5586,4.5586,4.5586,4.5682,4.5836,4.5682,4.5682,4.5836,4.5796,4.5776,4.5815,4.7043,4.7638,4.7656,4.7967,4.8105,4.8066,4.7187,4.6816,4.6855,4.7558,4.7851,4.7871,4.8047,4.7461,4.6543,4.6543,4.6813,4.7115,0.0,0.0,0.0,0.0,0.0,0.0,0.0,0.0,0.0,0.0,0.0,0.0,0.0,0.0,0.0,0.0,0.0,0.0,0.0,0.0,0.0,0.0,0.0,0.0,0.0,0.0,0.0,0.0,0.0,0.0,0.0,0.0,0.0,0.0,0.0,0.0,0.0,0.0,2.4938,2.4829,2.5824,0.0,2.6532,2.7458,2.7826,2.7982,2.8507,2.8574,2.8537,2.9506,2.9971,0.0,0.0,3.2739,3.311,0.0,3.3183,3.3532,0.0,0.0,0.0,3.2687,0.0,0.0,0.0,3.2926,3.3311,0.0,0.0,0.0,0.0,0.0,0.0,0.0,0.0,0.0,0.0,0.0,0.0,0.0,0.0,0.0,0.0,0.0,4.5586,4.5586,4.5586,4.5586,4.5586,4.5586,4.5586,4.5586,4.5586,4.5586,4.5586,4.5738,4.5819,4.5854,4.6912,4.7439,4.7492,4.7562,4.7598,4.7558,4.668,4.6308,4.6328,4.6777,4.6953,4.6992,4.7422,4.707,4.6288,4.6209,4.6429,4.666,0.0,0.0,0.0,0.0,0.0,0.0,0.0,0.0,0.0,0.0,0.0,0.0,0.0,0.0,0.0,0.0,0.0,0.0,0.0,0.0,0.0,0.0,0.0,2.4278,0.0,0.0,0.0,0.0,0.0,0.0,0.0,0.0,0.0,0.0,0.0,0.0,0.0,0.0,0.0,2.5022,0.0,2.6591,2.6835,2.8054,2.8432,2.8469,2.9384,2.9667,2.9677,3.0006,0.0,3.0716,3.1379,3.2259,0.0,0.0,0.0,0.0,0.0,0.0,0.0,0.0,0.0,3.301,0.0,0.0,0.0,3.2981,0.0,0.0,0.0,0.0,0.0,0.0,0.0,0.0,0.0,0.0,0.0,0.0,0.0,0.0,0.0,0.0,4.5182,4.5336,4.5336,4.5413,4.5586,4.5586,4.5586,4.5586,4.5586,4.5586,4.5586,4.5757,4.5849,4.5918,4.679,4.7232,4.7344,4.7344,4.7344,4.7305,4.6601,4.6308,4.6308,4.6308,4.6308,4.6367,4.707,4.6914,4.6285,4.6158,4.6084,4.6046,2.2276,2.1554,0.0,0.0,0.0,0.0,0.0,0.0,0.0,0.0,0.0,0.0,0.0,0.0,0.0,0.0,0.0,0.0,2.4769,0.0,0.0,0.0,0.0,0.0,2.4208,0.0,0.0,0.0,0.0,0.0,0.0,0.0,0.0,0.0,2.5406,0.0,0.0,0.0,2.6533,0.0,2.737,2.7338,0.0,2.8385,2.9344,2.9965,3.0105,3.0128,3.0103,0.0,3.0129,3.0438,0.0,3.2479,0.0,0.0,0.0,0.0,0.0,0.0,0.0,0.0,3.4284,0.0,0.0,0.0,3.377,3.3678,0.0,0.0,0.0,0.0,0.0,0.0,0.0,0.0,0.0,0.0,0.0,0.0,0.0,0.0,0.0,0.0,0.0,4.4393,4.4451,4.4778,4.5547,4.5586,4.5586,4.5586,4.5586,4.5586,4.5586,4.5796,4.5887,4.5899,4.6269,4.6422,4.6445,4.6445,4.6445,4.6445,4.6348,4.6308,4.6308,4.6308,4.6308,4.6308,4.6406,4.6387,4.6285,4.6158,4.6026,4.5911,2.2349,2.1584,0.0,0.0,0.0,0.0,0.0,0.0,0.0,0.0,0.0,0.0,0.0,0.0,0.0,0.0,0.0,2.4062,0.0,0.0,0.0,0.0,0.0,0.0,0.0,0.0,0.0,0.0,2.5155,0.0,0.0,0.0,0.0,0.0,2.5862,0.0,2.6099,0.0,0.0,0.0,0.0,0.0,0.0,2.9363,3.0337,3.1211,3.0932,3.0961,3.1098,0.0,3.0891,0.0,0.0,0.0,0.0,0.0,0.0,0.0,0.0,0.0,0.0,0.0,0.0,0.0,0.0,0.0,3.3807,0.0,0.0,0.0,0.0,0.0,0.0,0.0,0.0,0.0,0.0,0.0,0.0,0.0,0.0,0.0,0.0,0.0,0.0,0.0,0.0,4.397,4.4797,4.4855,4.5066,4.5566,4.5586,4.5624,4.5719,4.5834,4.5938,4.6021,4.6206,4.6308,4.6308,4.6308,4.6308,4.6308,4.6308,4.6308,4.6308,4.6308,4.6308,4.6288,4.6201,4.6173,4.6162,4.6026,4.5926,4.5834,2.2377,0.0,0.0,0.0,0.0,0.0,0.0,0.0,0.0,0.0,0.0,0.0,2.6488,2.6048,0.0,0.0,0.0,2.5727,0.0,0.0,2.5767,0.0,0.0,0.0,0.0,0.0,0.0,0.0,0.0,0.0,0.0,0.0,0.0,0.0,0.0,2.6404,2.5947,0.0,0.0,2.8303,2.8012,2.8649,2.9813,3.0338,3.1214,3.2133,3.1756,3.179,3.1897,3.1389,3.1487,0.0,3.235,0.0,0.0,0.0,0.0,0.0,3.4357,0.0,0.0,0.0,0.0,0.0,0.0,0.0,0.0,0.0,0.0,0.0,0.0,0.0,0.0,0.0,0.0,0.0,0.0,0.0,0.0,0.0,0.0,0.0,0.0,0.0,0.0,0.0,4.2739,0.0,4.4239,4.4297,4.4701,4.5566,4.5624,4.5699,4.5796,4.5911,4.6007,4.6102,4.624,4.6308,4.6308,4.6308,4.6308,4.6308,4.6308,4.6308,4.6308,4.6308,4.628,4.6234,4.6148,4.6065,4.6003,4.5899,4.5833,4.5776,2.2432,2.1899,0.0,0.0,0.0,0.0,0.0,0.0,0.0,0.0,0.0,0.0,0.0,0.0,0.0,0.0,0.0,2.8044,2.8822,0.0,2.6377,0.0,0.0,2.6631,0.0,0.0,0.0,0.0,0.0,0.0,0.0,0.0,0.0,0.0,0.0,2.6674,2.6657,2.6674,2.7164,2.7933,2.7915,2.882,3.0259,0.0,3.188,3.2556,3.2505,0.0,0.0,3.1504,3.1487,0.0,0.0,0.0,0.0,0.0,0.0,0.0,0.0,0.0,0.0,0.0,0.0,0.0,0.0,0.0,3.6211,0.0,0.0,0.0,0.0,0.0,0.0,0.0,0.0,0.0,0.0,0.0,0.0,0.0,0.0,0.0,0.0,0.0,0.0,0.0,4.1854,0.0,4.4201,4.4297,4.4701,4.5566,4.5738,4.5796,4.5796,4.6007,4.6103,4.6102,4.624,4.6308,4.6308,4.6308,4.6308,4.6308,4.6308,4.6308,4.6308,4.6308,4.6229,4.6116,4.6102,4.5988,4.5815,4.5813,4.5796,4.5776,0.0,0.0,0.0,0.0,0.0,0.0,0.0,2.2884,0.0,0.0,0.0,0.0,0.0,0.0,3.136,0.0,0.0,2.9448,2.9702,2.8422,0.0,0.0,0.0,2.7713,0.0,0.0,0.0,0.0,0.0,0.0,0.0,0.0,0.0,0.0,0.0,2.6691,0.0,0.0,0.0,0.0,0.0,3.1308,3.177,0.0,0.0,3.2627,3.2895,3.2952,0.0,3.2248,3.235,3.2745,3.2903,3.3454,3.4081,3.4467,3.5404,0.0,0.0,0.0,3.79,3.6266,0.0,0.0,0.0,0.0,0.0,0.0,0.0,0.0,0.0,0.0,0.0,0.0,0.0,0.0,0.0,0.0,0.0,0.0,0.0,0.0,0.0,0.0,0.0,4.02,4.0642,4.1181,0.0,4.2874,4.3932,4.4833,4.5488,4.5853,4.6007,4.6065,4.6151,4.6228,4.628,4.6308,4.6308,4.6308,4.6308,4.6308,4.6308,4.6308,4.6288,4.6208,4.6143,4.6084,4.595,4.5853,4.5796,4.5796,4.5738,4.5643,2.2349,0.0,0.0,0.0,0.0,0.0,0.0,0.0,0.0,0.0,3.0903,0.0,3.4015,0.0,3.3922,0.0,3.2763,3.185,3.1326,3.0003,0.0,2.8763,2.8453,0.0,0.0,0.0,0.0,0.0,0.0,2.7232,0.0,0.0,0.0,0.0,0.0,0.0,0.0,0.0,2.8329,0.0,0.0,3.1751,0.0,0.0,3.2339,0.0,0.0,3.3394,3.3538,3.309,3.3448,3.4045,3.4045,3.455,3.5165,3.5404,3.6285,3.7092,3.6798,3.7679,0.0,0.0,3.7753,0.0,3.7331,0.0,0.0,0.0,0.0,0.0,0.0,0.0,0.0,0.0,0.0,0.0,0.0,0.0,0.0,0.0,0.0,0.0,0.0,0.0,4.0893,3.9796,4.02,4.0662,0.0,0.0,4.3583,4.4545,4.5449,4.5969,4.6103,4.6145,4.6201,4.6308,4.6308,4.6308,4.6308,4.6308,4.6308,4.6308,4.6308,4.6308,4.6287,4.6164,4.6065,4.6007,4.5853,4.5776,4.5738,4.5738,4.568,4.5586,0.0,0.0,0.0,0.0,2.1514,0.0,0.0,0.0,2.8501,0.0,3.3342,3.4912,3.574,3.6468,3.6891,3.6891,3.6146,0.0,3.3609,3.25,0.0,0.0,2.8868,2.8706,2.7882,0.0,0.0,0.0,0.0,0.0,0.0,0.0,0.0,0.0,2.7132,0.0,2.7303,2.7725,2.812,2.8616,2.9832,3.032,3.0485,3.2118,0.0,3.3808,3.3433,3.3786,3.4375,3.3957,3.4623,3.5643,3.5643,3.6474,3.7323,3.656,3.7441,3.8487,3.7753,3.812,3.8707,3.8762,0.0,0.0,0.0,0.0,3.9955,0.0,0.0,0.0,0.0,0.0,0.0,0.0,0.0,0.0,0.0,0.0,0.0,0.0,0.0,0.0,0.0,4.0527,4.0527,4.045,4.0469,4.0912,0.0,0.0,0.0,4.4607,4.5603,4.6082,4.6114,4.624,4.6308,4.6308,4.6308,4.6308,4.6308,4.6308,4.6308,4.6308,4.6308,4.6308,4.6282,4.6145,4.6005,4.5892,4.5815,4.5719,4.5586,4.5586,4.5586,4.5586,2.2412,2.2181,2.2377,0.0,2.2419,2.2508,0.0,0.0,0.0,0.0,3.5144,3.6891,3.8734,3.8633,3.843,3.843,3.7229,0.0,0.0,0.0,0.0,3.0955,3.0439,2.9732,2.8706,2.9042,0.0,2.7303,0.0,0.0,2.7537,0.0,0.0,0.0,0.0,0.0,2.6906,2.7589,2.8622,2.9868,3.1371,3.199,0.0,0.0,3.4495,3.4679,3.4576,3.4676,3.4921,3.5435,3.586,3.6102,3.6102,3.6355,3.667,3.7074,3.7477,3.7881,3.8285,3.8542,3.8836,3.9441,3.9753,3.9992,0.0,0.0,0.0,0.0,0.0,0.0,0.0,0.0,0.0,0.0,0.0,0.0,0.0,0.0,0.0,0.0,0.0,0.0,0.0,4.1085,4.095,3.97,4.0254,4.0485,0.0,0.0,0.0,4.3879,4.5312,4.6145,4.624,4.6284,4.6308,4.6308,4.6308,4.6308,4.6308,4.6308,4.6308,4.6308,4.6308,4.6236,4.6151,4.6011,4.5886,4.5815,4.5699,4.5624,4.5586,4.5586,4.5586,4.5586,2.2936,0.0,0.0,2.4815,0.0,0.0,2.7008,0.0,0.0,3.4096,3.6161,0.0,3.8988,3.9326,3.9462,3.9462,3.8125,0.0,0.0,0.0,0.0,3.2051,3.1285,3.0298,2.9049,2.9179,0.0,2.7019,0.0,0.0,2.7334,0.0,0.0,0.0,0.0,2.7549,0.0,2.8592,2.9613,3.0797,3.1715,0.0,0.0,3.4009,3.4679,3.5045,3.544,3.5789,3.6174,3.6652,3.7055,3.7349,3.7349,3.7349,3.7441,3.7881,3.801,3.812,3.8579,3.8707,3.8891,3.9698,3.99,4.001,4.0469,4.0579,4.0579,0.0,0.0,0.0,0.0,0.0,0.0,0.0,0.0,0.0,0.0,0.0,0.0,0.0,0.0,0.0,4.0489,4.0931,4.0835,3.9892,4.0716,4.0901,0.0,0.0,0.0,4.3644,4.5677,4.6619,4.6308,4.668,4.668,4.6308,4.6308,4.6308,4.6308,4.6308,4.627,4.6212,4.6212,4.6144,4.6002,4.5899,4.5829,4.5796,4.5643,4.5586,4.5586,4.5586,4.5586,4.5586,0.0,0.0,0.0,0.0,0.0,0.0,0.0,2.989,0.0,3.4686,0.0,3.8193,3.8193,3.9242,3.9935,3.9935,0.0,3.7483,3.6823,3.5436,3.4015,3.2628,3.1867,3.0751,2.9161,2.9127,0.0,0.0,0.0,0.0,2.7097,0.0,0.0,0.0,0.0,0.0,0.0,2.994,3.0662,0.0,3.1458,3.1971,3.2724,3.3752,3.4559,3.5312,3.6266,3.7,3.7514,3.7606,3.812,3.8707,3.8707,3.8707,3.8707,3.8707,3.8707,3.8707,3.8707,3.8707,3.8891,3.9698,3.99,3.9918,4.0029,4.0065,4.0079,4.0092,3.9498,0.0,0.0,0.0,0.0,0.0,0.0,0.0,0.0,0.0,0.0,0.0,0.0,0.0,0.0,0.0,4.0508,4.0508,4.1347,4.155,0.0,0.0,0.0,0.0,4.6133,0.0,4.6641,0.0,4.7168,4.6641,4.6406,4.6287,4.6278,4.6278,4.6201,4.6073,4.608,4.6003,4.5871,4.5827,4.5796,4.5757,4.5643,4.5586,4.5586,4.5586,4.5568,4.5495,0.0,0.0,0.0,0.0,0.0,2.8671,3.2331,3.3462,3.4723,3.7045,3.8736,0.0,3.9698,3.9394,3.9191,3.9191,3.7821,0.0,0.0,0.0,0.0,3.415,3.3406,3.2053,2.9956,2.9922,2.9161,0.0,2.9161,2.9598,2.9007,0.0,0.0,0.0,0.0,0.0,2.9095,3.0296,0.0,3.0522,3.1861,3.2485,3.2852,3.5037,3.5954,3.6266,3.7753,3.7936,3.7588,3.8267,3.8579,3.8707,3.8707,3.8707,3.8707,3.8707,3.8707,3.8707,3.8707,3.8707,3.8891,3.9698,3.99,4.0065,4.0744,4.0891,4.0969,4.1252,4.0624,4.0269,4.1073,0.0,0.0,0.0,0.0,0.0,0.0,0.0,0.0,0.0,0.0,0.0,0.0,0.0,0.0,0.0,0.0,0.0,0.0,0.0,0.0,0.0,0.0,0.0,0.0,0.0,0.0,4.8437,4.6992,4.6231,4.6134,4.6134,4.6074,4.5938,4.5943,4.5888,4.5819,4.5811,4.5738,4.5624,4.5605,4.5586,4.5586,4.5586,4.5419,4.518,0.0,0.0,0.0,0.0,0.0,0.0,0.0,3.569,0.0,3.7256,3.7939,3.821,3.7804,3.8159,3.843,3.843,3.7415,3.6772,3.6772,3.569,3.4709,3.3964,3.322,0.0,3.0142,2.9736,2.9161,2.8416,2.8755,2.9033,0.0,0.0,0.0,0.0,0.0,2.9715,0.0,0.0,0.0,3.21,3.2467,3.2852,3.3403,3.5018,3.5917,3.645,3.7643,3.8102,3.8175,3.8579,3.8707,3.8707,3.8707,3.8707,3.8707,3.8707,3.8707,3.8707,3.8707,3.8707,3.8799,3.9184,3.9276,3.9386,3.9772,3.9863,3.9952,4.0244,3.9974,3.9888,4.0551,4.059,0.0,0.0,0.0,0.0,0.0,0.0,0.0,0.0,0.0,0.0,0.0,0.0,0.0,0.0,0.0,0.0,0.0,0.0,0.0,0.0,0.0,0.0,0.0,0.0,0.0,4.7539,4.6632,4.6162,4.6103,4.6026,4.5951,4.586,4.5841,4.5796,4.5699,4.5699,4.5643,4.5586,4.5586,4.5586,4.5586,4.54,4.5118,4.4849,0.0,2.8107,0.0,0.0,2.9909,0.0,0.0,3.6533,3.767,3.734,3.7246,3.6958,3.6197,3.7043,3.7669,3.7669,3.6975,3.6535,3.6535,3.525,3.4235,3.366,3.2763,3.1596,3.0142,2.9364,2.8907,0.0,2.8281,2.8401,0.0,0.0,0.0,0.0,0.0,0.0,0.0,0.0,3.254,3.3495,3.3054,3.3238,3.3917,3.4908,3.5716,3.6431,3.7386,3.8157,3.8707,3.8707,3.8707,3.8707,3.8707,3.8707,3.8707,3.8707,3.8707,3.8707,3.8707,3.8707,3.8707,3.8707,3.8707,3.8707,3.8707,3.8732,3.8873,3.9152,3.9464,3.9901,4.0616,4.0758,0.0,0.0,0.0,0.0,0.0,0.0,0.0,0.0,0.0,0.0,0.0,0.0,0.0,0.0,0.0,0.0,4.1074,4.3387,0.0,0.0,0.0,0.0,4.6855,0.0,4.7168,0.0,4.6337,4.6084,4.6046,4.593,4.5834,4.5757,4.5757,4.5699,4.5586,4.5586,4.5586,4.5586,4.5586,4.5568,4.5457,4.5201,4.483,4.4474,0.0,0.0,0.0,0.0,0.0,0.0,0.0,3.5248,3.8026,3.8739,3.8785,3.8514,3.777,3.7212,3.6891,3.6891,3.618,3.5723,3.5723,3.4945,3.4455,3.4387,3.3034,3.1596,3.0142,2.9364,2.8636,0.0,0.0,2.9089,0.0,0.0,0.0,0.0,0.0,0.0,0.0,3.2974,3.3238,3.2779,3.3421,3.3733,3.3972,3.5569,3.6229,3.6486,3.8046,3.8634,3.8707,3.8707,3.8707,3.8707,3.8707,3.8707,3.8707,3.8707,3.8707,3.8707,3.8707,3.8707,3.8707,3.8707,3.8707,3.8707,3.8707,3.8884,3.9152,3.9481,4.0633,4.181,4.2667,4.2184,4.1681,0.0,0.0,0.0,0.0,0.0,0.0,0.0,0.0,0.0,0.0,0.0,0.0,0.0,0.0,4.1133,4.1182,4.2851,4.3789,4.3691,0.0,4.7148,4.8633,4.7168,0.0,4.8633,4.6911,4.6046,4.593,4.5834,4.5738,4.5605,4.5605,4.5605,4.5586,4.5586,4.5586,4.5586,4.5586,4.5419,4.514,4.5096,4.4663,4.4076,0.0,0.0,0.0,0.0,0.0,0.0,0.0,3.6129,3.8221,3.9514,3.8599,3.7516,3.6637,3.6265,3.6079,3.6079,3.5808,3.5368,3.4793,3.4184,3.344,3.2544,3.1529,3.07,3.0125,2.8907,2.8586,0.0,0.0,2.9304,2.9875,0.0,0.0,0.0,0.0,3.1865,3.2072,3.2783,3.3183,3.3348,3.3678,3.41,3.4651,3.5844,3.6597,3.7165,3.8303,3.8707,3.8707,3.8707,3.8707,3.8707,3.8707,3.8707,3.8707,3.8707,3.8707,3.8707,3.8707,3.8707,3.8707,3.8707,3.8707,3.8707,3.8707,3.8894,3.9205,3.9529,4.0788,4.2066,4.2931,4.2816,4.2585,0.0,0.0,0.0,0.0,0.0,0.0,0.0,0.0,0.0,0.0,0.0,0.0,0.0,0.0,0.0,4.1191,4.2285,4.3164,4.3672,0.0,4.6113,4.7324,4.6641,4.6612,4.7212,4.6368,4.5935,4.5834,4.5738,4.5643,4.5586,4.5586,4.5586,4.5586,4.5381,4.5302,4.5263,4.5096,4.4919,4.4757,4.4535,4.4243,4.3986,3.0633,0.0,2.8831,0.0,3.3634,3.5504,3.5504,3.7175,3.8887,3.9969,3.8853,3.7364,3.5791,3.5622,3.5504,3.5216,3.5453,3.5148,3.4032,3.3474,3.2611,3.1258,3.07,0.0,2.9786,2.8941,2.8907,2.9786,2.9465,0.0,0.0,0.0,0.0,0.0,3.1584,3.2051,3.2709,3.2893,3.3293,3.3807,3.3807,3.4137,3.478,3.5881,3.6652,3.7276,3.8322,3.8707,3.8707,3.8707,3.8707,3.8707,3.8707,3.8707,3.8707,3.8707,3.8707,3.8707,3.8707,3.8707,3.8707,3.8707,3.8707,3.8707,3.8707,3.8961,3.9439,4.01,4.1284,4.2374,4.2989,4.3297,4.3374,0.0,0.0,0.0,0.0,0.0,0.0,0.0,0.0,0.0,0.0,0.0,0.0,0.0,0.0,0.0,0.0,4.2207,0.0,0.0,0.0,0.0,0.0,0.0,4.6192,4.6084,4.5951,4.586,4.5796,4.5643,4.5586,4.5586,4.5586,4.5531,4.5438,4.5201,4.5052,4.4919,4.4682,4.4527,4.4392,4.4087,4.3924,4.3836,3.1413,3.0433,3.0791,3.4741,3.5474,3.5504,3.5504,3.8076,4.007,4.007,4.0054,3.8903,3.5943,3.5622,3.5233,3.4286,3.5064,3.4996,3.3508,3.2983,3.2256,0.0,0.0,3.0497,2.9025,2.9702,2.9719,2.8991,0.0,0.0,3.0125,0.0,3.1411,3.1825,3.2264,3.2745,3.3214,3.3606,3.3788,3.3807,3.3807,3.3807,3.399,3.5661,3.6303,3.6523,3.8138,3.8707,3.8707,3.8707,3.8707,3.8707,3.8707,3.8707,3.8707,3.8707,3.8707,3.8707,3.8707,3.8707,3.8707,3.8707,3.8707,3.8707,3.8707,3.9181,4.0025,4.1466,4.247,4.3085,4.3104,4.3739,4.4028,4.3239,0.0,0.0,0.0,0.0,0.0,0.0,0.0,0.0,0.0,0.0,0.0,0.0,0.0,0.0,0.0,0.0,0.0,4.3691,4.5371,0.0,4.6308,4.6166,4.6102,4.6103,4.5892,4.5796,4.5796,4.5643,4.5586,4.5586,4.5586,4.5419,4.5096,4.5096,4.4896,4.4624,4.4606,4.4364,4.4016,4.3998,4.3804,4.3532,3.1835,3.1155,3.1884,3.4966,3.4008,3.2796,3.2796,3.5169,3.7732,3.9833,3.8311,3.6671,3.5723,3.4709,3.4387,0.0,3.4235,3.3423,0.0,3.2611,3.1833,3.0514,3.0446,3.0226,2.9753,2.9482,2.9482,2.9753,0.0,0.0,0.0,3.1089,3.1411,3.1825,3.2282,3.2745,3.3214,3.3625,3.3807,3.3807,3.3807,3.4137,3.4743,3.5862,3.6633,3.7257,3.8322,3.8707,3.8707,3.8707,3.8707,3.8707,3.8707,3.8707,3.8707,3.8707,3.8707,3.8707,3.8707,3.8707,3.8707,3.8707,3.8707,3.8707,3.8707,3.9181,4.0025,4.1485,4.2027,4.2412,4.2989,4.3316,4.3393,4.3143,0.0,0.0,0.0,0.0,0.0,0.0,0.0,0.0,0.0,4.186,0.0,0.0,0.0,0.0,0.0,0.0,0.0,0.0,4.5117,0.0,4.6289,4.6174,4.6046,4.5969,4.5853,4.5757,4.5643,4.5605,4.5586,4.5586,4.5586,4.5419,4.5074,4.4849,4.4535,4.4165,4.3962,4.3758,4.3646,4.3646,4.3597,4.3497,3.2256,3.1697,3.2004,3.3724,3.2632,3.1482,3.1482,3.2946,3.5053,3.8019,3.6772,3.5622,3.5622,3.4793,0.0,3.4506,3.4083,3.3322,3.2205,3.1968,3.1461,3.0548,3.0514,3.0378,3.0125,0.0,0.0,3.0514,3.0514,3.0751,3.119,3.119,3.1524,3.2074,3.2384,3.284,3.3437,3.3707,3.3807,3.3807,3.3807,3.41,3.4651,3.5495,3.6321,3.7147,3.7955,3.8432,3.8707,3.8707,3.8707,3.8707,3.8707,3.8707,3.8707,3.8707,3.8707,3.8707,3.8707,3.8707,3.8707,3.8707,3.8707,3.8854,3.9388,4.0146,4.1028,4.2076,4.2527,4.272,4.2624,4.3124,4.3335,4.272,0.0,4.2797,0.0,0.0,0.0,0.0,0.0,0.0,0.0,4.2771,0.0,0.0,0.0,0.0,0.0,0.0,0.0,4.4961,4.5312,0.0,4.6284,4.6113,4.5978,4.5911,4.5776,4.568,4.5586,4.5586,4.5586,4.5586,4.5476,4.5222,4.4896,4.4508,4.4165,4.3804,4.3563,4.3497,4.3497,4.3497,4.3497,4.3497,3.2377,3.1875,0.0,0.0,3.1482,0.0,3.1482,3.1482,3.2501,3.527,3.5622,3.5622,3.5622,3.5622,3.4895,3.3068,0.0,0.0,0.0,3.1224,3.119,3.119,3.114,0.0,3.0192,3.0751,3.1072,3.1123,3.1173,3.119,3.119,3.119,3.1657,3.2484,3.2484,3.2996,3.3807,3.3807,3.3807,3.3807,3.3807,3.3807,3.3899,3.478,3.5605,3.6413,3.7257,3.8065,3.8707,3.8707,3.8707,3.8707,3.8707,3.8707,3.8707,3.8707,3.8707,3.8707,3.8707,3.8707,3.8707,3.8707,3.8719,3.9095,4.0578,4.1724,4.2622,4.3015,4.3701,4.3739,4.2181,4.3124,4.3624,4.2047,4.2431,4.2643,4.1816,0.0,0.0,0.0,0.0,0.0,0.0,4.3668,4.3437,0.0,0.0,0.0,0.0,0.0,4.4178,4.5058,4.5877,4.6296,4.6289,4.6026,4.5883,4.5873,4.5699,4.5586,4.5586,4.5586,4.5586,4.5586,4.5243,4.4919,4.4553,4.4165,4.3804,4.3497,4.3497,4.3497,4.3497,4.3497,4.3497,4.3479,0.0,0.0,3.1482,3.1482,3.1482,3.1482,3.1482,3.1482,3.2501,3.527,3.5622,3.5622,3.5622,3.5622,3.5436,3.4962,3.3795,3.2763,3.211,3.1495,3.119,3.119,3.0666,3.0548,3.092,3.0006,2.9786,3.0362,3.092,3.119,3.119,3.119,3.1657,3.2484,3.2484,3.2996,3.3807,3.3807,3.3807,3.3807,3.3807,3.3807,3.3954,3.544,3.6119,3.6486,3.79,3.8542,3.8707,3.8707,3.8707,3.8707,3.8707,3.8707,3.8707,3.8707,3.8707,3.8707,3.8707,3.8707,3.8707,3.8707,3.8855,3.9341,4.0608,4.1269,4.1896,4.2881,4.3258,4.3258,4.2874,4.2566,4.2258,4.1873,4.1412,4.1027,4.0835,0.0,0.0,0.0,4.297,4.3429,4.4316,4.4563,4.4336,0.0,0.0,0.0,0.0,0.0,4.4996,4.5957,4.6102,4.6162,4.6152,4.5975,4.5825,4.568,4.5605,4.5586,4.5586,4.5586,4.5586,4.5586,4.5243,4.4919,4.4553,4.4165,4.3804,4.3497,4.3497,4.3497,4.3497,4.3497,4.3497,4.3444,3.0258,3.0866,3.1482,3.1482,3.1482,3.1482,3.1482,3.1482,3.2501,3.527,3.5622,3.5622,3.5622,3.5622,3.5622,3.5622,3.3271,3.1782,3.1782,3.141,3.119,3.119,3.0818,3.0784,3.119,3.0412,3.0192,3.0598,3.1004,3.119,3.119,3.119,3.1657,3.2484,3.2484,3.2996,3.3807,3.3807,3.3807,3.3807,3.3807,3.3807,3.3899,3.4798,3.5385,3.5826,3.6707,3.7496,3.8138,3.8138,3.8479,3.8855,3.875,3.8773,3.8855,3.875,3.8707,3.8707,3.8707,3.8707,3.8719,3.8855,3.9415,4.0134,4.0912,4.1913,4.2869,4.3511,4.397,4.4124,4.372,4.297,4.2258,4.1873,4.1066,4.0489,4.0489,4.0489,0.0,4.2893,4.3278,4.3892,4.5133,4.546,4.5234,4.4355,0.0,0.0,4.4812,4.5124,4.5544,4.6099,4.605,4.6015,4.6015,4.5906,4.5766,4.5586,4.599,4.599,4.5605,4.6009,4.597,4.5568,4.5096,4.4776,4.4553,4.4004,4.3679,4.3497,4.3497,4.3497,4.3497,4.3497,4.3321,4.3087,3.0746,3.1255,3.1482,3.1482,3.1482,3.1482,3.1482,3.1838,3.2971,3.5316,3.5622,3.5622,3.5622,3.5622,3.5622,3.5622,3.3186,3.1562,3.1376,3.136,3.1309,3.119,3.1038,3.1038,3.119,3.119,3.114,3.1021,3.114,3.119,3.119,3.1252,3.1714,3.2517,3.2583,3.3057,3.3807,3.3807,3.3807,3.3807,3.3807,3.3807,3.3807,3.3935,3.4412,3.5027,3.5284,3.6285,3.7526,3.7695,3.8349,3.9044,3.8844,3.8923,3.9063,3.8792,3.8707,3.8707,3.8707,3.8707,3.8799,3.9203,4.0096,4.1037,4.1566,4.3043,4.4335,4.447,4.5066,4.5355,4.4624,4.372,4.2893,4.2277,4.1219,4.0546,4.0681,0.0,4.1331,4.2912,4.341,4.424,4.5783,4.6156,4.5996,4.5254,4.5879,0.0,0.0,4.5543,4.5892,4.5853,4.5861,4.5881,4.5881,4.5819,4.5719,4.5605,4.649,4.6432,4.5624,4.6509,4.6413,4.5568,4.4877,4.458,4.4527,4.3791,4.3497,4.3497,4.3497,4.3497,4.3497,4.3497,4.3214,4.2788,2.8293,2.9998,3.1482,3.1482,3.1482,3.1482,3.1482,3.3479,3.5115,3.5515,3.5622,3.5622,3.5622,3.5622,3.5622,3.5622,3.4455,3.3254,3.2188,3.2121,3.1833,3.1224,3.0378,3.0311,3.1173,3.119,3.0886,3.0277,3.0886,3.119,3.119,3.1545,3.2004,3.2517,3.2903,3.3361,3.3807,3.3807,3.3807,3.3807,3.3807,3.3807,3.3862,3.4559,3.488,3.5174,3.6597,3.7276,3.7629,3.8563,3.8979,3.9099,3.9063,3.9072,3.9063,3.8792,3.8707,3.8707,3.8707,3.8707,3.8927,3.9956,4.0553,4.1358,4.3092,4.3905,4.4509,4.524,4.5509,4.5547,4.5413,4.4143,4.3278,4.3816,4.1989,4.0758,4.1489,0.0,4.2133,4.3079,4.4052,4.5047,4.5973,4.6216,4.623,4.6113,4.6211,4.6134,4.5745,4.5834,4.5815,4.5643,4.5767,4.5819,4.5819,4.5695,4.5605,4.5605,4.649,4.6432,4.5624,4.6509,4.6413,4.5568,4.4877,4.458,4.4527,4.3791,4.3497,4.3497,4.3497,4.3497,4.3497,4.3497,4.3444,4.325,2.8592,2.9056,2.94,2.94,2.94,2.9879,3.1258,3.3836,3.5622,3.5622,3.5622,3.5622,3.5622,3.5622,3.5622,3.5622,3.5216,3.437,3.2983,3.2138,3.1546,3.1207,3.0751,3.0717,3.119,3.119,3.1021,3.0683,3.1021,3.119,3.119,3.1603,3.2057,3.2517,3.2983,3.3419,3.3807,3.3807,3.3807,3.3807,3.3807,3.3807,3.3844,3.4211,3.4357,3.4523,3.5734,3.6555,3.7211,3.8133,3.8857,3.9339,3.9178,3.9099,3.9063,3.8792,3.9019,3.9239,3.8817,3.9116,3.9639,3.9907,4.0552,4.1409,4.2527,4.3555,4.4412,4.4816,4.5259,4.5586,4.5586,4.422,4.3355,4.4162,4.2162,0.0,0.0,4.2213,4.2479,4.3753,4.4492,4.5224,4.6025,4.6222,4.6308,4.6308,4.6308,4.6214,4.6022,4.5935,4.5834,4.5719,4.5699,4.5699,4.5699,4.5624,4.5586,4.5605,4.649,4.6432,4.5624,4.6509,4.6413,4.5568,4.4877,4.458,4.4527,4.3791,4.3497,4.3497,4.3497,4.3497,4.3497,4.3497,4.3339,4.2976,2.8906,2.8329,2.7625,2.7625,2.7625,2.8472,3.112,3.3836,3.5622,3.5622,3.5622,3.5622,3.5622,3.5622,3.5622,3.5622,3.5622,3.4844,3.3017,3.1833,3.119,3.119,3.119,3.119,3.119,3.119,3.119,3.119,3.119,3.119,3.123,3.1733,3.2161,3.2517,3.3075,3.3522,3.3807,3.3807,3.3807,3.3807,3.3807,3.3807,3.3825,3.4009,3.4082,3.4211,3.5238,3.615,3.7002,3.7906,3.8758,3.9438,3.9186,3.9099,3.91,3.8994,3.968,4.0262,3.9326,3.9692,4.0325,4.0302,4.11,4.203,4.2554,4.3682,4.4605,4.4605,4.5124,4.5586,4.5586,4.4374,4.3643,4.447,0.0,0.0,0.0,4.2945,4.3108,4.438,4.495,4.5479,4.6087,4.6245,4.6308,4.6308,4.6308,4.6245,4.6104,4.5963,4.5857,4.5757,4.5643,4.5586,4.5586,4.5586,4.5586,4.5605,4.649,4.6432,4.5624,4.6509,4.6413,4.5568,4.4877,4.458,4.4527,4.3791,4.3497,4.3497,4.3497,4.3497,4.3497,4.3497,4.325,4.277,2.7745,2.7685,2.7625,2.7625,2.7625,2.8472,3.112,3.3836,3.5622,3.5622,3.5622,3.5622,3.5622,3.5622,3.5622,3.5622,3.5622,3.4404,3.1546,3.1258,3.119,3.119,3.119,3.119,3.119,3.119,3.119,3.119,3.119,3.119,3.123,3.2056,3.2484,3.255,3.339,3.3762,3.3807,3.3807,3.3807,3.3807,3.3807,3.3807,3.388,3.4633,3.4899,3.51,3.6725,3.736,3.7595,3.8655,3.9069,3.9133,3.9125,3.9099,3.9212,3.9676,4.091,4.182,4.0529,4.0282,4.0712,4.2053,4.3039,4.398,4.507,4.5413,4.549,4.549,4.5547,4.5586,4.5586,4.4836,4.4489,4.5355,0.0,0.0,4.4085,4.4388,4.4544,4.4666,4.5586,4.6228,4.6285,4.6289,4.6308,4.6308,4.6308,4.6234,4.6104,4.5969,4.5813,4.5622,4.5605,4.5586,4.5586,4.5586,4.5586,4.5605,4.649,4.6432,4.5624,4.6509,4.6413,4.5568,4.4877,4.458,4.4527,4.3791,4.3497,4.3497,4.3497,4.3497,4.3497,4.3497,4.3479,4.3286,2.7625,2.7625,2.7625,2.7625,2.8841,3.079,3.3599,3.4911,3.5622,3.5622,3.4015,3.2882,3.2882,3.2882,3.2882,3.2882,3.2882,3.2408,3.1258,3.119,3.119,3.119,3.119,3.119,3.119,3.119,3.119,3.119,3.119,3.119,3.123,3.2092,3.2484,3.255,3.3419,3.3807,3.3807,3.3807,3.3807,3.3807,3.3807,3.3807,3.3899,3.4679,3.499,3.521,3.689,3.7739,3.8165,3.8846,3.9238,3.9364,3.9178,3.8971,3.901,3.9706,3.9974,4.0277,4.1164,4.1792,4.2259,4.2536,4.3388,4.4267,4.4703,4.5201,4.5586,4.5586,4.5586,4.5586,4.5586,4.4893,4.4586,4.5451,0.0,4.3605,4.5028,4.4927,4.4916,4.551,4.6,4.6308,4.6308,4.6308,4.6308,4.6308,4.6308,4.6273,4.6227,4.6014,4.5804,4.5622,4.5586,4.5586,4.5586,4.5586,4.5586,4.5586,4.5932,4.5913,4.5605,4.5932,4.5913,4.5568,4.4877,4.458,4.4527,4.3791,4.3497,4.3497,4.3497,4.3497,4.3497,4.3497,4.3497,4.341,2.7625,2.7625,2.7625,2.7625,2.9613,3.1884,3.3914,3.4235,3.4235,3.4235,3.2459,3.119,3.119,3.119,3.119,3.119,3.119,3.119,3.119,3.119,3.119,3.119,3.119,3.119,3.119,3.119,3.119,3.119,3.119,3.119,3.123,3.2092,3.2484,3.255,3.3419,3.3807,3.3807,3.3807,3.3807,3.3807,3.3807,3.3954,3.4284,3.511,3.5587,3.5973,3.7367,3.8201,3.8681,3.8973,3.9238,3.9389,3.916,3.909,3.9184,3.9735,3.9755,3.996,4.1656,4.2767,4.3402,4.3195,4.3922,4.4701,4.4701,4.5163,4.5586,4.5586,4.5586,4.5586,4.5586,4.5105,4.4893,4.549,4.4643,4.4316,4.5622,4.5387,4.5321,4.6005,4.6215,4.6308,4.6308,4.6308,4.6308,4.6308,4.6308,4.6282,4.6234,4.6028,4.5834,4.568,4.5605,4.5586,4.5586,4.5586,4.5586,4.5586,4.5586,4.5586,4.5586,4.5586,4.5586,4.5568,4.4877,4.458,4.4527,4.3791,4.3497,4.3497,4.3497,4.3497,4.3497,4.3497,4.3497,4.341,2.7625,2.7625,2.7625,2.761,2.9613,3.119,3.119,3.119,3.119,3.119,3.119,3.119,3.119,3.119,3.119,3.119,3.119,3.119,3.119,3.119,3.119,3.119,3.119,3.119,3.119,3.119,3.119,3.119,3.119,3.119,3.123,3.2092,3.2484,3.255,3.3419,3.3807,3.3807,3.3807,3.3807,3.3807,3.3807,3.4284,3.5082,3.5973,3.6798,3.7588,3.8414,3.8884,3.908,3.908,3.9125,3.9125,3.908,3.946,3.9882,3.9882,4.0677,4.1651,4.2008,4.2909,4.3842,4.4226,4.4951,4.5586,4.5586,4.5586,4.5586,4.5586,4.5586,4.5586,4.5586,4.5586,4.5586,4.5586,4.5586,4.5643,4.5776,4.5854,4.5947,4.6095,4.6215,4.6308,4.6308,4.6308,4.6308,4.6308,4.6308,4.623,4.6113,4.5975,4.5873,4.5796,4.568,4.5586,4.5586,4.5586,4.5586,4.5586,4.5586,4.5586,4.5586,4.5586,4.5586,4.5568,4.4877,4.458,4.4527,4.3791,4.3497,4.3497,4.3497,4.3497,4.3497,4.3497,4.3497,4.341,2.7625,2.7625,2.811,2.9832,3.074,3.119,3.119,3.119,3.119,3.119,3.119,3.119,3.119,3.119,3.119,3.119,3.119,3.119,3.119,3.119,3.119,3.119,3.119,3.119,3.119,3.119,3.119,3.119,3.119,3.119,3.123,3.2092,3.2484,3.255,3.3419,3.3807,3.3807,3.3807,3.3807,3.3807,3.3807,3.3935,3.4321,3.5752,3.645,3.6846,3.8423,3.9178,3.9438,3.9438,3.9599,3.9731,3.9238,3.909,3.9099,3.9275,3.9575,4.0221,4.198,4.2231,4.2392,4.3918,4.4951,4.5586,4.5586,4.5586,4.5586,4.5586,4.5586,4.5586,4.5586,4.5586,4.5586,4.5586,4.5586,4.5643,4.5834,4.5893,4.5971,4.6201,4.6278,4.6308,4.6308,4.6308,4.6308,4.6308,4.6308,4.623,4.6113,4.5974,4.5874,4.5796,4.568,4.5586,4.5586,4.5586,4.5586,4.5586,4.5586,4.5586,4.5586,4.5586,4.5586,4.5568,4.4877,4.458,4.4527,4.3791,4.3497,4.3497,4.3497,4.3497,4.3497,4.3497,4.3497,4.3406,2.7061,2.8207,2.9464,3.0958,3.119,3.119,3.119,3.119,3.119,3.119,3.119,3.119,3.119,3.119,3.119,3.119,3.119,3.119,3.119,3.119,3.119,3.119,3.119,3.119,3.119,3.119,3.119,3.119,3.1351,3.1449,3.1449,3.235,3.2777,3.2809,3.3476,3.3807,3.3807,3.3807,3.3807,3.3807,3.3807,3.399,3.4394,3.5404,3.6241,3.7073,3.8226,3.9126,3.9797,3.9797,3.9922,4.0002,3.9481,3.9171,3.9073,3.9257,3.9389,3.9807,4.122,4.182,4.2296,4.3513,4.4451,4.5182,4.5509,4.5586,4.5586,4.5586,4.5586,4.5586,4.5586,4.5586,4.5586,4.5586,4.5586,4.568,4.5873,4.5893,4.5995,4.6268,4.6308,4.6308,4.6308,4.6308,4.6308,4.6308,4.6308,4.6241,4.6112,4.5963,4.5875,4.5813,4.568,4.5586,4.5586,4.5586,4.5586,4.5586,4.5586,4.5586,4.5586,4.5586,4.5586,4.5568,4.5033,4.4707,4.4553,4.3943,4.3631,4.3497,4.3497,4.3497,4.3497,4.3497,4.3497,4.3369,2.6052,2.878,3.0869,3.114,3.119,3.119,3.119,3.119,3.119,3.119,3.119,3.119,3.119,3.119,3.119,3.119,3.119,3.119,3.119,3.119,3.119,3.119,3.119,3.119,3.119,3.119,3.119,3.119,3.1603,3.1789,3.1825,3.2777,3.3214,3.3214,3.3606,3.3807,3.3807,3.3807,3.3807,3.3807,3.3807,3.4247,3.4899,3.4954,3.614,3.7821,3.7921,3.8878,4.0101,4.0101,4.0081,4.0002,3.9709,3.9576,3.9576,3.9622,3.9859,4.012,4.0215,4.1586,4.3028,4.3162,4.3758,4.4528,4.5393,4.5586,4.5586,4.5586,4.5586,4.5586,4.5586,4.5586,4.5586,4.5586,4.5586,4.568,4.5873,4.5893,4.5995,4.6268,4.6308,4.6308,4.6308,4.6308,4.6308,4.6308,4.6308,4.625,4.6116,4.5983,4.5871,4.5796,4.568,4.5586,4.5586,4.5586,4.5586,4.5586,4.5586,4.5586,4.5586,4.5586,4.5586,4.5586,4.5222,4.4872,4.4553,4.4117,4.3772,4.3497,4.3497,4.3497,4.3497,4.3497,4.3497,4.3369,2.4399,2.6108,2.8416,3.0784,3.119,3.119,3.119,3.119,3.119,3.119,3.119,3.119,3.119,3.119,3.119,3.119,3.119,3.119,3.119,3.119,3.119,3.119,3.119,3.119,3.119,3.119,3.119,3.119,3.1603,3.1789,3.1825,3.2777,3.3214,3.3214,3.3606,3.3807,3.3807,3.3807,3.3807,3.3807,3.3807,3.3899,3.4137,3.4752,3.5835,3.7082,3.7967,3.9075,4.0101,4.0101,3.9922,3.9709,3.9622,3.9414,3.9314,3.9859,4.0042,4.0292,4.12,4.1764,4.2412,4.3701,4.4162,4.4528,4.5393,4.5586,4.5586,4.5586,4.5586,4.5586,4.5586,4.5586,4.5586,4.5586,4.5586,4.568,4.5873,4.5893,4.5995,4.6268,4.6308,4.6308,4.6308,4.6308,4.6308,4.6308,4.6308,4.625,4.6116,4.5957,4.5877,4.5796,4.568,4.5586,4.5586,4.5586,4.5586,4.5586,4.5586,4.5586,4.5586,4.5586,4.5586,4.5568,4.4966,4.4657,4.4553,4.3868,4.3582,4.3497,4.3497,4.3497,4.3497,4.3497,4.3497,4.3224,2.3744,2.4496,2.6265,2.9551,3.0717,3.119,3.119,3.119,3.119,3.119,3.119,3.119,3.119,3.119,3.119,3.119,3.119,3.119,3.119,3.119,3.119,3.119,3.119,3.119,3.119,3.119,3.1291,3.147,3.1933,3.2037,3.1936,3.2985,3.3294,3.2948,3.3524,3.3807,3.3807,3.3807,3.3807,3.3807,3.3807,3.3807,3.3899,3.4679,3.5697,3.6864,3.7981,3.922,4.0304,4.0304,4.0176,4.0024,4.0024,3.9925,3.9844,4.0194,4.0304,4.0513,4.1533,4.2104,4.272,4.3989,4.4605,4.5028,4.549,4.5586,4.5586,4.5586,4.5586,4.5586,4.5586,4.5586,4.5586,4.5586,4.5586,4.568,4.5873,4.5893,4.5995,4.6268,4.6308,4.6308,4.6308,4.6308,4.6308,4.6308,4.6308,4.6214,4.6016,4.5951,4.5834,4.5719,4.5624,4.5586,4.5586,4.5586,4.5586,4.5586,4.5586,4.5586,4.5586,4.5586,4.5586,4.5586,4.5243,4.4896,4.4553,4.4165,4.3823,4.3497,4.3497,4.3497,4.3442,4.3057,4.2433,4.1556,2.3595,2.3969,2.5358,2.8795,3.0378,3.119,3.119,3.119,3.119,3.119,3.119,3.119,3.119,3.119,3.119,3.119,3.119,3.119,3.119,3.119,3.119,3.119,3.119,3.119,3.119,3.119,3.1389,3.1789,3.2264,3.2392,3.2227,3.3314,3.344,3.2834,3.3495,3.3807,3.3807,3.3807,3.3807,3.3807,3.3807,3.3807,3.3862,3.4559,3.5528,3.6713,3.7796,3.9204,4.0489,4.0457,4.0422,4.0422,4.0422,4.0422,4.046,4.0681,4.0719,4.0912,4.1797,4.2643,4.347,4.4124,4.4951,4.5586,4.5586,4.5586,4.5586,4.5586,4.5586,4.5586,4.5586,4.5586,4.5586,4.5586,4.5586,4.568,4.5873,4.5893,4.5995,4.6268,4.6308,4.6308,4.6308,4.6308,4.6308,4.6308,4.6308,4.6175,4.5916,4.5902,4.5815,4.5605,4.5586,4.5586,4.5586,4.5586,4.5586,4.5586,4.5586,4.5586,4.5586,4.5586,4.5586,4.5586,4.555,4.5161,4.458,4.4527,4.4095,4.3497,4.3497,4.3406,4.3185,4.2396,4.1167,3.9772,2.3595,2.545,2.7843,3.0446,3.1055,3.119,3.119,3.119,3.119,3.119,3.119,3.119,3.119,3.119,3.119,3.119,3.119,3.119,3.119,3.119,3.119,3.119,3.119,3.119,3.119,3.119,3.1389,3.1789,3.2264,3.2692,3.3051,3.357,3.3733,3.3642,3.3752,3.3807,3.3807,3.3807,3.3807,3.3807,3.3807,3.3807,3.3807,3.3917,3.481,3.6125,3.7039,3.8709,4.0473,4.0232,4.0158,4.0158,4.0158,4.0158,4.0348,4.1327,4.1623,4.1816,4.2701,4.3528,4.4162,4.4259,4.4951,4.5586,4.5586,4.5586,4.5586,4.5586,4.5586,4.5586,4.5586,4.5586,4.5586,4.5586,4.5586,4.568,4.5873,4.5893,4.5995,4.6268,4.6308,4.6308,4.6308,4.6308,4.6308,4.6308,4.6308,4.6175,4.5916,4.5902,4.5815,4.5605,4.5586,4.5586,4.5586,4.5586,4.5586,4.5586,4.5586,4.5586,4.5586,4.5586,4.5586,4.5586,4.5283,4.4943,4.458,4.4233,4.3868,4.3497,4.3497,4.3057,4.2359,4.157,4.0689,3.9772,2.4471,2.6608,2.8607,2.94,3.0446,3.1004,3.0429,3.0835,3.119,3.119,3.119,3.119,3.119,3.119,3.119,3.119,3.119,3.119,3.119,3.119,3.119,3.119,3.119,3.119,3.119,3.1411,3.1733,3.2196,3.1943,3.1946,3.2192,3.2828,3.2889,3.2485,3.3403,3.355,3.3164,3.3605,3.3532,3.3183,3.3623,3.3807,3.3844,3.4302,3.4858,3.5559,3.672,3.8309,3.98,3.9684,3.9938,4.0321,4.0321,4.0321,4.0528,4.1514,4.1797,4.2085,4.3412,4.4028,4.4412,4.4893,4.4951,4.4989,4.549,4.522,4.5009,4.549,4.5586,4.5586,4.5586,4.5586,4.5586,4.5586,4.5586,4.568,4.5873,4.5893,4.5995,4.6268,4.6308,4.6308,4.6308,4.6308,4.6308,4.6308,4.6308,4.6175,4.5916,4.5902,4.5815,4.5605,4.5586,4.5586,4.5586,4.5586,4.5586,4.5586,4.5586,4.5586,4.5586,4.5586,4.5586,4.5586,4.5243,4.4919,4.4553,4.4165,4.3545,4.2818,4.2818,4.2066,4.091,4.0561,3.9918,3.9056]},{"header":{"parameterUnit":"m.s-1","parameterCategory":1,"la1":30.6,"la2":28.766,"lo1":-90.7593,"lo2":-88.6598,"dx":0.0162,"dy":0.0183,"nx":116,"ny":114,"refTime":"2023-02-04T06:00:00:Z","depth":0,"parameterNumber":3,"parameterNumberName":"V-component_of_WINDS"},"data":[0.0,0.0,0.0,0.0,0.0,0.0,0.0,0.0,0.0,0.0,0.0,0.0,0.0,0.0,0.0,0.0,0.0,0.0,0.0,0.0,0.0,0.0,0.0,0.0,0.0,0.0,0.0,0.0,0.0,0.0,0.0,0.0,0.0,0.0,0.0,0.0,0.0,0.0,0.0,0.0,0.0,0.0,0.0,0.0,0.0,0.0,0.0,0.0,0.0,0.0,0.0,0.0,0.0,0.0,0.0,0.0,0.0,0.0,0.0,0.0,0.0,0.0,0.0,0.0,0.0,0.0,0.0,0.0,0.0,0.0,0.0,0.0,0.0,0.0,0.0,0.0,0.0,0.0,0.0,0.0,0.0,0.0,0.0,0.0,0.0,0.0,0.0,0.0,0.0,0.0,0.0,0.0,0.0,0.0,0.0,0.0,0.0,0.0,0.0,0.0,0.0,0.0,0.0,0.0,0.0,0.0,0.0,0.0,0.0,0.0,0.0,0.0,0.0,0.0,0.0,0.0,0.0,0.0,0.0,0.0,0.0,0.0,0.0,0.0,0.0,0.0,0.0,0.0,0.0,0.0,0.0,0.0,0.0,0.0,0.0,0.0,0.0,0.0,0.0,0.0,0.0,0.0,0.0,0.0,0.0,0.0,0.0,0.0,0.0,0.0,0.0,0.0,0.0,0.0,0.0,0.0,0.0,0.0,0.0,0.0,0.0,0.0,0.0,0.0,0.0,0.0,0.0,0.0,0.0,0.0,0.0,0.0,0.0,0.0,0.0,0.0,0.0,0.0,0.0,0.0,0.0,0.0,0.0,0.0,0.0,0.0,0.0,0.0,0.0,0.0,0.0,0.0,0.0,0.0,0.0,0.0,0.0,0.0,0.0,0.0,0.0,0.0,0.0,0.0,0.0,0.0,0.0,0.0,0.0,0.0,0.0,0.0,0.0,0.0,0.0,0.0,0.0,0.0,0.0,0.0,0.0,0.0,0.0,0.0,0.0,0.0,0.0,0.0,0.0,0.0,0.0,0.0,0.0,0.0,0.0,0.0,0.0,0.0,0.0,0.0,0.0,0.0,0.0,0.0,0.0,0.0,0.0,0.0,0.0,0.0,0.0,0.0,0.0,0.0,0.0,0.0,0.0,0.0,0.0,0.0,0.0,0.0,0.0,0.0,0.0,0.0,0.0,0.0,0.0,0.0,0.0,0.0,0.0,0.0,0.0,0.0,0.0,0.0,0.0,0.0,0.0,0.0,0.0,0.0,0.0,0.0,0.0,0.0,0.0,0.0,0.0,0.0,0.0,0.0,0.0,0.0,0.0,0.0,0.0,0.0,0.0,0.0,0.0,0.0,0.0,0.0,0.0,0.0,0.0,0.0,0.0,0.0,0.0,0.0,0.0,0.0,0.0,0.0,0.0,0.0,0.0,0.0,0.0,0.0,0.0,0.0,0.0,0.0,0.0,0.0,0.0,0.0,0.0,0.0,0.0,0.0,0.0,0.0,0.0,0.0,0.0,0.0,0.0,0.0,0.0,0.0,0.0,0.0,0.0,0.0,0.0,0.0,0.0,0.0,0.0,0.0,0.0,0.0,0.0,0.0,0.0,0.0,0.0,0.0,0.0,0.0,0.0,0.0,0.0,0.0,0.0,0.0,0.0,0.0,0.0,0.0,0.0,0.0,0.0,0.0,0.0,0.0,0.0,0.0,0.0,0.0,0.0,0.0,0.0,0.0,0.0,0.0,0.0,0.0,0.0,0.0,0.0,0.0,0.0,0.0,0.0,0.0,0.0,0.0,0.0,0.0,0.0,0.0,0.0,0.0,0.0,0.0,0.0,0.0,0.0,0.0,0.0,0.0,0.0,0.0,0.0,0.0,0.0,0.0,0.0,0.0,0.0,0.0,0.0,0.0,0.0,0.0,0.0,0.0,0.0,0.0,0.0,0.0,0.0,0.0,0.0,0.0,0.0,0.0,0.0,0.0,0.0,0.0,0.0,0.0,0.0,0.0,0.0,0.0,0.0,0.0,0.0,0.0,0.0,0.0,0.0,0.0,0.0,0.0,0.0,0.0,0.0,0.0,0.0,0.0,0.0,0.0,0.0,0.0,0.0,0.0,0.0,0.0,0.0,0.0,0.0,0.0,0.0,0.0,0.0,0.0,0.0,0.0,0.0,0.0,0.0,0.0,0.0,0.0,0.0,0.0,0.0,0.0,0.0,0.0,0.0,0.0,0.0,0.0,0.0,0.0,0.0,0.0,0.0,0.0,0.0,0.0,0.0,0.0,0.0,0.0,0.0,0.0,0.0,0.0,0.0,0.0,0.0,0.0,0.0,0.0,0.0,0.0,0.0,0.0,0.0,0.0,0.0,0.0,0.0,0.0,0.0,0.0,0.0,0.0,0.0,0.0,0.0,0.0,0.0,0.0,0.0,0.0,0.0,0.0,0.0,0.0,0.0,0.0,0.0,0.0,0.0,0.0,0.0,0.0,0.0,0.0,0.0,0.0,0.0,0.0,0.0,0.0,0.0,0.0,0.0,0.0,0.0,0.0,0.0,0.0,0.0,0.0,0.0,0.0,0.0,0.0,0.0,0.0,0.0,0.0,0.0,0.0,0.0,0.0,0.0,0.0,0.0,0.0,0.0,0.0,0.0,0.0,0.0,0.0,0.0,0.0,0.0,0.0,0.0,0.0,0.0,0.0,0.0,0.0,0.0,0.0,0.0,0.0,0.0,0.0,0.0,0.0,0.0,0.0,0.0,0.0,0.0,0.0,0.0,0.0,0.0,0.0,0.0,0.0,0.0,0.0,0.0,0.0,0.0,0.0,0.0,0.0,0.0,0.0,0.0,0.0,0.0,0.0,0.0,0.0,0.0,0.0,0.0,0.0,0.0,0.0,0.0,0.0,0.0,0.0,0.0,0.0,0.0,0.0,0.0,0.0,0.0,0.0,0.0,0.0,0.0,0.0,0.0,0.0,0.0,0.0,0.0,0.0,0.0,0.0,0.0,0.0,0.0,0.0,0.0,0.0,0.0,0.0,0.0,0.0,0.0,0.0,0.0,0.0,0.0,0.0,0.0,0.0,0.0,0.0,0.0,0.0,0.0,0.0,0.0,0.0,0.0,0.0,0.0,0.0,0.0,0.0,0.0,0.0,0.0,0.0,0.0,0.0,0.0,0.0,0.0,0.0,0.0,0.0,0.0,0.0,0.0,0.0,0.0,0.0,0.0,0.0,0.0,0.0,0.0,0.0,0.0,0.0,0.0,0.0,0.0,0.0,0.0,0.0,0.0,0.0,0.0,0.0,0.0,0.0,0.0,0.0,0.0,0.0,0.0,0.0,0.0,0.0,0.0,0.0,0.0,0.0,0.0,0.0,0.0,0.0,0.0,0.0,0.0,0.0,0.0,0.0,0.0,0.0,0.0,0.0,0.0,0.0,0.0,0.0,0.0,0.0,0.0,0.0,0.0,0.0,0.0,0.0,0.0,0.0,0.0,0.0,0.0,0.0,0.0,0.0,0.0,0.0,0.0,0.0,0.0,0.0,0.0,0.0,0.0,0.0,0.0,0.0,0.0,0.0,0.0,0.0,0.0,0.0,0.0,0.0,0.0,0.0,0.0,0.0,0.0,0.0,0.0,0.0,0.0,0.0,0.0,0.0,0.0,0.0,0.0,0.0,0.0,0.0,0.0,0.0,0.0,0.0,0.0,0.0,0.0,0.0,0.0,0.0,0.0,0.0,0.0,0.0,0.0,0.0,0.0,0.0,0.0,0.0,0.0,0.0,0.0,0.0,0.0,0.0,0.0,0.0,0.0,0.0,0.0,0.0,0.0,0.0,0.0,0.0,0.0,0.0,0.0,0.0,0.0,0.0,0.0,0.0,0.0,0.0,0.0,0.0,0.0,0.0,0.0,0.0,0.0,0.0,0.0,0.0,0.0,0.0,0.0,0.0,0.0,0.0,0.0,0.0,0.0,0.0,0.0,0.0,0.0,0.0,0.0,0.0,0.0,0.0,0.0,0.0,0.0,0.0,0.0,0.0,0.0,0.0,0.0,0.0,0.0,0.0,0.0,0.0,0.0,0.0,0.0,0.0,0.0,0.0,0.0,0.0,0.0,0.0,0.0,0.0,0.0,0.0,0.0,0.0,0.0,0.0,0.0,0.0,0.0,0.0,0.0,0.0,0.0,0.0,0.0,0.0,0.0,0.0,0.0,0.0,0.0,0.0,0.0,0.0,0.0,0.0,0.0,0.0,0.0,0.0,0.0,0.0,0.0,0.0,0.0,0.0,0.0,0.0,0.0,0.0,0.0,0.0,0.0,0.0,0.0,0.0,0.0,0.0,0.0,0.0,0.0,0.0,0.0,0.0,0.0,0.0,0.0,0.0,0.0,0.0,0.0,0.0,0.0,0.0,0.0,0.0,0.0,0.0,0.0,0.0,0.0,0.0,0.0,0.0,0.0,0.0,0.0,0.0,0.0,0.0,0.0,0.0,0.0,0.0,0.0,0.0,0.0,0.0,0.0,0.0,0.0,0.0,0.0,0.0,0.0,0.0,0.0,0.0,0.0,0.0,0.0,0.0,0.0,0.0,0.0,0.0,0.0,0.0,0.0,0.0,0.0,0.0,0.0,0.0,0.0,0.0,0.0,0.0,0.0,0.0,0.0,0.0,0.0,0.0,0.0,0.0,0.0,0.0,0.0,0.0,0.0,0.0,0.0,0.0,0.0,0.0,0.0,0.0,0.0,0.0,0.0,0.0,0.0,0.0,0.0,0.0,0.0,0.0,0.0,0.0,0.0,0.0,0.0,0.0,0.0,0.0,0.0,0.0,0.0,0.0,0.0,0.0,0.0,0.0,0.0,0.0,0.0,0.0,0.0,0.0,0.0,0.0,0.0,0.0,0.0,0.0,0.0,0.0,0.0,0.0,0.0,0.0,0.0,0.0,0.0,0.0,0.0,0.0,0.0,0.0,0.0,0.0,0.0,0.0,0.0,0.0,0.0,0.0,0.0,0.0,0.0,0.0,0.0,0.0,0.0,0.0,0.0,0.0,0.0,0.0,0.0,0.0,0.0,0.0,0.0,0.0,0.0,0.0,0.0,0.0,0.0,0.0,0.0,0.0,0.0,0.0,0.0,0.0,0.0,0.0,0.0,0.0,0.0,0.0,0.0,0.0,0.0,0.0,0.0,0.0,0.0,0.0,0.0,0.0,0.0,0.0,0.0,0.0,0.0,0.0,0.0,0.0,0.0,0.0,0.0,0.0,0.0,0.0,0.0,0.0,0.0,0.0,0.0,0.0,0.0,0.0,0.0,0.0,0.0,0.0,0.0,0.0,0.0,0.0,0.0,0.0,0.0,0.0,0.0,0.0,0.0,0.0,0.0,0.0,0.0,0.0,0.0,0.0,0.0,0.0,0.0,0.0,0.0,0.0,0.0,0.0,0.0,0.0,0.0,0.0,0.0,0.0,0.0,0.0,0.0,0.0,0.0,0.0,0.0,0.0,0.0,0.0,0.0,0.0,0.0,0.0,0.0,0.0,0.0,0.0,0.0,0.0,0.0,0.0,0.0,0.0,0.0,0.0,0.0,0.0,0.0,0.0,0.0,0.0,0.0,0.0,0.0,0.0,0.0,0.0,0.0,0.0,0.0,0.0,0.0,0.0,0.0,0.0,0.0,0.0,0.0,0.0,0.0,0.0,0.0,0.0,0.0,0.0,0.0,0.0,0.0,0.0,0.0,0.0,0.0,0.0,0.0,0.0,0.0,0.0,0.0,0.0,0.0,0.0,0.0,0.0,0.0,0.0,0.0,0.0,0.0,0.0,0.0,0.0,0.0,0.0,0.0,0.0,0.0,0.0,0.0,0.0,0.0,0.0,0.0,0.0,0.0,0.0,0.0,0.0,0.0,0.0,0.0,0.0,0.0,0.0,0.0,0.0,0.0,0.0,0.0,0.0,0.0,0.0,0.0,0.0,0.0,0.0,0.0,0.0,0.0,0.0,0.0,0.0,0.0,0.0,0.0,0.0,0.0,0.0,0.0,0.0,0.0,0.0,0.0,0.0,0.0,0.0,0.0,0.0,0.0,0.0,0.0,0.0,0.0,0.0,0.0,0.0,0.0,0.0,1.1906,0.0,0.0,0.0,0.0,0.0,0.0,0.0,0.0,0.0,0.0,0.0,0.0,0.0,0.0,0.0,0.0,0.0,0.0,0.0,0.0,0.0,0.0,0.0,0.0,0.0,0.0,0.0,0.0,0.0,0.0,0.0,0.0,0.0,0.0,0.0,0.0,0.0,0.0,0.0,0.0,0.0,0.0,0.0,0.0,0.0,0.0,0.0,0.0,0.0,0.0,0.0,0.0,0.0,0.0,0.0,0.0,0.0,0.0,0.0,0.0,0.0,0.0,0.0,0.0,0.0,0.0,0.0,0.0,0.0,0.0,0.0,0.0,0.0,0.0,0.0,0.0,0.0,0.0,0.0,0.0,0.0,0.0,0.0,0.0,0.0,0.0,0.0,0.0,0.0,0.0,0.0,0.0,0.0,0.0,0.0,0.0,0.0,0.0,0.0,0.0,0.0,0.0,0.0,0.0,0.0,0.0,0.0,0.0,0.0,0.0,0.0,0.0,0.0,0.0,0.0,0.0,1.2608,0.0,0.0,0.0,0.0,0.0,0.0,0.0,0.0,0.0,0.0,0.0,0.0,0.0,0.0,0.0,0.0,0.0,0.0,0.0,0.0,0.0,0.0,0.0,0.0,0.0,0.0,0.0,0.0,0.0,0.0,0.0,0.0,0.0,0.0,0.0,0.0,0.0,0.0,0.0,0.0,0.0,0.0,0.0,0.0,0.0,0.0,0.0,0.0,0.0,0.0,0.0,0.0,0.0,0.0,0.0,0.0,0.0,0.0,0.0,0.0,0.0,0.0,0.0,0.0,0.0,0.0,0.0,0.0,0.0,0.0,0.0,0.0,0.0,0.0,0.0,0.0,0.0,0.0,0.0,0.0,0.0,0.0,0.0,0.0,0.0,0.0,0.0,0.0,0.0,0.0,0.0,0.0,0.0,0.0,0.0,0.0,0.0,0.0,0.0,0.0,0.0,0.0,0.0,0.0,0.0,0.0,0.0,0.0,0.0,0.0,1.4637,1.5743,1.6309,1.6365,1.4828,1.4251,1.4316,0.0,0.0,0.0,0.0,0.0,0.0,0.0,0.0,0.0,0.0,0.0,0.0,0.0,0.0,0.0,0.0,0.0,0.0,0.0,0.0,0.0,0.0,0.0,0.0,0.0,0.0,0.0,0.0,0.0,0.0,0.0,0.0,0.0,0.0,0.0,0.0,0.0,0.0,0.0,0.8434,0.9078,0.9677,1.015,1.0101,0.0,0.0,0.0,0.0,0.0,0.0,0.0,0.0,0.0,0.0,0.0,0.0,0.0,0.0,0.0,0.0,0.0,0.0,0.0,0.0,0.0,0.0,0.0,0.0,0.0,0.0,0.0,0.0,0.0,0.0,0.0,0.0,0.0,0.0,0.0,0.0,0.0,0.0,0.0,0.0,0.0,0.0,0.0,1.3288,1.312,0.0,0.0,0.0,0.0,0.0,0.0,0.0,0.0,0.0,0.0,0.0,0.0,0.0,0.0,1.3672,1.3992,1.443,1.4939,1.5931,1.6678,1.7156,1.7853,1.8637,1.9306,1.8715,0.0,1.5205,1.4897,0.0,0.0,0.0,0.0,0.0,0.0,0.0,0.0,0.0,0.0,0.0,0.0,0.0,0.0,0.0,0.0,0.0,0.0,0.0,0.0,0.0,0.0,0.0,0.0,0.0,0.0,0.0,0.0,0.0,0.0,0.0,0.0,0.0,0.0,0.0,0.0,0.8274,0.9309,0.9897,1.069,1.1219,1.15,1.172,1.1897,1.2024,1.23,0.0,0.0,0.0,0.0,0.0,0.0,0.0,0.0,0.0,0.0,0.0,0.0,0.0,0.0,0.0,0.0,0.0,0.0,0.0,0.0,0.0,0.0,0.0,0.0,0.0,0.0,0.0,0.0,0.0,0.0,0.0,0.0,0.0,0.0,0.0,0.0,0.0,0.0,0.0,1.3211,1.3117,1.267,1.2957,1.2976,0.0,0.0,0.0,0.0,0.0,0.0,0.0,0.0,0.0,1.4588,1.4983,1.515,1.4983,1.6069,1.6857,1.7243,1.8574,1.9374,1.964,2.0198,2.0664,2.1006,2.083,1.9814,1.8223,1.707,1.6201,1.5458,0.0,0.0,0.0,0.0,0.0,1.1051,0.0,0.0,0.0,0.0,0.0,0.0,0.0,0.0,0.0,0.0,0.0,0.0,0.0,0.0,0.0,0.597,0.0,0.0,0.0,0.0,0.0,0.0,0.0,0.0,0.0,0.0,0.0,0.0,1.0463,1.1258,1.1748,1.2365,1.2763,1.2954,1.3351,1.3434,1.3196,1.2935,1.2821,0.0,0.0,0.0,0.0,0.0,0.0,0.0,0.0,0.0,0.0,0.0,0.0,0.0,0.0,0.0,0.0,0.0,0.0,0.0,0.0,0.0,0.0,0.0,0.0,0.0,0.0,0.0,0.0,0.0,0.0,0.0,0.0,0.0,0.0,0.0,0.0,0.0,0.0,1.3086,1.2984,1.2287,1.3184,1.3501,0.0,0.0,0.0,0.0,0.0,0.0,1.5869,1.6426,1.6712,1.659,1.7002,1.718,1.7179,1.8397,1.9268,1.9706,2.0918,2.1621,2.1728,2.206,2.2207,2.2207,2.2207,2.1593,2.0512,1.8753,1.7567,1.676,1.5347,1.4552,0.0,1.3057,1.2296,1.1917,0.0,0.0,0.0,0.0,0.0,0.0,0.0,0.0,0.0,0.0,0.0,0.0,0.0,0.0,0.4976,0.6962,0.6985,0.7155,0.0,0.0,0.0,0.0,0.0,0.0,0.0,0.0,0.0,1.1456,1.1547,1.2385,1.3922,1.3961,1.435,1.4987,1.4977,1.4832,1.4586,1.4087,1.3944,1.3982,0.0,0.0,0.0,0.0,0.0,0.0,0.0,0.0,0.0,0.0,0.0,0.0,0.0,0.0,0.0,0.0,0.0,0.0,0.0,0.0,0.0,0.0,0.0,0.0,0.0,0.0,0.0,0.0,0.0,0.0,0.0,0.0,0.0,0.0,0.0,0.0,0.0,0.0,0.0,1.2231,1.3701,0.0,0.0,0.0,0.0,1.629,1.7214,1.7647,1.7321,1.8057,1.863,1.9141,1.9487,2.0119,2.0895,2.1033,2.1471,2.2298,2.2422,2.2656,2.3047,2.3066,2.3076,2.3076,2.3076,2.2187,2.0594,1.8841,1.7877,1.7252,1.4808,1.4062,1.4326,1.3498,1.312,1.3126,0.0,0.0,0.0,0.0,0.0,0.0,0.0,0.0,0.0,0.0,0.0,0.0,0.0,0.589,0.7238,0.8981,0.9995,1.0288,0.954,0.0,0.0,0.0,0.0,0.0,0.0,0.0,1.0056,1.2454,1.2681,1.3256,1.4087,1.4424,1.4661,1.4934,1.4934,1.5321,1.6009,1.5231,1.4976,1.5066,1.4379,1.4193,0.0,0.0,0.0,0.0,0.0,0.0,0.0,0.0,0.0,0.0,0.0,0.0,0.0,0.0,0.0,0.0,0.0,0.0,0.0,0.0,0.0,0.0,0.0,0.0,0.0,0.0,0.0,0.0,0.0,0.0,0.0,0.0,0.0,0.0,0.0,0.0,0.0,1.4188,1.6089,0.0,0.0,1.8541,1.8955,1.8935,1.9528,1.9758,1.9468,1.999,2.0508,2.0947,2.1631,2.2012,2.206,2.2871,2.3301,2.334,2.3613,2.3818,2.3965,2.3965,2.3965,2.3945,2.3672,2.2824,2.1437,1.9722,1.8608,1.7804,1.6186,1.5715,1.5735,1.475,1.4342,1.4342,0.0,0.0,0.0,0.0,0.0,0.0,0.0,0.0,0.0,0.0,0.0,0.35,0.5479,0.687,0.8457,1.0424,1.1402,1.1551,1.0599,0.0,0.0,0.0,0.0,0.0,0.0,0.9822,1.1213,1.3525,1.3799,1.415,1.457,1.4863,1.5078,1.5205,1.5059,1.5976,1.7532,1.7002,1.6459,1.5955,1.5632,1.5558,1.5607,0.0,0.0,0.0,0.0,0.0,0.0,0.0,0.0,0.0,0.0,0.0,0.0,0.0,0.0,0.0,0.0,0.0,0.0,0.0,0.0,0.0,0.0,0.0,0.0,0.0,0.0,0.0,0.0,0.0,0.0,0.0,0.0,0.0,0.0,0.0,1.5088,1.5882,1.8223,1.9908,2.0249,2.0902,2.1384,2.1528,2.1764,2.1788,2.1683,2.207,2.2441,2.2734,2.3281,2.3437,2.3154,2.3994,2.4277,2.4004,2.4287,2.4414,2.4414,2.4414,2.4414,2.4404,2.3654,2.2686,2.1427,1.9742,1.8493,1.7439,1.6613,1.6306,1.6216,1.5518,1.5257,1.5257,0.0,0.0,0.0,0.0,0.0,0.0,0.0,0.0,0.0,0.0,0.2917,0.3829,0.6155,0.7054,0.8524,1.1096,1.0957,1.0784,1.0822,1.004,0.0,0.0,0.0,0.0,1.0945,1.1155,1.2401,1.4785,1.4785,1.5,1.541,1.542,1.5654,1.6105,1.5694,1.6839,1.9093,1.9454,1.849,1.6757,1.7627,1.7334,1.6369,0.0,0.0,0.0,0.0,0.0,0.0,0.0,0.0,0.0,0.0,0.0,0.0,0.0,0.0,0.0,0.0,0.0,0.0,0.0,0.0,0.0,0.0,0.0,0.0,0.0,0.0,0.0,0.0,0.0,0.0,0.0,0.0,0.0,1.3771,1.4876,1.6157,1.7416,2.0019,2.1657,2.1643,2.2488,2.3313,2.4038,2.3987,2.3846,2.3859,2.4209,2.4434,2.4414,2.4443,2.4443,2.4414,2.4351,2.4361,2.4434,2.4361,2.4361,2.4453,2.4453,2.4453,2.4361,2.3008,2.1752,2.0465,1.8793,1.7423,1.6259,1.5945,1.5832,1.5832,1.5832,1.5832,1.5832,0.0,0.0,0.0,0.0,0.0,0.0,0.0,0.0,0.0,0.0,0.3673,0.4843,0.6514,0.8404,1.0128,1.1485,1.1752,1.1871,1.1836,0.0,0.0,0.0,0.0,0.0,1.291,1.2501,1.31,1.4785,1.4785,1.5,1.542,1.5732,1.5947,1.6135,1.6921,1.7974,1.9197,2.0941,2.1369,2.0854,2.0208,1.9449,1.8644,0.0,0.0,0.0,0.0,0.0,0.0,0.0,0.0,0.0,0.0,0.0,0.0,0.0,0.0,0.0,0.0,0.0,0.0,0.0,0.0,0.0,0.0,0.0,0.0,0.0,0.0,0.0,0.0,0.0,0.0,0.0,0.0,1.3921,1.4022,1.6321,1.8666,2.0584,2.2751,2.4633,2.6083,2.6399,2.6438,2.6255,2.5798,2.5132,2.432,2.4658,2.4746,2.4424,2.5039,2.5068,2.4424,2.4049,2.4209,2.4893,2.4209,2.4359,2.5371,2.5371,2.5371,2.5256,2.3551,2.2136,2.0925,1.9131,1.7654,1.6533,1.6025,1.5832,1.5832,1.5832,1.5832,1.5832,0.0,0.0,0.0,0.0,0.0,0.0,0.0,0.0,0.0,0.0,0.4077,0.543,0.7098,0.9024,1.0632,1.1584,1.2052,1.1944,1.1176,0.0,0.0,0.0,0.0,1.1865,1.366,1.3355,1.3755,1.5049,1.4697,1.4732,1.5078,1.5007,1.5355,1.6069,1.6986,1.8441,2.0317,2.2112,2.3228,2.3787,2.3363,2.2607,2.1575,1.9989,1.9396,1.9302,1.8002,1.7922,1.8315,1.7237,0.0,0.0,0.0,0.0,0.0,0.0,0.0,0.0,0.0,0.0,0.0,0.0,0.0,0.0,0.0,0.0,0.0,0.0,0.0,0.0,0.0,0.0,0.0,0.0,1.498,1.6472,1.6698,1.8328,2.0368,2.2727,2.4267,2.582,2.7533,2.7383,2.7119,2.69,2.6337,2.5688,2.5225,2.5654,2.5771,2.5518,2.5385,2.5098,2.4598,2.3582,2.3618,2.4692,2.3448,2.389,2.5635,2.5118,2.4815,0.0,2.3144,2.1736,2.0411,1.8692,1.7503,0.0,0.0,0.0,0.0,0.0,1.5832,1.5832,0.0,0.0,0.0,0.0,0.0,0.0,0.0,0.0,0.0,0.0,0.0,0.5876,0.7616,0.9157,1.0452,1.1484,1.1869,1.1379,0.0,0.0,0.0,1.0364,1.1139,1.224,1.3771,1.3923,1.4419,1.5303,1.4643,1.4362,1.4622,1.3835,1.4391,1.5954,1.6677,1.8711,2.1782,2.3186,2.4572,2.5782,2.6603,2.6004,2.4388,2.2682,2.2338,2.2408,1.9553,1.8893,1.9244,1.8074,0.0,0.0,0.0,0.0,0.0,0.0,0.0,0.0,0.0,0.0,0.0,0.0,0.0,0.0,0.0,0.0,0.0,0.0,0.0,0.0,0.0,0.0,0.0,0.0,1.7456,1.9956,2.0717,2.0752,2.1635,2.4054,2.5049,2.5923,2.7023,2.6515,2.6375,2.6743,2.62,2.6006,2.6435,0.0,0.0,0.0,0.0,2.4805,2.4551,2.2854,2.2565,2.3852,2.2477,2.302,2.543,2.4205,2.3692,2.3592,2.2156,2.0735,1.9502,1.7908,1.7021,1.672,1.6359,1.6219,1.6192,1.5925,1.5832,0.0,0.0,0.0,0.0,0.0,0.0,0.0,0.0,0.0,0.0,0.2379,0.464,0.6537,0.7271,0.9019,1.0565,1.1539,1.105,1.038,0.0,0.0,1.0991,1.0931,1.262,1.3801,1.4424,1.4878,1.5018,1.4814,1.4691,1.4388,1.4056,1.4205,1.4883,1.599,1.8302,2.0105,2.1686,2.5061,2.6596,2.7015,2.8414,2.7245,2.4537,2.4164,2.3789,2.3227,2.16,2.1677,2.2215,2.0065,1.9872,2.0052,1.7531,0.0,0.0,0.0,0.0,0.0,0.0,0.0,0.0,0.0,0.0,0.0,0.0,0.0,0.0,0.0,0.0,0.0,0.0,0.0,0.0,1.7503,1.9234,2.0885,2.2871,2.3133,2.3683,2.4968,2.5643,2.6402,2.7511,2.6997,2.6754,2.7223,2.6671,2.6445,2.6875,2.7305,0.0,2.5307,2.5276,2.4536,2.2961,2.1509,2.1337,2.2523,0.0,0.0,2.4097,2.3791,2.3692,2.3583,2.1049,1.9826,1.9517,1.8137,1.7328,1.6987,1.6213,1.5912,1.5905,1.5852,1.5832,1.5832,0.0,0.0,0.0,0.0,0.0,0.0,0.0,0.0,0.0,0.0,0.4024,0.5876,0.6933,0.8491,0.9741,1.0517,1.0202,0.0,0.0,1.137,1.2135,1.2846,1.3903,1.4766,1.541,1.52,1.5017,1.497,1.414,1.3613,1.3491,1.3791,1.46,1.5939,1.8743,2.0862,2.25,2.5783,2.7443,2.7852,2.9098,2.8592,2.7036,2.6363,2.5616,2.4738,2.3203,2.2923,2.3125,2.1559,2.0897,2.0487,1.8931,1.7656,1.6299,0.0,0.0,0.0,0.0,0.0,0.0,0.0,0.0,0.0,0.0,0.0,0.0,0.0,0.0,1.3314,0.0,0.0,1.6832,1.9587,2.1156,2.257,2.3884,2.4287,2.4794,2.5622,2.5644,2.6002,2.714,2.6796,2.6653,2.6885,2.6942,2.7119,2.7334,2.7084,2.6435,2.5459,2.4216,2.3019,2.2088,2.0508,2.0595,2.2274,2.1465,2.2014,2.3692,2.2976,2.2265,2.1558,2.0238,1.922,1.8492,1.7728,1.7281,1.7094,1.65,1.6179,1.6052,1.6052,1.5959,1.5832,0.0,0.0,0.0,0.0,0.0,0.0,0.0,0.0,0.0,0.0,0.3388,0.4946,0.6325,0.7661,0.8686,0.0,0.0,0.0,0.0,1.2083,1.3105,1.4557,1.4865,1.5429,1.6276,1.5334,1.4916,1.5168,1.3601,1.2902,1.2941,1.3282,1.4299,1.5911,1.8884,2.1305,2.3479,2.6476,2.8162,2.8868,2.9773,3.0018,2.9584,2.8381,2.7363,2.6283,2.444,2.3514,2.307,2.249,2.1336,2.0158,2.0075,1.8772,1.6915,1.4824,1.4034,0.0,0.0,0.0,0.0,0.0,0.0,0.0,0.0,0.0,1.4292,1.3614,1.4023,1.462,1.5111,1.6855,1.8959,2.1084,2.2811,2.3965,2.4473,2.4844,2.5337,2.5971,2.5535,2.5595,2.6588,2.6533,2.6455,2.6631,2.7275,2.7591,2.7448,2.6541,2.5818,2.5261,2.2927,2.1472,2.1137,1.9676,1.9927,2.1687,2.0658,2.1146,2.2876,2.1752,2.0641,1.9627,1.9317,1.861,1.7562,1.7328,1.7235,1.7208,1.6967,1.67,1.6433,1.6319,1.6119,1.5905,0.0,0.0,0.0,0.0,0.0,0.0,0.0,0.0,0.0,0.0,0.0,0.0,0.0,0.0,0.0,0.0,0.0,0.0,1.1032,1.2493,1.3727,1.4586,1.5498,1.6037,1.6296,1.5603,1.5055,1.4552,1.3767,1.3085,1.2405,1.3556,1.4677,1.592,1.9263,2.1822,2.3876,2.7987,3.0044,3.062,3.1701,3.1383,3.016,2.9392,2.8367,2.7081,2.4991,2.3572,2.2641,2.242,2.1651,2.078,2.0608,1.9563,1.7916,1.5424,0.0,1.2674,1.1892,1.1963,1.2666,1.4189,1.4609,1.5146,0.0,0.0,1.5973,1.5863,1.6111,1.653,1.707,1.8763,2.0697,2.2553,2.3378,2.4072,2.4883,2.5039,2.529,2.573,2.5635,2.581,2.6389,2.6427,2.6699,2.7471,2.7617,2.7276,2.6299,2.6127,2.4922,2.2145,2.1805,2.0916,1.9707,1.9448,1.9259,1.8919,1.9939,2.0339,2.0033,1.993,1.9731,1.9524,1.8297,1.7793,1.7582,1.7549,1.7535,1.7528,1.7495,1.7308,1.6987,1.6466,1.6253,1.6186,0.0,0.0,0.0,0.0,0.0,0.0,0.0,0.0,0.0,0.0,0.0,0.0,0.0,0.0,0.0,0.0,0.0,0.0,1.0978,1.2811,1.4365,1.54,1.5869,1.6104,1.6075,1.5252,1.4569,1.4026,1.3742,1.3455,1.3171,1.5024,1.6598,1.7951,2.0757,2.3131,2.513,2.8531,2.998,3.0078,3.1246,3.1032,2.9834,2.8063,2.6703,2.5562,2.4246,2.3014,0.0,0.0,2.0309,1.9735,1.961,1.8638,1.7169,1.5625,1.455,0.0,1.2929,1.3193,0.0,0.0,1.5732,1.6471,1.7144,1.7117,1.6898,1.6723,1.7172,1.7921,1.9225,2.0452,2.19,0.0,2.4248,2.4756,2.5371,2.5234,2.5137,2.5322,2.5352,2.5527,2.5967,2.6465,2.6904,2.7256,2.6978,2.6541,2.6145,2.448,2.2919,2.1699,2.0816,2.0033,1.9366,2.0256,2.0925,2.1235,2.1768,2.1834,2.1352,2.0514,1.9677,1.8954,1.832,1.811,1.8096,1.7909,1.7836,1.7816,1.7649,1.7508,1.7348,1.6934,1.6673,1.6506,0.0,0.0,0.0,0.0,0.0,0.0,0.0,0.0,0.0,0.0,0.0,0.0,0.0,0.0,0.0,0.0,0.0,0.0,0.0,1.2431,1.4192,1.5654,1.5998,1.6014,1.5725,1.507,1.4479,1.4099,1.3908,1.4026,1.4309,1.6349,1.8098,1.9618,2.2017,2.4192,2.6176,2.8937,2.9929,2.979,3.0699,3.0283,2.8838,2.6663,2.4728,2.307,2.2596,2.1632,0.0,0.0,1.8591,1.8272,1.8226,1.7461,1.6396,1.5635,1.4941,1.4346,1.3965,0.0,0.0,1.6074,1.7197,1.8122,1.8184,1.8308,1.8382,1.8303,1.8683,1.9487,2.0736,2.1722,0.0,2.4142,2.4687,2.5088,2.5664,2.5352,2.5068,2.5068,2.4961,2.5068,2.5508,2.6435,2.6846,2.6531,2.6319,2.5709,2.4931,2.2814,2.1358,2.1038,1.9924,1.9591,2.004,2.1031,2.2201,2.3293,2.2849,2.2445,2.21,2.0614,1.9449,1.849,1.849,1.849,1.847,1.8243,1.8096,1.8003,1.7796,1.7655,1.7555,1.7348,1.7081,1.6814,0.0,0.0,0.0,0.0,0.0,0.0,0.0,0.0,0.0,0.0,0.0,0.0,0.0,0.0,0.0,0.0,0.0,0.0,0.0,1.121,1.2894,1.4766,1.5625,1.5818,1.533,1.5197,1.5147,1.5163,1.4502,1.4739,1.5756,1.7042,1.8536,2.0103,2.26,2.4796,2.6752,2.931,3.0394,3.0427,3.0692,2.9329,2.704,2.5707,2.3033,1.995,1.9938,0.0,0.0,0.0,1.6703,1.6655,1.6759,1.6489,0.0,1.5537,1.4521,0.0,0.0,0.0,1.5898,1.8018,1.9199,2.0176,2.1484,2.1137,2.0734,2.1051,2.115,2.1257,2.1275,2.2217,2.3349,2.4277,2.4424,2.4736,2.5615,2.5352,2.5068,2.5068,2.4697,2.4609,0.0,2.626,2.654,2.5512,2.5811,2.482,2.1919,2.1699,2.0923,1.9475,1.9366,2.0033,2.1472,2.1586,2.2201,2.3402,2.186,2.1023,2.0715,1.9229,1.849,1.849,1.849,1.849,1.849,1.8477,1.8303,1.8043,1.8036,1.7849,1.7582,1.7569,1.7382,1.7094,0.0,0.0,0.0,0.0,0.0,0.0,0.0,0.0,0.0,0.0,0.0,0.0,0.0,0.0,0.0,0.0,0.0,0.0,0.0,1.0927,1.2686,1.3896,1.4756,1.5115,1.4926,1.4874,1.4669,1.4318,1.4773,1.5223,1.5887,1.7223,1.9183,2.1512,2.2677,2.4611,2.7172,2.8607,2.8922,2.8338,2.788,2.6863,2.5256,2.2232,2.0347,1.9045,0.0,0.0,0.0,0.0,0.0,0.0,1.4614,0.0,0.0,1.4189,0.0,0.0,0.0,0.0,1.793,1.9521,2.0576,2.1312,2.1502,2.1277,2.1139,2.1266,2.0878,2.0698,2.1504,2.2264,2.291,2.3477,2.4287,2.4951,2.5254,2.5166,2.4863,2.4287,2.4336,0.0,0.0,0.0,0.0,2.5017,2.4459,2.3456,2.1684,2.0702,1.9924,1.9366,1.9366,2.0148,2.1586,2.2589,2.3207,2.364,2.2201,2.0925,1.9842,1.9293,1.9072,1.9072,1.9072,1.9072,1.9058,1.8858,1.8718,1.8611,1.8417,1.8277,1.8183,1.8183,1.7996,1.7702,0.0,0.0,0.0,0.0,0.0,0.0,0.0,0.0,0.0,0.0,0.0,0.0,0.0,0.0,0.0,0.0,0.0,0.0,0.0,0.0,1.1626,1.2539,1.3402,1.3681,1.3292,1.3433,1.3405,1.3247,1.3987,1.4941,1.6107,1.7145,1.9123,2.1747,2.2262,2.3851,2.6181,2.6734,2.6437,2.5464,2.4809,2.3695,2.2171,1.9459,1.7959,0.0,0.0,0.0,0.0,0.0,0.0,0.0,0.0,0.0,0.0,0.0,0.0,0.0,0.0,1.8252,1.9639,2.0937,2.1807,2.2291,2.2007,2.1933,2.1896,2.1757,2.12,2.0866,2.1506,2.1738,2.2012,2.2598,2.3389,2.3958,2.407,2.4032,2.3851,2.3511,2.371,0.0,0.0,0.0,0.0,2.407,2.3636,2.2704,2.0916,1.9924,1.9366,1.9366,1.9366,2.0148,2.1586,2.2589,2.3039,2.3039,2.2032,2.0809,1.9366,1.9366,1.9366,1.9366,1.9366,1.9366,1.9352,1.9158,1.9018,1.8905,1.8718,1.8577,1.849,1.849,1.837,1.8163,0.0,0.0,0.0,0.0,0.0,0.0,0.0,0.0,0.0,0.0,0.0,0.0,0.0,0.0,0.0,0.0,0.0,0.0,0.0,0.0,0.0,1.0812,1.162,1.168,1.0836,1.1195,1.158,1.2044,1.2458,1.3866,1.6265,1.6632,1.8202,2.0759,2.1254,2.2345,2.3778,2.3778,2.315,2.2096,2.1506,2.0024,1.8044,1.7405,0.0,0.0,0.0,0.0,0.0,0.0,0.0,0.0,0.0,0.0,0.0,0.0,0.0,1.7236,1.8926,2.001,2.0967,2.2227,2.2842,2.3135,2.3135,2.3105,2.2959,2.2568,2.209,2.1631,0.0,0.0,2.085,2.1738,2.1963,2.215,2.2517,2.2164,2.2218,0.0,0.0,0.0,0.0,0.0,0.0,2.2618,0.0,2.234,1.9591,1.9366,1.9366,1.9366,1.9366,2.0148,2.1586,2.1586,2.1586,2.1586,2.1472,2.0694,1.9366,1.9366,1.9366,1.9366,1.9366,1.9366,1.9366,1.9366,1.9199,1.8945,1.8945,1.8778,1.8537,1.8537,1.8531,1.847,0.0,0.0,0.0,0.0,0.0,0.0,0.0,0.0,0.0,0.0,0.0,0.0,0.0,0.0,0.0,0.0,0.0,0.0,0.0,0.0,0.0,0.0,0.0,0.0,0.0,0.0,0.0,0.0,1.1826,1.2742,1.4314,1.4428,1.5905,1.8548,1.8677,1.9522,2.0865,2.0865,2.0476,1.9786,0.0,1.7877,1.6791,0.0,0.0,0.0,0.0,0.0,0.0,0.0,0.0,0.0,0.0,0.0,1.5303,0.0,0.0,1.8945,2.0361,2.1367,2.2168,2.2822,2.3057,2.3135,2.3135,2.2656,2.2178,2.207,2.0928,1.9922,0.0,0.0,0.0,2.1738,2.2949,0.0,2.4315,2.3864,0.0,0.0,0.0,2.4007,2.4427,2.4497,0.0,0.0,2.1994,2.0751,1.9455,1.9366,1.9366,1.9366,1.9366,2.0148,2.1586,2.1586,2.1586,2.1586,2.0479,1.9815,1.9366,1.9366,1.9366,1.9366,1.9366,1.9366,1.9366,1.9366,1.9325,1.9252,1.9252,1.9212,1.9145,1.9145,1.9005,1.8804,0.0,0.0,0.0,0.0,0.0,0.0,0.0,0.0,0.0,0.0,0.0,0.0,0.0,0.0,0.0,0.0,0.0,0.0,0.0,0.0,0.0,0.0,0.0,0.0,0.0,0.0,0.0,0.0,0.0,0.0,1.3137,1.3565,1.4858,1.6833,1.6833,1.7407,1.8342,1.8103,0.0,0.0,0.0,0.0,0.0,0.0,0.0,0.0,0.0,0.0,0.0,0.0,0.0,1.3955,1.4904,1.5859,1.6807,1.8115,0.0,2.043,2.1728,2.2568,2.3125,2.3369,2.3428,2.3223,2.248,2.1943,2.1387,2.0615,1.9687,0.0,0.0,0.0,0.0,0.0,0.0,0.0,2.289,2.2266,2.175,0.0,2.2953,0.0,2.4575,2.436,2.3999,0.0,2.1914,2.0547,1.9461,1.9366,1.9366,1.9366,1.9366,1.9815,2.0587,2.0587,2.0587,2.0587,1.9815,1.9366,1.9366,1.9366,1.9366,1.9366,0.0,1.9366,1.9366,1.9366,1.9366,1.9366,1.9366,1.9366,1.9366,1.9366,1.9259,1.9098,0.0,0.0,0.0,0.0,0.0,0.0,0.0,0.0,0.0,0.0,0.0,0.0,0.0,0.0,0.0,0.0,0.0,0.0,0.0,0.0,0.0,0.0,0.0,0.0,0.0,0.0,0.0,0.0,0.0,0.0,0.0,0.0,0.0,0.0,0.0,0.0,0.0,0.0,0.0,0.0,0.0,0.0,0.0,0.0,0.0,0.0,0.0,0.0,0.0,0.0,1.4379,1.4719,1.6393,1.7617,1.8584,1.9814,2.0801,2.1748,2.293,2.3555,2.3857,2.3799,2.375,2.3271,2.1611,2.1103,2.0518,1.8887,0.0,1.8291,1.7978,0.0,1.9184,1.9821,0.0,1.9903,2.0377,1.9591,1.942,2.067,2.2376,2.3905,2.5085,2.4122,2.3492,2.3462,2.2145,2.0702,1.9482,1.9366,1.9366,1.9366,1.9366,1.9366,1.9366,1.9366,1.9366,1.9366,1.9366,1.9249,1.9127,1.9127,1.9127,1.9127,0.0,0.0,1.9366,1.9366,1.9366,1.9366,1.9366,1.9366,1.9366,1.9366,1.9366,1.9332,0.0,0.0,0.0,0.0,0.0,0.0,0.0,0.0,0.0,0.0,0.0,0.0,0.0,0.0,0.0,0.0,0.0,0.0,0.0,0.0,0.0,0.0,0.0,0.0,0.0,0.0,0.0,0.0,0.0,0.0,0.0,0.0,0.0,0.0,0.0,0.0,0.0,0.0,0.0,0.0,0.0,0.0,0.0,0.0,0.0,0.0,0.0,0.0,0.0,0.0,1.5977,1.6523,1.7813,1.9141,2.0303,2.126,2.2139,2.2939,2.3525,2.3984,2.4228,2.3877,2.3525,2.291,2.1543,2.04,0.0,0.0,0.0,1.7148,1.7441,1.7543,0.0,1.9534,0.0,0.0,0.0,0.0,2.0643,0.0,0.0,0.0,0.0,0.0,0.0,0.0,0.0,0.0,1.9366,1.9366,1.9366,1.9366,1.9366,1.9366,1.9366,1.9366,1.9366,1.9366,1.9366,1.8642,1.7443,1.7443,1.7443,1.7443,0.0,0.0,1.9366,1.9366,1.9366,1.9366,1.9366,1.9366,1.9366,1.9366,1.9366,1.9359,0.0,0.0,0.0,0.0,0.0,0.0,0.0,0.0,0.0,0.0,0.0,0.0,0.0,0.0,0.0,0.0,0.0,0.0,0.0,0.0,0.0,0.0,0.0,0.0,0.0,0.0,0.0,0.0,0.0,0.0,0.0,0.0,0.0,0.0,0.0,0.0,0.0,0.0,0.0,0.0,0.0,0.0,0.0,0.0,0.0,0.0,0.0,0.0,0.0,0.0,1.6143,1.7412,1.9375,2.0566,2.1416,2.2285,2.2988,2.3574,2.3994,2.4424,2.4658,2.4228,2.3633,2.2637,2.0674,0.0,0.0,0.0,0.0,1.6514,1.6963,0.0,0.0,0.0,0.0,0.0,0.0,0.0,0.0,0.0,0.0,0.0,0.0,0.0,0.0,0.0,0.0,0.0,1.9366,1.9366,1.9366,1.9366,1.9366,1.9366,1.9366,1.9366,1.9366,1.9366,1.9366,1.8525,1.6968,1.6968,1.6968,1.6968,0.0,0.0,1.9366,1.9366,1.9366,1.9366,1.9366,1.9366,1.9366,1.9366,1.9366,1.9366,0.0,0.0,0.0,0.0,0.0,0.0,0.0,0.0,0.0,0.0,0.0,0.0,0.0,0.0,0.0,0.0,0.0,0.0,0.0,0.0,0.0,0.0,0.0,0.0,0.0,0.0,0.0,0.0,0.0,0.0,0.0,0.0,0.0,0.0,0.0,0.0,0.0,0.0,0.0,0.0,0.0,0.0,0.0,0.0,0.0,0.0,0.0,0.0,0.0,0.0,1.5693,1.7246,1.9658,2.1084,2.2002,2.2568,2.3301,2.3994,2.4326,2.4805,2.5088,2.4551,2.3701,2.2353,1.9853,1.8555,0.0,0.0,1.5684,1.6023,1.6369,0.0,0.0,0.0,0.0,0.0,0.0,0.0,0.0,0.0,0.0,0.0,0.0,0.0,0.0,0.0,0.0,0.0,0.0,1.9366,1.9366,1.9366,1.9366,1.9366,1.9366,1.9366,1.9366,1.9366,1.901,1.8046,1.6492,1.6133,1.6133,1.6492,0.0,0.0,0.0,1.9366,1.9366,1.9366,1.9366,1.9366,1.9366,1.9366,1.9366,1.9366,0.0,0.0,0.0,0.0,0.0,0.0,0.0,0.0,0.0,0.0,0.0,0.0,0.0,0.0,0.0,0.0,0.0,0.0,0.0,0.0,0.0,0.0,0.0,0.0,0.0,0.0,0.0,0.0,0.0,0.0,0.0,0.0,0.0,0.0,0.0,0.0,0.0,0.0,0.0,0.0,0.0,0.0,0.0,0.0,0.0,0.0,0.0,0.0,0.0,0.0,0.0,1.5342,1.7168,1.9648,2.1826,2.1504,0.0,0.0,2.4404,2.5029,2.5469,2.4629,2.3486,2.1992,1.9785,0.0,0.0,1.5693,1.5439,1.5475,1.5442,1.4758,0.0,0.0,0.0,1.4683,0.0,0.0,0.0,0.0,0.0,0.0,0.0,0.0,0.0,0.0,0.0,0.0,0.0,1.9366,1.9366,1.9366,1.9366,1.9366,1.9366,1.9366,1.9366,1.9366,1.7923,1.638,1.4723,1.3287,1.3407,1.4842,0.0,0.0,0.0,1.9366,1.9366,1.9366,1.9366,1.9366,1.9366,1.9366,1.9366,1.9366,0.0,0.0,0.0,0.0,0.0,0.0,0.0,0.0,0.0,0.0,0.0,0.0,0.0,0.0,0.0,0.0,0.0,0.0,0.0,0.0,0.0,0.0,0.0,0.0,0.0,0.0,0.0,0.0,0.0,0.0,0.0,0.0,0.0,0.0,0.0,0.0,0.0,0.0,0.0,0.0,0.0,0.0,0.0,0.0,0.0,0.0,0.0,0.0,0.0,0.0,0.0,0.0,1.4912,1.6953,0.0,0.0,2.1992,2.3437,2.4209,2.5068,2.5527,2.4639,2.3066,2.1309,1.9658,0.0,1.6367,1.5576,1.541,1.5367,1.5305,1.4541,1.4109,0.0,0.0,0.0,0.0,0.0,0.0,0.0,0.0,0.0,0.0,0.0,0.0,0.0,0.0,0.0,0.0,1.9533,1.9546,1.9372,1.9366,1.9366,1.9366,1.9366,1.8887,1.7923,1.7325,1.566,1.3172,1.2453,1.3053,1.4604,0.0,0.0,0.0,1.9439,1.9472,1.9606,1.9432,1.9366,1.9366,1.9366,1.9366,1.9366,0.0,0.0,0.0,0.0,0.0,0.0,0.0,0.0,0.0,0.0,0.0,0.0,0.0,0.0,0.0,0.0,0.0,0.0,0.0,0.0,0.0,0.0,0.0,0.0,0.0,0.0,0.0,0.0,0.0,0.0,0.0,0.0,0.0,0.0,0.0,0.0,0.0,0.0,0.0,0.0,0.0,0.0,0.0,0.0,0.0,0.0,0.0,0.0,0.0,0.0,0.0,0.0,0.0,0.0,0.0,0.0,2.0908,2.2578,2.373,2.4775,2.5361,2.4609,2.2812,2.0889,0.0,0.0,1.5998,1.5498,1.541,1.5367,1.5305,1.4541,1.4082,1.4508,0.0,1.3886,0.0,0.0,0.0,0.0,0.0,0.0,0.0,0.0,0.0,0.0,0.0,0.0,0.0,1.9733,1.9666,1.9379,1.9452,1.9492,1.9492,1.9492,1.8764,1.7079,1.6526,1.4831,1.2213,1.1736,1.2573,0.0,0.0,0.0,0.0,1.9452,1.9486,1.9653,1.9446,1.9366,1.9366,1.9366,1.9366,1.9366,0.0,0.0,0.0,0.0,0.0,0.0,0.0,0.0,0.0,0.0,0.0,0.0,0.0,0.0,0.0,0.0,0.0,0.0,0.0,0.0,0.0,0.0,0.0,0.0,0.0,0.0,0.0,0.0,0.0,0.0,0.0,0.0,0.0,0.0,0.0,0.0,0.0,0.0,0.0,0.0,0.0,0.0,0.0,0.0,0.0,0.0,0.0,0.0,0.0,0.0,0.0,0.0,0.0,0.0,0.0,0.0,1.9541,2.208,2.2939,2.4102,2.4971,2.4531,2.2812,2.0889,0.0,0.0,1.5998,1.5498,1.541,1.5367,1.5305,1.4541,1.4082,1.4508,1.3817,0.0,0.0,0.0,0.0,0.0,0.0,0.0,0.0,0.0,0.0,0.0,0.0,0.0,0.0,0.0,1.9666,1.9379,1.9646,1.98,1.98,1.98,1.8935,1.7338,1.5541,1.377,1.2093,1.0539,0.0,0.0,0.0,0.0,0.0,1.9366,1.9366,1.9372,1.9366,1.9366,1.9366,1.9366,1.9366,1.9366,0.0,0.0,0.0,0.0,0.0,0.0,0.0,0.0,0.0,0.0,0.0,0.0,0.0,0.0,0.0,0.0,0.0,0.0,0.0,0.0,0.0,0.0,0.0,0.0,0.0,0.0,0.0,0.0,0.0,0.0,0.0,0.0,0.0,0.0,0.0,0.0,0.0,0.0,0.0,0.0,0.0,0.0,0.0,0.0,0.0,0.0,0.0,0.0,0.0,0.0,0.0,0.0,0.0,0.0,0.0,0.0,0.0,0.0,2.0635,2.1894,2.2646,2.1602,2.0391,1.9199,1.8213,0.0,1.5576,1.5439,1.541,1.5367,1.5305,1.5062,1.5121,1.6045,0.0,0.0,0.0,0.0,0.0,0.0,0.0,0.0,0.0,0.0,0.0,0.0,0.0,0.0,0.0,0.0,1.976,1.9666,1.9753,1.98,1.98,2.0,1.8638,1.5777,1.5099,1.33,1.0539,1.0061,0.0,0.0,0.0,0.0,0.0,1.8966,1.9486,1.9646,1.9446,1.9366,1.9366,1.9366,1.9366,1.9366,0.0,0.0,0.0,0.0,0.0,0.0,0.0,0.0,0.0,0.0,0.0,0.0,0.0,0.0,0.0,0.0,0.0,0.0,0.0,0.0,0.0,0.0,0.0,0.0,0.0,0.0,0.0,0.0,0.0,0.0,0.0,0.0,0.0,0.0,0.0,0.0,0.0,0.0,0.0,0.0,0.0,0.0,0.0,0.0,0.0,0.0,0.0,0.0,0.0,0.0,0.0,0.0,0.0,0.0,0.0,0.0,0.0,0.0,0.0,2.0033,2.0947,2.0117,1.915,0.0,0.0,0.0,1.541,1.541,1.5537,1.5689,1.5797,1.5642,1.589,1.7037,0.0,0.0,0.0,0.0,0.0,0.0,0.0,0.0,0.0,0.0,0.0,0.0,0.0,0.0,0.0,0.0,1.9853,1.996,1.996,1.996,1.996,1.9412,1.781,1.5176,1.4397,1.2444,0.9822,0.0,0.0,0.0,0.0,0.0,0.0,1.8114,1.8985,1.9613,1.8829,1.8525,1.8409,1.7812,1.7867,1.8365,0.0,0.0,0.0,0.0,0.0,0.0,0.0,0.0,0.0,0.0,0.0,0.0,0.0,0.0,0.0,0.0,0.0,0.0,0.0,0.0,0.0,0.0,0.0,0.0,0.0,0.0,0.0,0.0,0.0,0.0,0.0,0.0,0.0,0.0,0.0,0.0,0.0,0.0,0.0,0.0,0.0,0.0,0.0,0.0,0.0,0.0,0.0,0.0,0.0,0.0,0.0,0.0,0.0,0.0,0.0,0.0,0.0,0.0,0.0,0.0,0.0,0.0,0.0,0.0,0.0,0.0,0.0,1.541,1.5762,1.6211,1.6689,1.63,1.6345,1.7667,0.0,0.0,0.0,0.0,0.0,0.0,0.0,0.0,0.0,0.0,0.0,0.0,0.0,0.0,0.0,0.0,0.0,2.0227,2.0086,1.9952,1.9952,1.8366,1.6774,1.5231,1.326,1.1402,0.9822,0.0,0.0,0.0,0.0,0.0,0.0,1.6727,1.7689,1.8887,1.7443,1.685,1.6609,1.5192,1.5408,1.6488,0.0,0.0,0.0,0.0,0.0,0.0,0.0,0.0,0.0,0.0,0.0,0.0,0.0,0.0,0.0,0.0,0.0,0.0,0.0,0.0,0.0,0.0,0.0,0.0,0.0,0.0,0.0,0.0,0.0,0.0,0.0,0.0,0.0,0.0,0.0,0.0,0.0,0.0,0.0,0.0,0.0,0.0,0.0,0.0,0.0,0.0,0.0,0.0,0.0,0.0,0.0,0.0,0.0,0.0,0.0,0.0,1.0841,0.0,0.0,0.0,0.0,0.0,0.0,0.0,0.0,0.0,0.0,0.0,0.0,1.6299,1.709,1.6728,1.706,0.0,0.0,0.0,0.0,0.0,0.0,0.0,0.0,0.0,0.0,0.0,0.0,0.0,0.0,0.0,0.0,0.0,0.0,2.0227,1.8778,1.8052,1.8052,1.8141,1.6522,1.3291,1.2862,1.1761,0.9825,0.0,0.0,0.0,0.0,0.0,1.3402,1.4718,1.5435,1.5671,1.5316,1.5192,1.5074,1.4723,1.551,1.6844,0.0,0.0,0.0,0.0,0.0,0.0,0.0,0.0,0.0,0.0,0.0,0.0,0.0,0.0,0.0,0.0,0.0,0.0,0.0,0.0,0.0,0.0,0.0,0.0,0.0,0.0,0.0,0.0,0.0,0.0,0.0,0.0,0.0,0.0,0.0,0.0,0.0,0.0,0.0,0.0,0.0,0.0,0.0,0.0,0.0,0.0,1.2881,0.0,0.0,1.1922,1.1226,1.0473,0.0,0.0,0.0,0.0,1.0354,0.0,0.0,0.0,0.0,0.0,0.0,0.0,0.0,0.0,0.0,0.0,0.0,1.6176,1.7191,1.7387,0.0,0.0,0.0,0.0,0.0,0.0,0.0,0.0,0.0,0.0,0.0,0.0,0.0,0.0,0.0,0.0,0.0,0.0,0.0,0.0,1.7974,1.7349,1.7349,1.6154,1.4563,1.261,1.1896,1.0834,0.9825,0.0,0.0,0.0,0.0,0.0,1.2213,1.3172,1.3889,1.4485,1.3765,1.3531,1.3412,1.2693,1.3347,1.4641,0.0,0.0,0.0,0.0,0.0,0.0,0.0,0.0,0.0,0.0,0.0,0.0,0.0,0.0,0.0,0.0,0.0,0.0,0.0,0.0,0.0,0.0,0.0,0.0,0.0,0.0,0.0,0.0,0.0,0.0,0.0,0.0,0.0,0.0,0.0,0.0,0.0,0.0,0.0,0.0,0.0,0.0,0.0,0.0,0.0,0.0,0.0,0.0,0.0,1.1665,1.1019,1.0134,0.9754,0.0,0.0,0.0,0.0,0.0,0.0,0.0,0.0,0.0,0.0,0.0,0.0,0.0,0.0,0.0,0.0,0.0,0.0,0.0,0.0,0.0,0.0,0.0,0.0,0.0,0.0,0.0,0.0,0.0,0.0,0.0,0.0,0.0,0.0,0.0,0.0,0.0,0.0,0.0,1.7242,1.6863,1.6616,1.3773,1.2214,1.2119,1.0641,0.9856,0.9856,0.9856,0.0,0.0,0.0,0.0,1.1856,1.1856,1.2693,1.377,1.2333,1.1856,1.1615,1.0301,1.0692,1.2068,0.0,0.0,0.0,0.0,0.0,0.0,0.0,0.0,0.0,0.0,0.0,0.0,0.0,0.0,0.0,0.0,0.0,0.0,0.0,0.0,0.0,0.0,0.0,0.0,0.0,0.0,0.0,0.0,0.0,0.0,0.0,0.0,0.0,0.0,0.0,0.0,0.0,0.0,0.0,0.0,0.0,0.0,0.0,0.0,0.0,0.0,0.0,0.0,0.0,1.1166,1.0446,0.9777,0.912,0.0,0.0,0.0,0.0,0.0,1.1843,1.4187,1.626,1.5156,1.542,0.0,0.0,0.0,0.0,0.0,0.0,0.0,0.0,0.0,0.0,0.0,0.0,0.0,0.0,0.0,0.0,0.0,0.0,0.0,0.0,0.0,0.0,0.0,0.0,0.0,0.0,0.0,0.0,0.0,0.0,1.4684,1.3228,1.2707,1.1852,1.0415,1.0146,1.0015,1.0015,1.0015,0.9944,0.0,0.0,0.994,1.0179,1.0179,1.0301,1.0539,1.0301,1.0179,1.0183,0.994,1.0763,1.2477,0.0,0.0,0.0,0.0,0.0,0.0,0.0,0.0,0.0,0.0,0.0,0.0,0.0,0.0,0.0,0.0,0.0,0.0,0.0,0.0,0.0,0.0,0.0,0.0,0.0,0.0,0.0,0.0,0.0,0.0,0.0,0.0,0.0,0.0,0.0,0.0,0.0,0.0,0.0,0.0,0.0,0.0,0.0,0.0,0.0,0.0,0.0,0.0,0.0,0.0,1.0302,0.9645,0.9011,0.0,0.0,0.0,0.0,0.0,1.1817,1.415,1.623,1.5625,0.0,1.7005,1.6299,0.0,0.0,0.0,0.0,0.0,0.0,0.0,0.0,0.0,0.0,0.0,0.0,0.0,0.0,0.0,0.0,0.0,0.0,0.0,0.0,0.0,0.0,0.0,0.0,0.0,0.0,0.0,0.0,0.0,1.1151,1.1057,1.0692,1.0046,0.9964,0.9927,0.9927,0.9927,0.9886,0.0,0.0,0.9822,0.9822,0.9822,0.9822,0.9822,0.9822,0.9822,0.9822,0.9822,1.0666,1.2117,0.0,0.0,0.0,0.0,0.0,0.0,0.0,0.0,0.0,0.0,0.0,0.0,0.0,0.0,0.0,0.0,0.0,0.0,0.0,0.0,0.0,0.0,0.0,0.0,0.0,0.0,0.0,0.0,0.0,0.0,0.0,0.0,0.0,0.0,0.0,0.0,0.0,0.0,0.0,0.0,0.0,0.0,0.0,0.0,0.0,0.0,0.0,0.0,0.0,0.0,0.0,0.0,0.0,0.0,0.0,0.0,1.0468,1.1581,1.229,1.4332,1.624,0.0,0.0,1.7847,1.7339,0.0,0.0,0.0,0.0,0.0,0.0,0.0,0.0,0.0,0.0,0.0,0.0,0.0,0.0,0.0,0.0,0.0,0.0,0.0,0.0,0.0,0.0,0.0,0.0,0.0,0.0,0.0,0.0,0.0,1.0049,0.9897,0.9897,1.0046,0.9893,0.9839,0.9873,0.9836,0.9822,0.9822,0.9822,0.9822,0.9822,0.9822,0.9822,0.9822,0.9822,0.9822,0.9822,0.9822,1.0569,1.1651,0.0,0.0,0.0,0.0,0.0,0.0,0.0,0.0,0.0,0.0,0.0,0.0,0.0,0.0,0.0,0.0,0.0,0.0,0.0,0.0,0.0,0.0,0.0,0.0,0.0,0.0,0.0,0.0,0.0,0.0,0.0,0.0,0.0,0.0,0.0,0.0,0.0,0.0,0.0,0.0,0.0,0.0,0.0,0.0,0.0,0.0,0.0,0.0,0.0,0.0,0.0,0.0,0.0,0.0,0.0,0.0,1.1028,1.1751,1.3691,1.5421,1.6777,1.7187,1.7402,0.0,1.8288,1.8443,0.0,1.9377,0.0,0.0,0.0,0.0,0.0,0.0,0.0,0.0,0.0,0.0,0.0,0.0,0.0,0.0,0.0,0.0,0.0,0.0,0.0,0.0,0.0,0.0,0.0,0.0,0.0,0.0,1.0049,0.9897,0.9897,1.0046,0.9893,0.9893,1.0029,0.9886,0.9822,0.9822,0.9822,0.9822,0.9822,0.9822,0.9822,0.9822,0.9822,0.9822,0.9822,0.9822,1.0569,1.154,0.0,0.0,0.0,0.0,0.0,0.0,0.0,0.0,0.0,0.0,0.0,0.0,0.0,0.0,0.0,0.0,0.0,0.0,0.0,0.0,0.0,0.0,0.0,0.0,0.0,0.0,0.0,0.0,0.0,0.0,0.0,0.0,0.0,0.0,0.0,0.0,0.0,0.0,0.0,0.0,0.0,0.0,0.0,0.0,0.0,0.0,0.0,0.0,0.0,0.0,0.9624,0.0,0.0,0.0,0.0,0.0,1.1646,1.2567,1.3304,1.4719,1.5933,1.5744,1.6298,0.0,0.0,1.9965,1.9878,0.0,0.0,0.0,0.0,0.0,0.0,0.0,0.0,0.0,0.0,0.0,0.0,0.0,0.0,0.0,0.0,0.0,0.0,0.0,0.0,0.0,0.0,0.0,0.0,0.0,0.0,0.0,0.0,0.9849,0.9849,0.9907,0.9849,0.9849,0.9907,0.9846,0.9822,0.9822,0.9822,0.9822,0.9822,0.9822,0.9822,0.9822,0.9822,0.9822,0.9822,0.9822,0.9986,1.0293,0.0,0.0,0.0,0.0,0.0,0.0,0.0,0.0,0.0,0.0,0.0,0.0,0.0,0.0,0.0,0.0,0.0,0.0,0.0,0.0,0.0,0.0,0.0,0.0,0.0,0.0,0.0,0.0,0.0,0.0,0.0,0.0,0.0,0.0,0.0,0.0,0.0,0.0,0.0,0.0,0.0,0.0,0.0,0.0,0.0,0.0,0.0,0.0,0.0,0.0,0.9437,0.0,0.0,0.0,0.0,0.0,1.2175,1.2972,1.3322,1.4064,1.4788,0.0,0.0,0.0,1.9408,2.0129,2.0052,0.0,0.0,0.0,0.0,0.0,0.0,0.0,0.0,0.0,0.0,0.0,0.0,0.0,0.0,0.0,0.0,0.0,0.0,0.0,0.0,0.0,0.0,0.0,0.0,0.0,0.0,0.0,0.0,0.9822,0.9822,0.9822,0.9822,0.9822,0.9822,0.9822,0.9822,0.9822,0.9822,0.9822,0.9822,0.9822,0.9822,0.9822,0.9822,0.9822,0.9822,0.9822,0.9635,0.9494,0.0,0.0,0.0,0.0,0.0,0.0,0.0,0.0,0.0,0.0,0.0,0.0,0.0,0.0,0.0,0.0,0.0,0.0,0.0,0.0,0.0,0.0,0.0,0.0,0.0,0.0,0.0,0.0,0.0,0.0,0.0,0.0,0.0,0.0,0.0,0.0,0.0,0.0,0.0,0.0,0.0,0.0,0.0,0.0,0.0,0.0,0.0,0.0,0.0,0.0,0.8811,0.8911,0.0,0.0,0.0,1.2606,1.2693,1.268,1.3868,1.3821,0.0,0.0,0.0,0.0,1.8185,1.8693,1.9009,0.0,0.0,0.0,0.0,0.0,0.0,0.0,0.0,0.0,0.0,0.0,0.0,0.0,0.0,0.0,0.0,0.0,0.0,0.0,0.0,0.0,0.0,0.0,0.0,0.0,0.0,0.0,0.0,0.9822,0.9822,0.9822,0.9822,0.9822,0.9822,0.9822,0.9822,0.9822,0.9822,0.9822,0.9822,0.9822,0.9822,0.9822,0.9822,0.9822,0.9822,0.9819,0.9632,0.9381,0.0,0.0,0.0,0.0,0.0,0.0,0.0,0.0,0.0,0.0,0.0,0.0,0.0,0.0,0.0,0.0,0.0,0.0,0.0,0.0,0.0,0.0,0.0,0.0,0.0,0.0,0.0,0.0,0.0,0.0,0.0,0.0,0.0,0.0,0.0,0.0,0.0,0.0,0.0,0.0,0.0,0.0,0.0,0.0,0.0,0.0,0.0,0.0,0.0,0.0,0.0,0.0,0.0,0.0,0.0,1.2315,1.2997,1.3646,1.3399,0.0,0.0,0.0,0.0,0.0,0.0,1.7606,0.0,0.0,0.0,0.0,0.0,0.0,0.0,0.0,0.0,0.0,0.0,0.0,0.0,0.0,0.0,0.0,0.0,0.0,0.0,0.0,0.0,0.0,0.0,0.0,0.0,0.0,0.0,0.0,0.0,0.0,0.9822,0.9822,0.9822,0.9822,0.9822,0.9822,0.9822,0.9822,0.9822,0.9822,0.9822,0.9822,0.9832,0.9846,0.9846,0.9846,0.9832,0.9613,0.9561,0.9364,0.0,0.0,0.0,0.0,0.0,0.0,0.0,0.0,0.0,0.0,0.0,0.0,0.0,0.0,0.0,0.0,0.0,0.0,0.0,0.0,0.0,0.0,0.0,0.0,0.0,0.0,0.0,0.0,0.0,0.0,0.0,0.0,0.0,0.0,0.0,0.0,0.0,0.0,0.0,0.0,0.0,0.0,0.0,0.0,0.0,0.0,0.0,0.0,0.0,0.0,0.0,0.0,0.8998,0.0,0.0,1.1922,1.2714,1.358,1.2865,0.0,0.0,0.0,0.0,0.0,0.0,0.0,0.0,0.0,0.0,0.0,0.0,0.0,0.0,0.0,0.0,0.0,0.0,0.0,0.0,0.0,0.0,0.0,0.0,0.0,0.0,0.0,0.0,0.0,0.0,0.0,0.0,0.0,0.0,0.0,0.0,0.0,0.0,0.9822,0.9822,0.9822,0.9822,0.9822,0.9822,0.9822,0.9822,0.9822,0.9822,0.9822,0.9836,0.9849,0.9795,0.8942,0.7978,0.9155,0.95,0.9384,0.0,0.0,0.0,0.0,0.0,0.0,0.0,0.0,0.0,0.0,0.0,0.0,0.0,0.0,0.0,0.0,0.0,0.0,0.0,0.0,0.0,0.0,0.0,0.0,0.0,0.0,0.0,0.0,0.0,0.0,0.0,0.0,0.0,0.0,0.0,0.0,0.0,0.0,0.0,0.0,0.0,0.0,0.0,0.0,0.0,0.0,0.0,0.0,0.0,0.0,0.0,0.0,0.9103,1.0505,1.1922,1.1424,1.2054,1.2784,0.0,0.0,0.0,0.0,0.0,0.0,0.0,0.0,0.0,0.0,0.0,0.0,0.0,0.0,0.0,0.0,0.0,0.0,0.0,0.0,0.0,0.0,0.0,0.0,0.0,0.0,0.0,0.0,0.0,0.0,0.0,0.0,0.0,0.0,0.0,0.0,0.0,0.0,0.0,0.0,0.9822,0.9822,0.9822,0.9822,0.9822,0.9822,0.9822,0.9822,0.9822,0.9822,0.9839,0.9846,0.983,0.7648,0.4767,0.785,0.8952,0.8933,0.0,0.0,0.0,0.0,0.0,0.0,0.0,0.0,0.0,0.0,0.0,0.0,0.0,0.0,0.0,0.0,0.0,0.0,0.0,0.0,0.0,0.0,0.0,0.0,0.0,0.0,0.0,0.0,0.0,0.0,0.0,0.0,0.0,0.0,0.0,0.0,0.0,0.0,0.0,0.0,0.0,0.0,0.0,0.0,0.0,0.0,0.0,0.0,0.0,0.0,0.0,0.0,0.9163,1.0265,1.1475,1.1308,1.1692,0.0,0.0,0.0,0.0,0.0,0.0,0.0,0.0,0.0,0.0,0.0,0.0,0.0,0.0,0.0,0.0,0.0,0.0,0.0,0.0,0.0,0.0,0.0,0.0,0.0,0.0,0.0,0.0,0.0,0.0,0.0,0.0,0.0,0.0,0.0,0.0,0.0,0.9819,0.9822,0.9822,0.0,0.9822,0.9822,0.9822,0.9822,0.9822,0.9822,0.9822,0.9822,0.9822,0.9839,0.9744,0.9761,0.9754,0.6163,0.1083,0.1864,0.3683,0.5862,0.0,0.0,0.0,0.0,0.0,0.0,0.0,0.0,0.0,0.0,0.0,0.0,0.0,0.0,0.0,0.0,0.0,0.0,0.0,0.0,0.0,0.0,0.0,0.0,0.0,0.0,0.0,0.0,0.0,0.0,0.0,0.0,0.0,0.0,0.0,0.0,0.0,0.0,0.0,0.0,0.0,0.0,0.0,0.0,0.0,0.0,0.0,0.0,0.0,0.0,0.0,0.0,0.0,0.0,1.1811,1.1449,1.1571,0.0,0.0,0.0,0.0,0.0,0.0,0.0,0.0,0.0,0.0,0.0,0.0,0.0,0.0,0.0,0.0,0.0,0.0,0.0,0.0,0.0,0.0,0.0,0.0,0.0,0.0,0.0,0.0,0.0,0.0,0.0,0.0,0.0,0.0,0.0,0.0,0.0,0.9608,0.9751,0.9751,0.9612,0.9686,0.972,0.9724,0.9788,0.9822,0.9822,0.9822,0.9829,0.9839,0.9849,0.9839,0.9802,0.9786,0.5731,0.0,0.0,0.1139,0.2515,0.0,0.0,0.0,0.0,0.0,0.0,0.0,0.0,0.0,0.0,0.0,0.0,0.0,0.0,0.0,0.0,0.0,0.0,0.0,0.0,0.0,0.0,0.0,0.0,0.0,0.0,0.0,0.0,0.0,0.0,0.0,0.0,0.0,0.0,0.0,0.0,0.0,0.0,0.0,0.0,0.0,0.0,0.0,0.0,0.0,0.0,0.0,0.0,0.0,0.9424,0.0,0.0,0.0,0.0,1.2327,1.16,0.0,0.0,0.0,0.0,0.0,0.0,0.0,0.0,0.0,0.0,0.0,0.0,0.0,0.0,0.0,0.0,0.0,0.0,0.0,0.0,0.0,0.0,0.0,0.0,0.0,0.0,0.0,0.0,0.0,0.0,0.0,0.0,0.0,0.0,0.0,0.0,0.0,0.9483,0.9384,0.9625,0.9622,0.9384,0.951,0.9585,0.9612,0.973,0.9798,0.9822,0.9825,0.9839,0.9852,0.9839,0.9788,0.9696,0.8552,0.4814,0.0,0.0,0.0,0.0,0.0,0.0,0.0,0.0,0.0,0.0,0.0,0.0,0.0,0.0,0.0,0.0,0.0,0.0,0.0,0.0,0.0,0.0,0.0,0.0,0.0,0.0,0.0,0.0,0.0,0.0,0.0,0.0,0.0,0.0,0.0,0.0,0.0,0.0,0.0,0.0,0.0,0.0,0.0,0.0,0.0,0.0,0.0,0.0,0.0,0.0,0.0,0.0,0.0,0.0,1.0912,0.0,0.0,0.0,0.0,0.0,0.0,0.0,0.0,0.0,0.0,0.0,0.0,0.0,0.0,0.0,0.0,0.0,0.0,0.0,0.0,0.0,0.0,0.0,0.0,0.0,0.0,0.0,0.0,0.0,0.0,0.0,0.0,0.0,0.0,0.0,0.0,0.0,0.0,0.0,0.9184,0.9184,0.9205,0.0,0.9381,0.9418,0.9418,0.9381,0.9401,0.9483,0.9608,0.9629,0.9703,0.9822,0.9842,0.9852,0.9849,0.9771,0.9847,0.9197,0.3503,0.0807,0.0,0.0,0.0,0.0,0.0,0.0,0.0,0.0,0.0,0.0,0.0,0.0,0.0,0.0,0.0,0.0,0.0,0.0,0.0,0.0,0.0,0.0,0.0,0.0,0.0,0.0,0.0,0.0,0.0,0.0,0.0,0.0,0.0,0.0,0.0,1.2525,1.3281,0.0,0.0,0.0,0.0,0.0,0.0,0.0,0.0,0.0,0.0,0.0,0.0,0.0,0.0,0.0,0.0,0.0,0.0,0.0,0.0,0.0,0.0,0.0,0.0,0.0,0.0,0.0,0.0,0.0,0.0,0.0,0.0,0.0,0.0,0.0,0.0,0.0,0.0,0.0,0.0,0.0,0.0,0.0,0.0,0.0,0.0,0.0,0.0,0.0,0.0,0.0,0.0,0.0,0.0,0.0,0.0,0.9032,0.9032,0.9032,0.911,0.0,0.9133,0.9296,0.9337,0.9252,0.9252,0.9334,0.9486,0.9571,0.9693,0.9842,0.9849,0.9751,0.9771,0.9771,0.7589,0.404,0.116,0.0,0.0,0.0,0.0,0.0,0.0,0.0,0.0,0.0,0.0,0.0,0.0,0.0,0.0,0.0,0.0,0.0,0.0,0.0,0.0,0.0,0.0,0.0,0.0,0.0,0.0,0.0,0.0,0.0,0.0,0.0,0.0,0.0,0.0,0.0,1.0813,1.2255,1.3047,0.0,1.3018,0.0,0.0,0.0,0.0,0.0,0.0,0.0,0.0,0.0,0.0,0.0,0.0,0.0,0.0,0.0,0.0,0.0,0.0,0.0,0.0,0.0,0.0,0.0,0.0,0.0,0.0,0.0,0.0,0.0,0.0,0.0,0.0,0.0,0.0,0.0,0.0,0.0,0.0,0.0,0.0,0.0,0.0,0.0,0.0,0.0,0.0,0.0,0.0,0.0,0.0,0.0,0.0,0.0,0.894,0.894,0.894,0.894,0.9042,0.9049,0.894,0.9157,0.9211,0.91,0.91,0.9178,0.9327,0.9449,0.9595,0.9758,0.8958,0.8979,0.9694,0.7985,0.4399,0.0,0.0,0.0,0.0,0.0,0.0,0.0,0.0,0.0,0.0,0.0,0.0,0.0,0.0,0.0,0.0,0.0,0.0,0.0,0.0,0.0,0.0,0.0,0.0,0.0,0.0,0.0,0.0,0.0,0.0,0.0,0.0,0.0,0.0,0.0,0.0,0.0,1.0813,1.2255,1.2891,1.291,1.2891,1.2881,1.2881,0.0,0.0,0.0,0.0,0.0,0.0,0.0,0.0,0.0,0.0,0.0,0.0,0.0,0.0,0.0,0.0,0.0,0.0,0.0,0.0,0.0,0.0,0.0,0.0,0.0,0.0,0.0,0.0,0.0,0.0,0.0,0.0,0.0,0.0,0.0,0.0,0.0,0.0,0.0,0.0,0.0,0.0,0.0,0.0,0.0,0.0,0.0,0.0,0.0,0.0,0.0,0.894,0.894,0.894,0.894,0.8947,0.8947,0.894,0.8954,0.8957,0.895,0.895,0.9025,0.9164,0.9195,0.9425,0.961,0.6566,0.6916,0.9271,0.3067,0.0351,0.0,0.0,0.0,0.0,0.0,0.0,0.0,0.0,0.0,0.0,0.0,0.0,0.0,0.0,0.0,0.0,0.0,0.0,0.0,0.0,0.0,0.0,0.0,0.0,0.0,0.0,0.0,0.0,0.0,0.0,0.0,0.0,0.0,0.0,0.0,0.0,1.0813,1.0813,1.2255,1.2881,1.2881,1.2881,1.2881,1.2881,1.2881,0.0,0.0,0.0,0.0,0.0,0.0,0.0,0.0,0.0,0.0,0.0,0.0,0.0,0.0,0.0,0.0,0.0,0.0,0.0,0.0,0.0,0.0,0.0,0.0,0.0,0.0,0.0,0.0,0.0,0.0,0.0,0.0,0.0,0.0,0.0,0.0,0.0,0.0,0.0,0.0,0.0,0.0,0.0,0.0,0.0,0.0,0.0,0.0,0.0,0.0,0.8933,0.8754,0.8733,0.893,0.8845,0.8838,0.8937,0.894,0.894,0.894,0.894,0.9022,0.9174,0.9184,0.9471,0.9697,0.8576,0.6316,0.3296,0.0932,0.0,0.0,0.0,0.0,0.0,0.0,0.0,0.0,0.0,0.0,0.0,0.0,0.0,0.0,0.0,0.0,0.0,0.0,0.0,0.0,0.0,0.0,0.0,0.0,0.0,0.0,0.0,0.0,0.0,0.0,0.0,0.0,0.0,0.0,0.0,0.0,0.0,0.0,0.0,0.0,1.2666,1.2881,1.2881,0.0,0.0,0.0,0.0,1.3076,0.0,0.0,1.1193,0.0,0.0,0.0,0.0,0.0,0.0,0.0,0.0,0.0,0.0,0.0,0.0,0.0,0.0,0.0,0.0,0.0,0.0,0.0,0.0,0.0,0.0,0.0,0.0,0.0,0.0,0.0,0.0,0.0,0.0,0.0,0.0,0.0,0.0,0.0,0.0,0.0,0.0,0.0,0.0,0.0,0.0,0.0,0.0,0.0,0.8781,0.8594,0.8598,0.8855,0.8713,0.8706,0.8862,0.8811,0.8784,0.8784,0.8736,0.8819,0.9039,0.9103,0.9267,0.9539,0.977,0.6043,0.0,0.0,0.0,0.0,0.0,0.0,0.0,0.0,0.0,0.0,0.0,0.0,0.0,0.0,0.0,0.0,0.0,0.0,0.0,0.0,0.0,0.0,0.0,0.0,0.0,0.0,0.0,0.0,0.0,0.0,0.0,0.0,0.0,0.0,0.0,0.0,0.0,0.0,0.0,0.0,0.0,0.0,1.2187,0.0,1.2881,1.2881,1.2881,0.0,1.3125,1.3477,0.0,1.2544,1.1909,0.0,0.0,0.0,1.0916,1.1323,0.0,0.0,0.0,0.0,0.0,0.0,0.0,0.0,0.0,0.0,0.0,0.0,0.0,0.0,0.0,0.0,0.0,0.0,0.0,0.0,0.0,0.0,0.0,0.0,0.0,0.0,0.0,0.0,0.0,0.0,0.0,0.0,0.0,0.0,0.0,0.0,0.0,0.0,0.0,0.8476,0.8482,0.8482,0.855,0.8693,0.8557,0.8554,0.8703,0.8557,0.8482,0.8482,0.8551,0.8524,0.8527,0.8823,0.8907,0.891,0.9388,0.5848,0.0,0.0,0.0,0.0,0.0,0.0,0.0,0.0,0.0,0.0,0.0,0.0,0.0,0.0,0.0,0.0,0.0,0.0,0.0,0.0,0.0,0.0,0.0,0.0,0.0,0.0,0.0,0.0,0.0,0.0,0.0,0.0,0.0,0.0,0.0,0.0,0.0,0.0,0.0,0.0,0.0,0.0,0.0,0.0,1.2666,1.2881,1.2881,1.2881,0.0,0.0,1.3379,1.3124,0.0,0.0,0.0,0.0,0.0,1.1434,0.0,0.0,1.3481,1.3438,0.0,0.0,0.0,0.0,0.0,0.0,1.0739,0.0,0.0,0.0,0.0,0.0,0.0,0.0,0.0,0.0,0.0,0.0,0.0,0.0,0.0,0.0,0.0,0.0,0.0,0.0,0.0,0.0,0.0,0.0,0.0,0.0,0.0,0.0,0.8387,0.8374,0.8476,0.8482,0.8455,0.8394,0.8452,0.8503,0.8547,0.8503,0.8482,0.8482,0.8551,0.7531,0.5669,0.7941,0.8882,0.8666,0.4472,0.1731,0.0,0.0,0.0,0.0,0.0,0.0,0.0,0.0,0.0,0.0,0.0,0.0,0.0,0.0,0.0,0.0,0.0,0.0,0.0,0.0,0.0,0.0,0.0,0.0,0.0,0.0,0.0,0.0,0.0,0.0,0.0,0.0,0.0,0.0,0.0,0.0,0.0,0.0,0.0,0.0,0.0,0.0,0.0,0.0,0.0,0.0,0.0,0.0,0.0,0.0,1.3574,0.0,0.0,1.2304,1.2116,0.0,0.0,0.0,1.4191,1.3648,1.3425,0.0,0.0,0.0,0.0,0.0,0.0,0.0,0.0,0.0,0.0,0.0,0.0,0.0,0.0,1.2585,0.0,0.0,0.0,0.0,0.0,0.0,0.0,0.0,0.0,0.0,0.0,0.0,0.0,0.0,0.0,0.0,0.0,0.0,0.0,0.0,0.8221,0.8211,0.8292,0.8299,0.8289,0.8272,0.8289,0.833,0.8394,0.833,0.8303,0.8316,0.8335,0.7466,0.595,0.546,0.5158,0.4939,0.1505,0.0,0.0,0.0,0.0,0.0,0.0,0.0,0.0,0.0,0.0,-0.0308,0.0,0.0,0.0,0.0,0.0,0.0,0.0,0.0,0.0,0.0,0.0,0.0,0.0,0.0,0.0,0.0,0.0,0.0,0.0,0.0,0.0,0.0,0.0,0.0,0.0,0.0,0.0,0.0,0.0,0.0,0.0,0.0,0.0,0.0,0.0,0.0,0.0,0.0,0.0,1.3941,1.3623,1.3772,0.0,0.0,1.2576,0.0,1.1981,1.298,1.4762,1.443,1.4013,0.0,0.0,0.0,0.0,0.0,1.1296,0.0,0.0,0.0,0.0,0.0,0.0,0.0,1.181,1.2271,1.2741,0.0,0.0,0.0,0.0,0.0,0.0,0.0,0.0,0.0,0.0,0.0,0.0,0.0,0.0,0.0,0.0,0.0,0.8187,0.8052,0.8038,0.8038,0.8038,0.8038,0.8102,0.8241,0.8109,0.8106,0.8245,0.8109,0.7952,0.7975,0.7959,0.7998,0.7806,0.2485,0.0,0.0,0.0,0.0,0.0,0.0,0.0,0.0,0.0,0.0,0.0,0.0,-0.041,-0.1522,0.0,0.0,0.0,0.0,0.0,0.0,0.0,0.0,0.0,0.0,0.0,0.0,0.0,0.0,0.0,0.0,0.0,0.0,0.0,0.0,0.0,0.0,0.0,0.0,0.0,0.0,0.0,0.0,0.0,0.0,0.0,0.0,0.0,0.0,0.0,0.0,0.0,0.0,0.0,1.3332,1.3525,0.0,1.3562,1.207,1.215,1.2785,1.1063,1.2132,1.4412,0.0,1.5014,1.4794,0.0,0.0,0.0,0.0,0.0,0.0,0.0,0.0,0.0,0.0,0.0,0.0,1.1857,1.1957,1.2178,0.0,0.0,0.0,0.0,0.0,0.0,0.0,0.0,0.0,0.0,0.0,0.0,0.0,0.0,0.0,0.0,0.0,0.8072,0.8041,0.8038,0.8038,0.8038,0.8038,0.8055,0.8082,0.8055,0.8055,0.8082,0.7972,0.7969,0.7975,0.7978,0.7972,0.7868,0.2409,0.0,0.0,0.0,0.0,0.0,0.0,0.0,0.0,0.0,0.0,0.0,0.0,-0.2761,-0.6622,0.0,0.0,0.0,0.0,0.0,0.0,0.0,0.0,0.0,0.0,0.0,0.0,0.0,0.0,0.0,0.0,0.0,0.0,0.0,0.0,0.0,0.0,0.0,0.0,0.0,0.0,0.0,0.0,0.0,0.0,0.0,0.0,0.0,0.0,0.0,0.0,0.0,0.0,1.4109,1.3622,1.3586,0.0,1.3012,1.1939,1.2171,1.2826,1.1663,1.2797,1.5014,1.602,1.602,0.0,0.0,1.3897,1.3461,0.0,1.2078,1.2204,0.0,0.0,0.0,1.1897,0.0,0.0,0.0,1.1984,1.2124,0.0,0.0,0.0,0.0,0.0,0.0,0.0,0.0,0.0,0.0,0.0,0.0,0.0,0.0,0.0,0.0,0.0,0.8038,0.8038,0.8038,0.8038,0.8038,0.8038,0.8038,0.8038,0.8038,0.8038,0.8038,0.7962,0.7359,0.6037,0.7325,0.6562,0.3946,0.1245,0.0,0.0,0.0,0.0,0.0,0.0,0.0,0.0,0.0,0.0,-0.0303,-0.3029,-0.5701,-0.8018,0.0,0.0,0.0,0.0,0.0,0.0,0.0,0.0,0.0,0.0,0.0,0.0,0.0,0.0,0.0,0.0,0.0,0.0,0.0,0.0,0.0,0.0,0.0,0.9017,0.0,0.0,0.0,0.0,0.0,0.0,0.0,0.0,0.0,0.0,0.0,0.0,0.0,0.0,0.0,1.3798,0.0,1.3113,1.2513,1.1836,1.1996,1.2601,1.2701,1.3834,1.5449,1.689,0.0,1.599,1.4967,1.4363,0.0,0.0,0.0,0.0,0.0,0.0,0.0,0.0,0.0,1.2096,0.0,0.0,0.0,1.2004,0.0,0.0,0.0,0.0,0.0,0.0,0.0,0.0,0.0,0.0,0.0,0.0,0.0,0.0,0.0,0.0,0.7967,0.7994,0.7994,0.8007,0.8038,0.8038,0.8038,0.8038,0.8038,0.8038,0.8038,0.7965,0.6648,0.4017,0.5641,0.4236,0.0,0.0,0.0,0.0,0.0,0.0,0.0,0.0,0.0,0.0,0.0,0.0,-0.0606,-0.5974,-0.8022,-0.8016,1.2861,1.3931,0.0,0.0,0.0,0.0,0.0,0.0,0.0,0.0,0.0,0.0,0.0,0.0,0.0,0.0,0.0,0.0,1.3032,0.0,0.0,0.0,0.0,0.0,0.8811,0.0,0.0,0.0,0.0,0.0,0.0,0.0,0.0,0.0,1.4668,0.0,0.0,0.0,1.4331,0.0,1.2982,1.2821,0.0,1.1181,1.0971,1.1428,1.3247,1.4049,1.4601,0.0,1.7307,1.6959,0.0,1.5059,0.0,0.0,0.0,0.0,0.0,0.0,0.0,0.0,1.2478,0.0,0.0,0.0,1.2291,1.2258,0.0,0.0,0.0,0.0,0.0,0.0,0.0,0.0,0.0,0.0,0.0,0.0,0.0,0.0,0.0,0.0,0.0,0.7828,0.7838,0.7896,0.8031,0.8038,0.8038,0.8038,0.8038,0.8038,0.8038,0.7972,0.6653,0.4016,0.1919,0.0608,0.0,0.0,0.0,0.0,0.0,0.0,0.0,0.0,0.0,0.0,0.0,0.0,-0.0606,-0.5974,-0.8012,-0.7992,1.2774,1.3884,0.0,0.0,0.0,0.0,0.0,0.0,0.0,0.0,0.0,0.0,0.0,0.0,0.0,0.0,0.0,1.3753,0.0,0.0,0.0,0.0,0.0,0.0,0.0,0.0,0.0,0.0,1.1864,0.0,0.0,0.0,0.0,0.0,1.4932,0.0,1.5068,0.0,0.0,0.0,0.0,0.0,0.0,1.1198,1.1494,1.2531,1.3934,1.4934,1.576,0.0,1.7389,0.0,0.0,0.0,0.0,0.0,0.0,0.0,0.0,0.0,0.0,0.0,0.0,0.0,0.0,0.0,1.2305,0.0,0.0,0.0,0.0,0.0,0.0,0.0,0.0,0.0,0.0,0.0,0.0,0.0,0.0,0.0,0.0,0.0,0.0,0.0,0.0,0.7753,0.7899,0.7909,0.7946,0.8035,0.8038,0.8045,0.7959,0.7979,0.7481,0.6263,0.2017,0.0,0.0,0.0,0.0,0.0,0.0,0.0,0.0,0.0,0.0,-0.0303,-0.3433,-0.4649,-0.475,-0.5448,-0.6659,-0.7979,1.2725,0.0,0.0,0.0,0.0,0.0,0.0,0.0,0.0,0.0,0.0,0.0,1.5293,1.5039,0.0,0.0,0.0,1.4853,0.0,0.0,1.3058,0.0,0.0,0.0,0.0,0.0,0.0,0.0,0.0,0.0,0.0,0.0,0.0,0.0,0.0,1.5244,1.498,0.0,0.0,1.4188,1.3361,1.2531,1.1819,1.1268,1.1826,1.3064,1.4388,1.5419,1.6428,1.7579,1.7364,0.0,1.5517,0.0,0.0,0.0,0.0,0.0,1.2505,0.0,0.0,0.0,0.0,0.0,0.0,0.0,0.0,0.0,0.0,0.0,0.0,0.0,0.0,0.0,0.0,0.0,0.0,0.0,0.0,0.0,0.0,0.0,0.0,0.0,0.0,0.0,0.7536,0.0,0.7801,0.7811,0.7882,0.8035,0.8045,0.7955,0.7972,0.7992,0.8009,0.7922,0.2524,0.0,0.0,0.0,0.0,0.0,0.0,0.0,0.0,0.0,-0.0909,-0.2625,-0.6486,-0.8019,-0.7802,-0.5839,-0.6339,-0.7969,1.2627,1.342,0.0,0.0,0.0,0.0,0.0,0.0,0.0,0.0,0.0,0.0,0.0,0.0,0.0,0.0,0.0,1.6191,1.6641,0.0,1.3367,0.0,0.0,1.0625,0.0,0.0,0.0,0.0,0.0,0.0,0.0,0.0,0.0,0.0,0.0,1.54,1.5391,1.54,1.4519,1.3025,1.3017,1.2233,1.1088,0.0,1.1603,1.2253,1.4387,0.0,0.0,1.7373,1.7364,0.0,0.0,0.0,0.0,0.0,0.0,0.0,0.0,0.0,0.0,0.0,0.0,0.0,0.0,0.0,1.318,0.0,0.0,0.0,0.0,0.0,0.0,0.0,0.0,0.0,0.0,0.0,0.0,0.0,0.0,0.0,0.0,0.0,0.0,0.0,0.738,0.0,0.7794,0.7811,0.7882,0.8035,0.7962,0.7972,0.7972,0.8009,0.8026,0.7922,0.2524,0.0,0.0,0.0,0.0,0.0,0.0,0.0,0.0,0.0,-0.303,-0.7717,-0.7922,-0.8006,-0.7975,-0.7872,-0.7972,-0.7969,0.0,0.0,0.0,0.0,0.0,0.0,0.0,1.5875,0.0,0.0,0.0,0.0,0.0,0.0,1.8105,0.0,0.0,1.7002,1.7148,1.6081,0.0,0.0,0.0,1.1692,0.0,0.0,0.0,0.0,0.0,0.0,0.0,0.0,0.0,0.0,0.0,1.541,0.0,0.0,0.0,0.0,0.0,1.2018,1.1563,0.0,0.0,1.2118,1.3626,1.4243,0.0,1.5728,1.5517,1.4665,1.4307,1.3601,1.2912,1.2716,1.2886,0.0,0.0,0.0,1.3794,1.32,0.0,0.0,0.0,0.0,0.0,0.0,0.0,0.0,0.0,0.0,0.0,0.0,0.0,0.0,0.0,0.0,0.0,0.0,0.0,0.0,0.0,0.0,0.0,0.7088,0.7166,0.7261,0.0,0.756,0.7746,0.7805,0.7918,0.7982,0.8009,0.8019,0.6178,0.2726,0.0909,0.0,0.0,0.0,0.0,0.0,0.0,0.0,-0.0303,-0.384,-0.6382,-0.8022,-0.7999,-0.7982,-0.7972,-0.7972,-0.7962,-0.8048,1.2774,0.0,0.0,0.0,0.0,0.0,0.0,0.0,0.0,0.0,1.8113,0.0,1.9639,0.0,1.9487,0.0,1.8916,1.8389,1.8086,1.6975,0.0,1.4184,1.3571,0.0,0.0,0.0,0.0,0.0,0.0,1.5723,0.0,0.0,0.0,0.0,0.0,0.0,0.0,0.0,1.3512,0.0,0.0,1.1557,0.0,0.0,1.177,0.0,0.0,1.3747,1.4064,1.4993,1.4718,1.4015,1.4015,1.3436,1.2799,1.2886,1.3206,1.35,1.3394,1.3714,0.0,0.0,1.3741,0.0,1.3587,0.0,0.0,0.0,0.0,0.0,0.0,0.0,0.0,0.0,0.0,0.0,0.0,0.0,0.0,0.0,0.0,0.0,0.0,0.0,0.721,0.7017,0.7088,0.717,0.0,0.0,0.7587,0.7754,0.7912,0.8002,0.8026,0.6075,0.3433,0.0,0.0,0.0,0.0,0.0,0.0,0.0,0.0,0.0,-0.0404,-0.577,-0.8019,-0.8009,-0.7982,-0.7969,-0.7962,-0.7962,-0.7952,-0.8038,0.0,0.0,0.0,0.0,1.5345,0.0,0.0,0.0,1.9043,0.0,1.9935,2.0156,2.0635,2.1055,2.1299,2.1299,2.0869,0.0,1.9404,1.783,0.0,0.0,1.4236,1.3539,1.3224,0.0,0.0,0.0,0.0,0.0,0.0,0.0,0.0,0.0,1.4579,0.0,1.4213,1.3373,1.252,1.1707,1.1228,1.1035,1.1096,1.169,0.0,1.2472,1.3339,1.3822,1.4238,1.5208,1.5054,1.4491,1.4491,1.4092,1.3492,1.3307,1.3627,1.4008,1.3741,1.3874,1.4088,1.4108,0.0,0.0,0.0,0.0,1.4543,0.0,0.0,0.0,0.0,0.0,0.0,0.0,0.0,0.0,0.0,0.0,0.0,0.0,0.0,0.0,0.0,0.7146,0.7146,0.7132,0.7136,0.7214,0.0,0.0,0.0,0.7966,0.7939,0.7918,0.7613,0.2524,0.0,0.0,0.0,0.0,0.0,0.0,0.0,0.0,0.0,-0.0101,-0.0808,-0.5768,-0.7905,-0.7989,-0.7975,-0.7959,-0.8038,-0.8038,-0.8038,-0.8038,1.2939,1.3928,1.5094,0.0,1.7047,1.7824,0.0,0.0,0.0,0.0,2.0495,2.1299,2.2363,2.2305,2.2187,2.2187,2.1494,0.0,0.0,0.0,0.0,1.6459,1.5761,1.4824,1.3539,1.4718,0.0,1.4213,0.0,0.0,1.5898,0.0,0.0,0.0,0.0,0.0,1.4991,1.3606,1.2297,1.1242,1.1573,1.1643,0.0,0.0,1.264,1.2708,1.2928,1.3051,1.3231,1.3691,1.3676,1.3588,1.3588,1.3412,1.3347,1.3494,1.3641,1.3788,1.3935,1.4028,1.4135,1.4355,1.4469,1.4556,0.0,0.0,0.0,0.0,0.0,0.0,0.0,0.0,0.0,0.0,0.0,0.0,0.0,0.0,0.0,0.0,0.0,0.0,0.0,0.7244,0.7221,0.7,0.7007,0.7048,0.0,0.0,0.0,0.7244,0.7786,0.6075,0.212,0.0707,0.0,0.0,0.0,0.0,0.0,0.0,0.0,0.0,0.0,-0.2221,-0.5871,-0.5242,-0.6245,-0.7975,-0.7955,-0.8045,-0.8038,-0.8038,-0.8038,-0.8038,1.3242,0.0,0.0,1.8278,0.0,0.0,1.9713,0.0,0.0,2.069,2.1194,0.0,2.251,2.2705,2.2783,2.2783,2.2012,0.0,0.0,0.0,0.0,1.7675,1.7163,1.628,1.4961,1.5679,0.0,1.4746,0.0,0.0,1.5781,0.0,0.0,0.0,0.0,1.4958,0.0,1.2805,1.174,1.1209,1.1543,0.0,0.0,1.2378,1.2708,1.2842,1.2899,1.3026,1.3166,1.334,1.3487,1.3594,1.3594,1.3594,1.3627,1.3788,1.3834,1.3874,1.4041,1.4088,1.4155,1.4449,1.4522,1.4563,1.473,1.477,1.477,0.0,0.0,0.0,0.0,0.0,0.0,0.0,0.0,0.0,0.0,0.0,0.0,0.0,0.0,0.0,0.7139,0.7217,0.72,0.7034,0.7088,0.657,0.0,0.0,0.0,0.401,0.4298,0.3056,0.0,0.0,0.0,0.0,0.0,0.0,0.0,0.0,-0.1313,-0.3536,-0.3536,-0.4545,-0.6261,-0.5839,-0.6645,-0.7972,-0.8048,-0.8038,-0.8038,-0.8038,-0.8038,-0.8038,0.0,0.0,0.0,0.0,0.0,0.0,0.0,2.1124,0.0,2.178,0.0,2.2051,2.2051,2.2656,2.3057,2.3057,0.0,2.1641,2.126,2.0459,1.9639,1.8838,1.8398,1.7754,1.6836,1.6816,0.0,0.0,0.0,0.0,1.5409,0.0,0.0,0.0,0.0,0.0,0.0,1.1869,1.1236,0.0,1.145,1.1637,1.1911,1.2285,1.2579,1.2852,1.32,1.3467,1.3654,1.3687,1.3874,1.4088,1.4088,1.4088,1.4088,1.4088,1.4088,1.4088,1.4088,1.4088,1.4155,1.4449,1.4522,1.4529,1.4569,1.4583,1.4488,1.4394,1.4084,0.0,0.0,0.0,0.0,0.0,0.0,0.0,0.0,0.0,0.0,0.0,0.0,0.0,0.0,0.0,0.7143,0.7143,0.7105,0.621,0.0,0.0,0.0,0.0,0.0,0.0,0.0,0.0,0.0,0.0,0.0,-0.0404,-0.101,-0.101,-0.3433,-0.7503,-0.7815,-0.667,-0.472,-0.7054,-0.7972,-0.7965,-0.8048,-0.8038,-0.8038,-0.8038,-0.8137,-0.8432,0.0,0.0,0.0,0.0,0.0,2.2908,2.2849,2.3105,2.2983,2.2039,2.2477,0.0,2.292,2.2744,2.2627,2.2627,2.1836,0.0,0.0,0.0,0.0,1.9717,1.9287,1.8506,1.7295,1.7275,1.6836,0.0,1.6836,1.6661,1.5504,0.0,0.0,0.0,0.0,0.0,1.349,1.2704,0.0,1.1109,1.1597,1.1824,1.1957,1.2752,1.3086,1.32,1.3741,1.3808,1.3681,1.3928,1.4041,1.4088,1.4088,1.4088,1.4088,1.4088,1.4088,1.4088,1.4088,1.4088,1.4155,1.4449,1.4522,1.4583,1.483,1.4883,1.4609,1.3603,1.32,1.2312,1.0051,0.0,0.0,0.0,0.0,0.0,0.0,0.0,0.0,0.0,0.0,0.0,0.0,0.0,0.0,0.0,0.0,0.0,0.0,0.0,0.0,0.0,0.0,0.0,0.0,0.0,0.0,0.0,0.0,-0.2322,-0.6586,-0.6586,-0.5861,-0.4828,-0.7071,-0.7782,-0.7359,-0.7769,-0.7962,-0.8045,-0.8041,-0.8038,-0.8038,-0.8038,-0.8726,-0.9706,0.0,0.0,0.0,0.0,0.0,0.0,0.0,2.4759,0.0,2.1836,2.1904,2.206,2.1826,2.2031,2.2187,2.2187,2.1602,2.123,2.123,2.0605,2.0039,1.9609,1.918,0.0,1.7402,1.7168,1.6836,1.6406,1.6602,1.651,0.0,0.0,0.0,0.0,0.0,1.4815,0.0,0.0,0.0,1.1683,1.1817,1.1957,1.2158,1.2746,1.3073,1.3267,1.3701,1.3868,1.3895,1.4041,1.4088,1.4088,1.4088,1.4088,1.4088,1.4088,1.4088,1.4088,1.4088,1.4088,1.4122,1.4262,1.4295,1.4335,1.4476,1.4509,1.4148,1.2979,1.2604,1.1815,0.9549,0.7982,0.0,0.0,0.0,0.0,0.0,0.0,0.0,0.0,0.0,0.0,0.0,0.0,0.0,0.0,0.0,0.0,0.0,0.0,0.0,0.0,0.0,0.0,0.0,0.0,0.0,-0.0,-0.2852,-0.5464,-0.8026,-0.8012,-0.7278,-0.6139,-0.7466,-0.7972,-0.7955,-0.7955,-0.8048,-0.8038,-0.8038,-0.8038,-0.8038,-0.8825,-0.9899,-1.0974,0.0,2.0327,0.0,0.0,2.5096,0.0,0.0,2.5939,2.5289,2.1885,2.1504,2.1338,2.0898,2.1387,2.1748,2.1748,2.1348,2.1094,2.1094,2.0352,1.9766,1.9434,1.8916,1.8242,1.7402,1.6953,1.6689,0.0,1.6328,1.6315,0.0,0.0,0.0,0.0,0.0,0.0,0.0,0.0,1.1844,1.2191,1.2031,1.2098,1.2345,1.2705,1.2999,1.326,1.3607,1.3888,1.4088,1.4088,1.4088,1.4088,1.4088,1.4088,1.4088,1.4088,1.4088,1.4088,1.4088,1.4088,1.4088,1.4088,1.4088,1.4088,1.4088,1.3906,1.3385,1.2157,1.1596,1.0691,0.8911,0.783,0.0,0.0,0.0,0.0,0.0,0.0,0.0,0.0,0.0,0.0,0.0,0.0,0.0,0.0,0.0,0.0,0.5681,0.2084,0.0,0.0,0.0,0.0,0.0,0.0,0.0,0.0,-0.5484,-0.8022,-0.8016,-0.7995,-0.7979,-0.7965,-0.7965,-0.7955,-0.8038,-0.8038,-0.8038,-0.8038,-0.8038,-0.8137,-0.8528,-0.9608,-1.097,-1.2334,0.0,0.0,0.0,0.0,0.0,0.0,0.0,2.6441,2.5529,2.2705,2.2393,2.2236,2.1807,2.1484,2.1299,2.1299,2.0889,2.0625,2.0625,2.0176,1.9893,1.9853,1.9072,1.8242,1.7402,1.6953,1.6533,0.0,0.0,1.6291,0.0,0.0,0.0,0.0,0.0,0.0,0.0,1.2906,1.2098,1.1931,1.2164,1.2278,1.2365,1.2946,1.3186,1.328,1.3848,1.4062,1.4088,1.4088,1.4088,1.4088,1.4088,1.4088,1.4088,1.4088,1.4088,1.4088,1.4088,1.4088,1.4088,1.4088,1.4088,1.4088,1.4088,1.3294,1.2157,1.1042,0.9194,0.7843,0.7716,0.7533,0.735,0.0,0.0,0.0,0.0,0.0,0.0,0.0,0.0,0.0,0.0,0.0,0.0,0.0,0.0,0.5233,0.0899,0.028,0.0,0.0,0.0,0.0,0.0,0.0,0.0,-0.0106,-0.5449,-0.8016,-0.7995,-0.7979,-0.7962,-0.8041,-0.8041,-0.8041,-0.8038,-0.8038,-0.8038,-0.8038,-0.8038,-0.8726,-0.9801,-0.9998,-1.1551,-1.3686,0.0,0.0,0.0,0.0,0.0,0.0,0.0,2.7349,2.5659,2.3159,2.2285,2.166,2.1152,2.0937,2.083,2.083,2.0674,2.042,2.0088,1.9736,1.9307,1.8789,1.8203,1.7725,1.7393,1.6689,1.6504,0.0,0.0,1.6664,1.6645,0.0,0.0,0.0,0.0,1.4944,1.487,1.2913,1.2078,1.2138,1.2258,1.2412,1.2612,1.3046,1.332,1.3527,1.3941,1.4088,1.4088,1.4088,1.4088,1.4088,1.4088,1.4088,1.4088,1.4088,1.4088,1.4088,1.4088,1.4088,1.4088,1.4088,1.4088,1.4088,1.4088,1.3203,1.1986,1.0869,0.8856,0.7417,0.757,0.755,0.7509,0.0,0.0,0.0,0.0,0.0,0.0,0.0,0.0,0.0,0.0,0.0,0.0,0.0,0.0,0.0,0.009,0.0,0.0,0.0,0.0,0.0,0.0,0.0,-0.1628,-0.4858,-0.5385,-0.6456,-0.7979,-0.7962,-0.8048,-0.8038,-0.8038,-0.8038,-0.8038,-0.8821,-0.9217,-0.9312,-0.9998,-1.0681,-1.1263,-1.2037,-1.3,-1.3974,2.2564,0.0,2.4192,0.0,2.8222,2.9792,2.9792,2.7383,2.4893,2.3309,2.2432,2.1572,2.0664,2.0566,2.0498,2.0332,2.0469,2.0293,1.9648,1.9326,1.8828,1.8047,1.7725,0.0,1.7197,1.6709,1.6689,1.7197,1.7012,0.0,0.0,0.0,0.0,0.0,1.5661,1.4776,1.4649,1.2791,1.2118,1.2305,1.2305,1.2425,1.2659,1.306,1.334,1.3567,1.3948,1.4088,1.4088,1.4088,1.4088,1.4088,1.4088,1.4088,1.4088,1.4088,1.4088,1.4088,1.4088,1.4088,1.4088,1.4088,1.4088,1.4088,1.4088,1.2942,1.1402,0.9998,0.8493,0.7472,0.758,0.7634,0.7648,0.0,0.0,0.0,0.0,0.0,0.0,0.0,0.0,0.0,0.0,0.0,0.0,0.0,0.0,0.0,0.0,0.0,0.0,0.0,0.0,0.0,0.0,0.0,-0.4244,-0.8022,-0.605,-0.6139,-0.7972,-0.8048,-0.8038,-0.8038,-0.8038,-0.8233,-0.8627,-0.9608,-1.0194,-1.0681,-1.1556,-1.2139,-1.2624,-1.3584,-1.4166,-1.4561,2.335,2.4207,2.5837,2.9151,2.9767,2.9792,2.9792,2.6047,2.3135,2.3135,2.3125,2.2461,2.0752,2.0566,2.0342,1.9795,2.0244,2.0205,1.9346,1.9043,1.8623,0.0,0.0,1.7607,1.6758,1.7148,1.7158,1.6738,0.0,0.0,1.7393,0.0,1.7501,1.6567,1.5649,1.4665,1.3673,1.2732,1.2298,1.2305,1.2305,1.2305,1.2371,1.2979,1.3213,1.3293,1.3881,1.4088,1.4088,1.4088,1.4088,1.4088,1.4088,1.4088,1.4088,1.4088,1.4088,1.4088,1.4088,1.4088,1.4088,1.4088,1.4088,1.4088,1.4088,1.226,0.9979,0.7873,0.7489,0.7597,0.76,0.7712,0.7763,0.7624,0.0,0.0,0.0,0.0,0.0,0.0,0.0,0.0,0.0,0.0,0.0,0.0,0.0,0.0,0.0,0.0,0.0,0.0,0.0,0.0,0.0,-0.526,-0.7922,-0.8026,-0.7989,-0.7972,-0.7972,-0.8048,-0.8038,-0.8038,-0.8038,-0.8726,-0.9998,-0.9998,-1.0779,-1.1853,-1.1848,-1.2721,-1.3878,-1.3872,-1.4657,-1.5737,2.4985,2.5797,2.6753,2.934,2.8536,2.7519,2.7519,2.7601,2.6543,2.3464,2.2119,2.1172,2.0625,2.0039,1.9853,0.0,1.9766,1.9297,0.0,1.8828,1.8379,1.7617,1.7578,1.7451,1.7178,1.7021,1.7021,1.7178,0.0,0.0,0.0,1.7949,1.7501,1.6567,1.5658,1.4665,1.3673,1.2739,1.2305,1.2305,1.2305,1.2425,1.2645,1.3053,1.3333,1.3561,1.3948,1.4088,1.4088,1.4088,1.4088,1.4088,1.4088,1.4088,1.4088,1.4088,1.4088,1.4088,1.4088,1.4088,1.4088,1.4088,1.4088,1.4088,1.4088,1.226,0.9979,0.7876,0.7411,0.7478,0.758,0.7638,0.7651,0.7607,0.0,0.0,0.0,0.0,0.0,0.0,0.0,0.0,0.0,0.5697,0.0,0.0,0.0,0.0,0.0,0.0,0.0,0.0,0.0,0.0,0.0,-0.5363,-0.8016,-0.8002,-0.7982,-0.7965,-0.8048,-0.8041,-0.8038,-0.8038,-0.8038,-0.8726,-1.0096,-1.0974,-1.2037,-1.3397,-1.4178,-1.4854,-1.5242,-1.5242,-1.5439,-1.5832,2.5429,2.6245,2.6974,2.8298,2.7381,2.6533,2.6533,2.7645,2.7019,2.2732,2.123,2.0566,2.0566,2.0088,0.0,1.9922,1.9678,1.9238,1.8594,1.8457,1.8164,1.7637,1.7617,1.7539,1.7393,0.0,0.0,1.7617,1.7617,1.7754,1.8008,1.8008,1.7295,1.6079,1.5446,1.445,1.3171,1.2519,1.2305,1.2305,1.2305,1.2412,1.2612,1.2919,1.322,1.352,1.3814,1.3988,1.4088,1.4088,1.4088,1.4088,1.4088,1.4088,1.4088,1.4088,1.4088,1.4088,1.4088,1.4088,1.4088,1.4088,1.4088,1.3854,1.3083,1.1417,0.9566,0.7798,0.7499,0.7533,0.7516,0.7604,0.7641,0.7533,0.0,0.7546,0.0,0.0,0.0,0.0,0.0,0.0,0.0,0.4118,0.0,0.0,0.0,0.0,0.0,0.0,0.0,0.0,0.0,0.0,-0.1515,-0.4847,-0.6974,-0.7992,-0.7969,-0.7952,-0.8038,-0.8038,-0.8038,-0.8038,-0.8531,-0.9509,-1.0779,-1.2134,-1.3397,-1.4657,-1.5534,-1.5832,-1.5832,-1.5832,-1.5832,-1.5832,2.4956,2.5812,0.0,0.0,2.6533,0.0,2.6533,2.6533,2.5052,2.1088,2.0566,2.0566,2.0566,2.0566,2.0146,1.9092,0.0,0.0,0.0,1.8027,1.8008,1.8008,1.7978,0.0,1.7432,1.7754,1.7939,1.7969,1.7998,1.8008,1.8008,1.8008,1.701,1.5234,1.5234,1.4091,1.2305,1.2305,1.2305,1.2305,1.2305,1.2305,1.2338,1.2659,1.2959,1.3253,1.3561,1.3854,1.4088,1.4088,1.4088,1.4088,1.4088,1.4088,1.4088,1.4088,1.4088,1.4088,1.4088,1.4088,1.4088,1.4088,1.3997,1.3461,1.1253,1.0017,0.8963,0.7875,0.7706,0.7712,0.7438,0.7604,0.7692,0.7414,0.7482,0.7519,0.7373,0.0,0.0,0.0,0.0,0.0,0.0,0.143,0.0,0.0,0.0,0.0,0.0,0.0,-0.0386,-0.0,-0.04,-0.1718,-0.4253,-0.4128,-0.5329,-0.7985,-0.7955,-0.8038,-0.8038,-0.8038,-0.8038,-0.8038,-0.941,-1.0681,-1.2042,-1.3397,-1.4657,-1.5832,-1.5832,-1.5832,-1.5832,-1.5832,-1.5832,-1.5825,0.0,0.0,2.6533,2.6533,2.6533,2.6533,2.6533,2.6533,2.5052,2.1088,2.0566,2.0566,2.0566,2.0566,2.0459,2.0185,1.9512,1.8916,1.8446,1.8184,1.8008,1.8008,1.7705,1.7637,1.7852,1.7324,1.7197,1.7529,1.7852,1.8008,1.8008,1.8008,1.701,1.5234,1.5234,1.4091,1.2305,1.2305,1.2305,1.2305,1.2305,1.2305,1.2358,1.2899,1.3146,1.328,1.3794,1.4028,1.4088,1.4088,1.4088,1.4088,1.4088,1.4088,1.4088,1.4088,1.4088,1.4088,1.4088,1.4088,1.4088,1.4088,1.3379,1.2404,1.1071,0.9908,0.881,0.7851,0.7628,0.7628,0.756,0.7506,0.7451,0.7383,0.7302,0.7234,0.72,0.0,0.0,0.0,0.7577,0.6587,0.417,0.1556,0.0,0.0,0.0,0.0,0.0,0.0,-0.4234,-0.01,-0.3932,-0.6385,-0.7,-0.5035,-0.5322,-0.7952,-0.8041,-0.8038,-0.8038,-0.8038,-0.8038,-0.8038,-0.941,-1.0681,-1.2042,-1.3397,-1.4657,-1.5832,-1.5832,-1.5832,-1.5832,-1.5832,-1.5832,-1.592,2.5165,2.59,2.6533,2.6533,2.6533,2.6533,2.6533,2.6533,2.5052,2.1088,2.0566,2.0566,2.0566,2.0566,2.0566,2.0566,1.9209,1.835,1.835,1.8135,1.8008,1.8008,1.7793,1.7773,1.8008,1.7559,1.7432,1.7666,1.79,1.8008,1.8008,1.8008,1.701,1.5234,1.5234,1.4091,1.2305,1.2305,1.2305,1.2305,1.2305,1.2305,1.2338,1.2665,1.2879,1.3039,1.336,1.3647,1.3881,1.3881,1.3626,1.3379,1.3913,1.373,1.3379,1.3913,1.4088,1.4088,1.4088,1.4088,1.3997,1.3379,1.2428,1.1319,1.0295,0.9196,0.8333,0.777,0.7753,0.778,0.7709,0.7577,0.7451,0.7383,0.7241,0.7139,0.7139,0.7139,0.0,0.7563,0.7631,0.6658,0.4246,0.1588,0.0,0.0,0.0,0.0,-0.77,-0.7957,-0.6705,-0.3729,-0.5247,-0.616,-0.616,-0.5942,-0.6534,-0.8038,-0.8109,-0.8109,-0.8041,-0.8113,-0.8106,-0.8137,-0.9998,-1.1268,-1.2042,-1.398,-1.5146,-1.5832,-1.5832,-1.5832,-1.5832,-1.5832,-1.6197,-1.6756,2.5799,2.6226,2.6533,2.6533,2.6533,2.6533,2.6533,2.6013,2.4397,2.1011,2.0566,2.0566,2.0566,2.0566,2.0566,2.0566,1.916,1.8223,1.8115,1.8105,1.8076,1.8008,1.792,1.792,1.8008,1.8008,1.7978,1.791,1.7978,1.8008,1.8008,1.7862,1.6862,1.5163,1.5021,1.3947,1.2305,1.2305,1.2305,1.2305,1.2305,1.2305,1.2305,1.2351,1.2525,1.2835,1.2929,1.3206,1.3566,1.3441,1.2925,1.2498,1.347,1.3118,1.2504,1.3737,1.4088,1.4088,1.4088,1.4088,1.3835,1.2643,1.1592,1.0517,0.9405,0.8464,0.7818,0.7841,0.7946,0.7997,0.7868,0.7709,0.7563,0.7455,0.7268,0.7149,0.7173,0.0,0.7195,0.7567,0.7557,0.671,0.4812,0.1813,0.0,0.0,0.0,0.0,0.0,-0.7826,-0.7989,-0.7982,-0.5834,-0.462,-0.462,-0.6848,-0.7959,-0.8041,-0.8197,-0.8187,-0.8045,-0.8201,-0.8184,-0.8137,-1.0774,-1.1945,-1.2139,-1.4758,-1.5832,-1.5832,-1.5832,-1.5832,-1.5832,-1.5832,-1.648,-1.7505,2.374,2.5172,2.6533,2.6533,2.6533,2.6533,2.6533,2.3661,2.1308,2.0712,2.0566,2.0566,2.0566,2.0566,2.0566,2.0566,1.9893,1.9199,1.8584,1.8545,1.8379,1.8027,1.7539,1.75,1.7998,1.8008,1.7832,1.748,1.7832,1.8008,1.8008,1.7217,1.6219,1.5163,1.4307,1.331,1.2305,1.2305,1.2305,1.2305,1.2305,1.2305,1.2325,1.2579,1.2782,1.2889,1.332,1.3567,1.351,1.2716,1.2383,1.2328,1.2504,1.2413,1.2504,1.3737,1.4088,1.4088,1.4088,1.4088,1.3881,1.279,1.1628,1.06,0.9652,0.8634,0.7848,0.7977,0.8024,0.8031,0.8007,0.7784,0.7631,0.7726,0.7404,0.7187,0.7316,0.0,0.7145,0.7402,0.7273,0.7236,0.7384,0.2928,0.0,0.0,0.0,-0.1309,-0.4405,-0.6748,-0.7975,-0.8048,-0.7556,-0.7359,-0.7359,-0.7749,-0.8041,-0.8041,-0.8197,-0.8187,-0.8045,-0.8201,-0.8184,-0.8137,-1.0774,-1.1945,-1.2139,-1.4758,-1.5832,-1.5832,-1.5832,-1.5832,-1.5832,-1.5832,-1.592,-1.6386,2.3991,2.4381,2.4669,2.4669,2.4669,2.5071,2.6345,2.3147,2.0566,2.0566,2.0566,2.0566,2.0566,2.0566,2.0566,2.0566,2.0332,1.9844,1.9043,1.8555,1.8213,1.8018,1.7754,1.7734,1.8008,1.8008,1.791,1.7715,1.791,1.8008,1.8008,1.707,1.607,1.5163,1.4171,1.3164,1.2305,1.2305,1.2305,1.2305,1.2305,1.2305,1.2318,1.2452,1.2505,1.2565,1.3006,1.2855,1.245,1.2206,1.1787,1.1466,1.2072,1.2328,1.2504,1.3737,1.4202,1.4282,1.4128,1.3756,1.3071,1.1821,1.0676,0.9655,0.8556,0.8072,0.7831,0.7902,0.798,0.8038,0.8038,0.7797,0.7645,0.7787,0.7434,0.0,0.0,0.7254,0.7204,0.7518,0.7246,0.7365,0.7908,0.3131,0.0,0.0,0.0,-0.1816,-0.5957,-0.7378,-0.7979,-0.7959,-0.7955,-0.7955,-0.7955,-0.8045,-0.8038,-0.8041,-0.8197,-0.8187,-0.8045,-0.8201,-0.8184,-0.8137,-1.0774,-1.1945,-1.2139,-1.4758,-1.5832,-1.5832,-1.5832,-1.5832,-1.5832,-1.5832,-1.6204,-1.7037,2.4255,2.3666,2.3078,2.3078,2.3078,2.3891,2.6113,2.3147,2.0566,2.0566,2.0566,2.0566,2.0566,2.0566,2.0566,2.0566,2.0566,2.0117,1.9062,1.8379,1.8008,1.8008,1.8008,1.8008,1.8008,1.8008,1.8008,1.8008,1.8008,1.8008,1.794,1.6784,1.586,1.5163,1.3954,1.2952,1.2305,1.2305,1.2305,1.2305,1.2305,1.2305,1.2311,1.2378,1.2405,1.2452,1.2826,1.2536,1.2023,1.1952,1.1573,1.1123,1.198,1.2328,1.2516,1.3809,1.4442,1.4555,1.3926,1.3281,1.2329,1.0705,0.9772,0.8934,0.7791,0.7702,0.7865,0.7865,0.7957,0.8038,0.8038,0.7824,0.7695,0.7841,0.0,0.0,0.0,0.7379,0.7117,0.6831,0.6018,0.5584,0.6067,0.2424,0.0,0.0,0.0,-0.2019,-0.6788,-0.7074,-0.7366,-0.7965,-0.8048,-0.8038,-0.8038,-0.8038,-0.8038,-0.8041,-0.8197,-0.8187,-0.8045,-0.8201,-0.8184,-0.8137,-1.0774,-1.1945,-1.2139,-1.4758,-1.5832,-1.5832,-1.5832,-1.5832,-1.5832,-1.5832,-1.6386,-1.7498,2.3178,2.3128,2.3078,2.3078,2.3078,2.3891,2.6113,2.3147,2.0566,2.0566,2.0566,2.0566,2.0566,2.0566,2.0566,2.0566,2.0566,1.9863,1.8213,1.8047,1.8008,1.8008,1.8008,1.8008,1.8008,1.8008,1.8008,1.8008,1.8008,1.8008,1.794,1.6158,1.5234,1.5092,1.3237,1.2372,1.2305,1.2305,1.2305,1.2305,1.2305,1.2305,1.2331,1.2605,1.2788,1.2862,1.3367,1.3506,1.3313,1.256,1.2225,1.2151,1.2242,1.2328,1.2552,1.405,1.489,1.5015,1.3364,1.2797,1.206,0.9902,0.9443,0.9248,0.815,0.8007,0.8021,0.8021,0.8031,0.8038,0.8038,0.7906,0.7845,0.7997,0.0,0.0,0.7773,0.7627,0.6657,0.4203,0.1891,0.0504,0.0606,0.0202,0.0,0.0,0.0,-0.1211,-0.4135,-0.4325,-0.5422,-0.7942,-0.8041,-0.8038,-0.8038,-0.8038,-0.8038,-0.8041,-0.8197,-0.8187,-0.8045,-0.8201,-0.8184,-0.8137,-1.0774,-1.1945,-1.2139,-1.4758,-1.5832,-1.5832,-1.5832,-1.5832,-1.5832,-1.5832,-1.5825,-1.6292,2.3078,2.3078,2.3078,2.3078,2.1342,2.0573,2.2557,2.1603,2.0566,2.0566,1.9639,1.8984,1.8984,1.8984,1.8984,1.8984,1.8984,1.8711,1.8047,1.8008,1.8008,1.8008,1.8008,1.8008,1.8008,1.8008,1.8008,1.8008,1.8008,1.8008,1.794,1.6088,1.5234,1.5092,1.3164,1.2305,1.2305,1.2305,1.2305,1.2305,1.2305,1.2305,1.2338,1.2708,1.2822,1.2903,1.3427,1.2719,1.1577,1.2155,1.1809,1.1381,1.2072,1.2851,1.3528,1.4256,1.4549,1.4164,1.2389,1.1984,1.162,0.9722,0.8827,0.8304,0.7983,0.797,0.8038,0.8038,0.8038,0.8038,0.8038,0.7916,0.7862,0.8014,0.0,0.7689,0.794,0.772,0.7315,0.6396,0.2612,0.0,0.0,0.0,0.0,0.0,0.0,-0.1212,-0.3841,-0.5548,-0.6948,-0.7942,-0.8038,-0.8038,-0.8038,-0.8038,-0.8038,-0.8038,-0.8099,-0.8096,-0.8041,-0.8099,-0.8096,-0.8137,-1.0774,-1.1945,-1.2139,-1.4758,-1.5832,-1.5832,-1.5832,-1.5832,-1.5832,-1.5832,-1.5832,-1.6015,2.3078,2.3078,2.3078,2.3078,2.0257,1.8408,1.958,1.9766,1.9766,1.9766,1.874,1.8008,1.8008,1.8008,1.8008,1.8008,1.8008,1.8008,1.8008,1.8008,1.8008,1.8008,1.8008,1.8008,1.8008,1.8008,1.8008,1.8008,1.8008,1.8008,1.794,1.6088,1.5234,1.5092,1.3164,1.2305,1.2305,1.2305,1.2305,1.2305,1.2305,1.2358,1.2478,1.2779,1.2953,1.3093,1.3601,1.2504,1.1,1.2008,1.1809,1.1295,1.2066,1.3174,1.4262,1.4462,1.4176,1.3467,1.1748,1.116,1.0721,0.9181,0.8339,0.7882,0.7882,0.7963,0.8038,0.8038,0.8038,0.8038,0.8038,0.7953,0.7916,0.8021,0.7872,0.7814,0.7942,0.7087,0.6874,0.7905,0.3232,0.0,0.0,0.0,0.0,0.0,0.0,-0.0808,-0.2625,-0.606,-0.7979,-0.7952,-0.8041,-0.8038,-0.8038,-0.8038,-0.8038,-0.8038,-0.8038,-0.8038,-0.8038,-0.8038,-0.8038,-0.8137,-1.0774,-1.1945,-1.2139,-1.4758,-1.5832,-1.5832,-1.5832,-1.5832,-1.5832,-1.5832,-1.5832,-1.6015,2.3078,2.3078,2.3078,2.3065,2.0257,1.8008,1.8008,1.8008,1.8008,1.8008,1.8008,1.8008,1.8008,1.8008,1.8008,1.8008,1.8008,1.8008,1.8008,1.8008,1.8008,1.8008,1.8008,1.8008,1.8008,1.8008,1.8008,1.8008,1.8008,1.8008,1.794,1.6088,1.5234,1.5092,1.3164,1.2305,1.2305,1.2305,1.2305,1.2305,1.2305,1.2478,1.2856,1.3093,1.3394,1.3681,1.3981,1.3294,1.2322,1.2322,1.2242,1.2242,1.2322,1.3299,1.4516,1.4516,1.3907,1.2933,1.165,1.0599,0.9519,0.8097,0.7926,0.8038,0.8038,0.8038,0.8038,0.8038,0.8038,0.8038,0.8038,0.8038,0.8038,0.8038,0.8038,0.8048,0.7969,0.5732,0.4931,0.761,0.3232,0.0,0.0,0.0,0.0,0.0,0.0,0.0,0.0,-0.5035,-0.7985,-0.7972,-0.7952,-0.8038,-0.8038,-0.8038,-0.8038,-0.8038,-0.8038,-0.8038,-0.8038,-0.8038,-0.8038,-0.8137,-1.0774,-1.1945,-1.2139,-1.4758,-1.5832,-1.5832,-1.5832,-1.5832,-1.5832,-1.5832,-1.5832,-1.6015,2.3078,2.3078,2.2359,1.9933,1.8654,1.8008,1.8008,1.8008,1.8008,1.8008,1.8008,1.8008,1.8008,1.8008,1.8008,1.8008,1.8008,1.8008,1.8008,1.8008,1.8008,1.8008,1.8008,1.8008,1.8008,1.8008,1.8008,1.8008,1.8008,1.8008,1.794,1.6088,1.5234,1.5092,1.3164,1.2305,1.2305,1.2305,1.2305,1.2305,1.2305,1.2351,1.2492,1.3013,1.3267,1.332,1.295,1.2072,1.1123,1.1123,1.0611,1.0183,1.1809,1.3174,1.4038,1.3236,1.2763,1.2201,1.037,0.9653,0.9107,0.8041,0.7926,0.8038,0.8038,0.8038,0.8038,0.8038,0.8038,0.8038,0.8038,0.8038,0.8038,0.8038,0.8038,0.8048,0.7979,0.5737,0.3618,0.2522,0.101,0.0,0.0,0.0,0.0,0.0,0.0,0.0,0.0,-0.3316,-0.6039,-0.7972,-0.7952,-0.8038,-0.8038,-0.8038,-0.8038,-0.8038,-0.8038,-0.8038,-0.8038,-0.8038,-0.8038,-0.8137,-1.0774,-1.1945,-1.2139,-1.4758,-1.5832,-1.5832,-1.5832,-1.5832,-1.5832,-1.5832,-1.5832,-1.5798,2.0299,2.0588,2.044,1.8327,1.8008,1.8008,1.8008,1.8008,1.8008,1.8008,1.8008,1.8008,1.8008,1.8008,1.8008,1.8008,1.8008,1.8008,1.8008,1.8008,1.8008,1.8008,1.8008,1.8008,1.8008,1.8008,1.8008,1.8008,1.7647,1.7432,1.7432,1.5517,1.4593,1.4522,1.3018,1.2305,1.2305,1.2305,1.2305,1.2305,1.2305,1.2371,1.2518,1.2886,1.2923,1.2675,1.2236,1.1219,0.9923,0.9923,0.9492,0.9235,1.1042,1.2163,1.2601,1.1815,1.1295,1.0666,0.9516,0.8794,0.8413,0.7868,0.7838,0.7967,0.8024,0.8038,0.8038,0.8038,0.8038,0.8038,0.8038,0.8038,0.8038,0.8038,0.8038,0.7952,0.7985,0.5737,0.3015,0.0303,0.0,0.0,0.0,0.0,0.0,0.0,0.0,-0.0908,-0.3022,-0.3718,-0.5227,-0.7872,-0.7952,-0.8038,-0.8038,-0.8038,-0.8038,-0.8038,-0.8038,-0.8038,-0.8038,-0.8038,-0.8038,-0.8137,-1.019,-1.1458,-1.2042,-1.4172,-1.5343,-1.5832,-1.5832,-1.5832,-1.5832,-1.5832,-1.5832,-1.5785,1.6358,1.6868,1.7822,1.7978,1.8008,1.8008,1.8008,1.8008,1.8008,1.8008,1.8008,1.8008,1.8008,1.8008,1.8008,1.8008,1.8008,1.8008,1.8008,1.8008,1.8008,1.8008,1.8008,1.8008,1.8008,1.8008,1.8008,1.8008,1.707,1.6636,1.6567,1.4593,1.3673,1.3673,1.2732,1.2305,1.2305,1.2305,1.2305,1.2305,1.2305,1.2465,1.2788,1.2808,1.2444,1.1834,1.1775,1.0508,0.889,0.889,0.8978,0.9235,1.0269,1.0697,1.0697,1.0524,0.9753,0.8894,0.8823,0.8178,0.7587,0.7611,0.7716,0.7851,0.8004,0.8038,0.8038,0.8038,0.8038,0.8038,0.8038,0.8038,0.8038,0.8038,0.8038,0.7952,0.7985,0.5737,0.3015,0.0303,0.0,0.0,0.0,0.0,0.0,0.0,0.0,-0.2323,-0.7717,-0.5646,-0.5429,-0.7972,-0.7952,-0.8038,-0.8038,-0.8038,-0.8038,-0.8038,-0.8038,-0.8038,-0.8038,-0.8038,-0.8038,-0.8038,-0.9509,-1.0877,-1.2042,-1.3488,-1.4752,-1.5832,-1.5832,-1.5832,-1.5832,-1.5832,-1.5832,-1.5785,1.9148,1.728,1.6406,1.7773,1.8008,1.8008,1.8008,1.8008,1.8008,1.8008,1.8008,1.8008,1.8008,1.8008,1.8008,1.8008,1.8008,1.8008,1.8008,1.8008,1.8008,1.8008,1.8008,1.8008,1.8008,1.8008,1.8008,1.8008,1.707,1.6636,1.6567,1.4593,1.3673,1.3673,1.2732,1.2305,1.2305,1.2305,1.2305,1.2305,1.2305,1.2338,1.2425,1.2735,1.2251,1.1514,1.0797,0.9833,0.889,0.889,0.9492,1.0269,1.0524,1.1209,1.1552,0.9753,0.9061,0.8748,0.7915,0.7552,0.7478,0.7706,0.7787,0.7851,0.8004,0.8038,0.8038,0.8038,0.8038,0.8038,0.8038,0.8038,0.8038,0.8038,0.8038,0.7952,0.7985,0.5737,0.3015,0.0303,0.0,0.0,0.0,0.0,0.0,0.0,0.0,-0.2323,-0.7717,-0.7485,-0.7369,-0.7972,-0.7952,-0.8038,-0.8038,-0.8038,-0.8038,-0.8038,-0.8038,-0.8038,-0.8038,-0.8038,-0.8038,-0.8137,-1.0485,-1.1653,-1.2042,-1.4465,-1.554,-1.5832,-1.5832,-1.5832,-1.5832,-1.5832,-1.5832,-1.5839,1.9924,1.8543,1.7467,1.7407,1.7734,1.8008,1.8008,1.8008,1.8008,1.8008,1.8008,1.8008,1.8008,1.8008,1.8008,1.8008,1.8008,1.8008,1.8008,1.8008,1.8008,1.8008,1.8008,1.8008,1.8008,1.8008,1.7794,1.7354,1.6358,1.5625,1.4977,1.3663,1.2947,1.2813,1.2451,1.2305,1.2305,1.2305,1.2305,1.2305,1.2305,1.2305,1.2338,1.2708,1.2291,1.1358,1.0533,0.9235,0.8017,0.8017,0.8448,0.8965,0.8965,0.9309,0.9566,0.836,0.8017,0.7967,0.751,0.7424,0.7533,0.7756,0.7865,0.794,0.8021,0.8038,0.8038,0.8038,0.8038,0.8038,0.8038,0.8038,0.8038,0.8038,0.8038,0.7952,0.7985,0.5737,0.3015,0.0303,0.0,0.0,0.0,0.0,0.0,0.0,0.0,-0.1816,-0.5854,-0.7278,-0.7979,-0.7959,-0.8045,-0.8038,-0.8038,-0.8038,-0.8038,-0.8038,-0.8038,-0.8038,-0.8038,-0.8038,-0.8038,-0.8038,-0.941,-1.0779,-1.2042,-1.3397,-1.4663,-1.5832,-1.5832,-1.5832,-1.5812,-1.5671,-1.5444,-1.5228,1.9798,2.0112,1.9634,1.7302,1.7539,1.8008,1.8008,1.8008,1.8008,1.8008,1.8008,1.8008,1.8008,1.8008,1.8008,1.8008,1.8008,1.8008,1.8008,1.8008,1.8008,1.8008,1.8008,1.8008,1.8008,1.8008,1.7579,1.6636,1.5649,1.4592,1.3349,1.2622,1.2171,1.1951,1.2191,1.2305,1.2305,1.2305,1.2305,1.2305,1.2305,1.2305,1.2325,1.2579,1.206,1.1049,1.0393,0.8781,0.7139,0.7316,0.7401,0.7401,0.7401,0.7401,0.7408,0.7173,0.718,0.7214,0.737,0.7519,0.7665,0.778,0.7926,0.8038,0.8038,0.8038,0.8038,0.8038,0.8038,0.8038,0.8038,0.8038,0.8038,0.8038,0.8038,0.7952,0.7985,0.5737,0.3015,0.0303,0.0,0.0,0.0,0.0,0.0,0.0,0.0,-0.1209,-0.3815,-0.6553,-0.7975,-0.8041,-0.8038,-0.8038,-0.8038,-0.8038,-0.8038,-0.8038,-0.8038,-0.8038,-0.8038,-0.8038,-0.8038,-0.8038,-0.8237,-0.9702,-1.1945,-1.2139,-1.3692,-1.5832,-1.5832,-1.5798,-1.5718,-1.5431,-1.4983,-1.4476,1.9798,2.1355,2.1656,1.8384,1.793,1.8008,1.8008,1.8008,1.8008,1.8008,1.8008,1.8008,1.8008,1.8008,1.8008,1.8008,1.8008,1.8008,1.8008,1.8008,1.8008,1.8008,1.8008,1.8008,1.8008,1.8008,1.7579,1.6636,1.5649,1.4641,1.3606,1.2718,1.2278,1.2245,1.2285,1.2305,1.2305,1.2305,1.2305,1.2305,1.2305,1.2305,1.2305,1.2345,1.131,0.9764,0.9751,0.8581,0.7228,0.8277,0.8627,0.8627,0.8627,0.8627,0.8484,0.766,0.7339,0.7373,0.7529,0.7675,0.7787,0.7804,0.7926,0.8038,0.8038,0.8038,0.8038,0.8038,0.8038,0.8038,0.8038,0.8038,0.8038,0.8038,0.8038,0.7952,0.7985,0.5737,0.3015,0.0303,0.0,0.0,0.0,0.0,0.0,0.0,0.0,-0.1209,-0.3815,-0.6553,-0.7975,-0.8041,-0.8038,-0.8038,-0.8038,-0.8038,-0.8038,-0.8038,-0.8038,-0.8038,-0.8038,-0.8038,-0.8038,-0.8038,-0.9213,-1.0583,-1.1945,-1.3102,-1.4465,-1.5832,-1.5832,-1.5671,-1.5418,-1.513,-1.481,-1.4476,1.8608,1.9067,1.9024,1.7318,1.7578,1.79,1.7568,1.7803,1.8008,1.8008,1.8008,1.8008,1.8008,1.8008,1.8008,1.8008,1.8008,1.8008,1.8008,1.8008,1.8008,1.8008,1.8008,1.8008,1.8008,1.7501,1.6784,1.579,1.5236,1.4057,1.2438,1.2192,1.1971,1.1824,1.2158,1.2211,1.2071,1.2231,1.2204,1.2078,1.2238,1.2305,1.2318,1.2485,1.2088,1.1212,1.0183,0.8581,0.7107,0.7624,0.7854,0.7929,0.7929,0.7929,0.7786,0.7507,0.737,0.7421,0.7655,0.7763,0.7831,0.7916,0.7926,0.7933,0.8021,0.7974,0.7936,0.8021,0.8038,0.8038,0.8038,0.8038,0.8038,0.8038,0.8038,0.7952,0.7985,0.5737,0.3015,0.0303,0.0,0.0,0.0,0.0,0.0,0.0,0.0,-0.1209,-0.3815,-0.6553,-0.7975,-0.8041,-0.8038,-0.8038,-0.8038,-0.8038,-0.8038,-0.8038,-0.8038,-0.8038,-0.8038,-0.8038,-0.8038,-0.8038,-0.941,-1.0681,-1.2042,-1.3397,-1.457,-1.5585,-1.5585,-1.5311,-1.489,-1.4763,-1.4529,-1.4215]}]]